[[{"header":{"parameterUnit":"m.s-1","parameterCategory":1,"la1":31.0,"la2":29.5877,"lo1":-88.7671,"lo2":-86.6584,"dy":0.0162,"dx":0.0185,"nx":115,"ny":88,"refTime":"2023-07-04T06:00:00:Z","depth":0,"parameterNumber":2,"parameterNumberName":"U-component_of_WINDS"},"data":[0.0,0.0,0.0,0.0,0.0,0.0,0.0,0.0,0.0,0.0,0.0,0.0,0.0,0.0,0.0,0.0,0.0,0.0,0.0,0.0,0.0,0.0,0.0,0.0,0.0,0.0,0.0,0.0,0.0,0.0,0.0,0.0,0.0,0.0,0.0,0.0,0.0,0.0,0.0,0.0,0.0,0.0,0.0,0.0,0.0,0.0,0.0,0.0,0.0,0.0,0.0,0.0,0.0,0.0,0.0,0.0,0.0,0.0,0.0,0.0,0.0,0.0,0.0,0.0,0.0,0.0,0.0,0.0,0.0,0.0,0.0,0.0,0.0,0.0,0.0,0.0,0.0,0.0,0.0,0.0,0.0,0.0,0.0,0.0,0.0,0.0,0.0,0.0,0.0,0.0,0.0,0.0,0.0,0.0,0.0,0.0,0.0,0.0,0.0,0.0,0.0,0.0,0.0,0.0,0.0,0.0,0.0,0.0,0.0,0.0,0.0,0.0,0.0,0.0,0.0,0.0,0.0,0.0,0.0,0.0,0.0,0.0,0.0,0.0,0.0,0.0,0.0,0.0,0.0,0.0,0.0,0.0,0.0,0.0,0.0,0.0,0.0,0.0,0.0,0.0,0.0,0.0,0.0,0.0,0.0,0.0,0.0,0.0,0.0,0.0,0.0,0.0,0.0,0.0,0.0,0.0,0.0,0.0,0.0,0.0,0.0,0.0,0.0,0.0,0.0,0.0,0.0,0.0,0.0,0.0,0.0,0.0,0.0,0.0,0.0,0.0,0.0,0.0,0.0,0.0,0.0,0.0,0.0,0.0,0.0,0.0,0.0,0.0,0.0,0.0,0.0,0.0,0.0,0.0,0.0,0.0,0.0,0.0,0.0,0.0,0.0,0.0,0.0,0.0,0.0,0.0,0.0,0.0,0.0,0.0,0.0,0.0,0.0,0.0,0.0,0.0,0.0,0.0,0.0,0.0,0.0,0.0,0.0,0.0,0.0,0.0,0.0,0.0,0.0,0.0,0.0,0.0,0.0,0.0,0.0,0.0,0.0,0.0,0.0,0.0,0.0,0.0,0.0,0.0,0.0,0.0,0.0,0.0,0.0,0.0,0.0,0.0,0.0,0.0,0.0,0.0,0.0,0.0,0.0,0.0,0.0,0.0,0.0,0.0,0.0,0.0,0.0,0.0,0.0,0.0,0.0,0.0,0.0,0.0,0.0,0.0,0.0,0.0,0.0,0.0,0.0,0.0,0.0,0.0,0.0,0.0,0.0,0.0,0.0,0.0,0.0,0.0,0.0,0.0,0.0,0.0,0.0,0.0,0.0,0.0,0.0,0.0,0.0,0.0,0.0,0.0,0.0,0.0,0.0,0.0,0.0,0.0,0.0,0.0,0.0,0.0,0.0,0.0,0.0,0.0,0.0,0.0,0.0,0.0,0.0,0.0,0.0,0.0,0.0,0.0,0.0,0.0,0.0,0.0,0.0,0.0,0.0,0.0,0.0,0.0,0.0,0.0,0.0,0.0,0.0,0.0,0.0,0.0,0.0,0.0,0.0,0.0,0.0,0.0,0.0,0.0,0.0,0.0,0.0,0.0,0.0,0.0,0.0,0.0,0.0,0.0,0.0,0.0,0.0,0.0,0.0,0.0,0.0,0.0,0.0,0.0,0.0,0.0,0.0,0.0,0.0,0.0,0.0,0.0,0.0,0.0,0.0,0.0,0.0,0.0,0.0,0.0,0.0,0.0,0.0,0.0,0.0,0.0,0.0,0.0,0.0,0.0,0.0,0.0,0.0,0.0,0.0,0.0,0.0,0.0,0.0,0.0,0.0,0.0,0.0,0.0,0.0,0.0,0.0,0.0,0.0,0.0,0.0,0.0,0.0,0.0,0.0,0.0,0.0,0.0,0.0,0.0,0.0,0.0,0.0,0.0,0.0,0.0,0.0,0.0,0.0,0.0,0.0,0.0,0.0,0.0,0.0,0.0,0.0,0.0,0.0,0.0,0.0,0.0,0.0,0.0,0.0,0.0,0.0,0.0,0.0,0.0,0.0,0.0,0.0,0.0,0.0,0.0,0.0,0.0,0.0,0.0,0.0,0.0,0.0,0.0,0.0,0.0,0.0,0.0,0.0,0.0,0.0,0.0,0.0,0.0,0.0,0.0,0.0,0.0,0.0,0.0,0.0,0.0,0.0,0.0,0.0,0.0,0.0,0.0,0.0,0.0,0.0,0.0,0.0,0.0,0.0,0.0,0.0,0.0,0.0,0.0,0.0,0.0,0.0,0.0,0.0,0.0,0.0,0.0,0.0,0.0,0.0,0.0,0.0,0.0,0.0,0.0,0.0,0.0,0.0,0.0,0.0,0.0,0.0,0.0,0.0,0.0,0.0,0.0,0.0,0.0,0.0,0.0,0.0,0.0,0.0,0.0,0.0,0.0,0.0,0.0,0.0,0.0,0.0,0.0,0.0,0.0,0.0,0.0,0.0,0.0,0.0,0.0,0.0,0.0,0.0,0.0,0.0,0.0,0.0,0.0,0.0,0.0,0.0,0.0,0.0,0.0,0.0,0.0,0.0,0.0,0.0,0.0,0.0,0.0,0.0,0.0,0.0,0.0,0.0,0.0,0.0,0.0,0.0,0.0,0.0,0.0,0.0,0.0,0.0,0.0,0.0,0.0,0.0,0.0,0.0,0.0,0.0,0.0,0.0,0.0,0.0,0.0,0.0,0.0,0.0,0.0,0.0,0.0,0.0,0.0,0.0,0.0,0.0,0.0,0.0,0.0,0.0,0.0,0.0,0.0,0.0,0.0,0.0,0.0,0.0,0.0,0.0,0.0,0.0,0.0,0.0,0.0,0.0,0.0,0.0,0.0,0.0,0.0,0.0,0.0,0.0,0.0,0.0,0.0,0.0,0.0,0.0,0.0,0.0,0.0,0.0,0.0,0.0,0.0,0.0,0.0,0.0,0.0,0.0,0.0,0.0,0.0,0.0,0.0,0.0,0.0,0.0,0.0,0.0,0.0,0.0,0.0,0.0,0.0,0.0,0.0,0.0,0.0,0.0,0.0,0.0,0.0,0.0,0.0,0.0,0.0,0.0,0.0,0.0,0.0,0.0,0.0,0.0,0.0,0.0,0.0,0.0,0.0,0.0,0.0,0.0,0.0,0.0,0.0,0.0,0.0,0.0,0.0,0.0,0.0,0.0,0.0,0.0,0.0,0.0,0.0,0.0,0.0,0.0,0.0,0.0,0.0,0.0,0.0,0.0,0.0,0.0,0.0,0.0,0.0,0.0,0.0,0.0,0.0,0.0,0.0,0.0,0.0,0.0,0.0,0.0,0.0,0.0,0.0,0.0,0.0,0.0,0.0,0.0,0.0,0.0,0.0,0.0,0.0,0.0,0.0,0.0,0.0,0.0,0.0,0.0,0.0,0.0,0.0,0.0,0.0,0.0,0.0,0.0,0.0,0.0,0.0,0.0,0.0,0.0,0.0,0.0,0.0,0.0,0.0,0.0,0.0,0.0,0.0,0.0,0.0,0.0,0.0,0.0,0.0,0.0,0.0,0.0,0.0,0.0,0.0,0.0,0.0,0.0,0.0,0.0,0.0,0.0,0.0,0.0,0.0,0.0,0.0,0.0,0.0,0.0,0.0,0.0,0.0,0.0,0.0,0.0,0.0,0.0,0.0,0.0,0.0,0.0,0.0,0.0,0.0,0.0,0.0,0.0,0.0,0.0,0.0,0.0,0.0,0.0,0.0,0.0,0.0,0.0,0.0,0.0,0.0,0.0,0.0,0.0,0.0,0.0,0.0,0.0,0.0,0.0,0.0,0.0,0.0,0.0,0.0,0.0,0.0,0.0,0.0,0.0,0.0,0.0,0.0,0.0,0.0,0.0,0.0,0.0,0.0,0.0,0.0,0.0,0.0,0.0,0.0,0.0,0.0,0.0,0.0,0.0,0.0,0.0,0.0,0.0,0.0,0.0,0.0,0.0,0.0,0.0,0.0,0.0,0.0,0.0,0.0,0.0,0.0,0.0,0.0,0.0,0.0,0.0,0.0,0.0,0.0,0.0,0.0,0.0,0.0,0.0,0.0,0.0,0.0,0.0,0.0,0.0,0.0,0.0,0.0,0.0,0.0,0.0,0.0,0.0,0.0,0.0,0.0,0.0,0.0,0.0,0.0,0.0,0.0,0.0,0.0,0.0,0.0,0.0,0.0,0.0,0.0,0.0,0.0,0.0,0.0,0.0,0.0,0.0,0.0,0.0,0.0,0.0,0.0,-1.1701,0.0,0.0,0.0,0.0,0.0,0.0,0.0,0.0,0.0,0.0,0.0,0.0,0.0,0.0,0.0,0.0,0.0,0.0,0.0,0.0,0.0,0.0,0.0,0.0,0.0,0.0,0.0,0.0,0.0,0.0,0.0,0.0,0.0,0.0,0.0,0.0,0.0,0.0,0.0,0.0,0.0,0.0,0.0,0.0,0.0,0.0,0.0,0.0,0.0,0.0,0.0,0.0,0.0,0.0,0.0,0.0,0.0,0.0,0.0,0.0,0.0,0.0,0.0,0.0,0.0,0.0,0.0,0.0,0.0,0.0,0.0,0.0,0.0,0.0,0.0,0.0,0.0,0.0,0.0,0.0,0.0,0.0,0.0,0.0,0.0,0.0,0.0,0.0,0.0,0.0,0.0,0.0,0.0,0.0,0.0,0.0,0.0,0.0,0.0,0.0,0.0,0.0,0.0,0.0,0.0,0.0,0.0,0.0,0.0,0.0,-1.143,-1.143,-1.1765,-1.1833,-1.1423,0.0,0.0,0.0,0.0,0.0,0.0,0.0,0.0,0.0,0.0,0.0,0.0,0.0,0.0,0.0,0.0,0.0,0.0,0.0,0.0,0.0,0.0,0.0,0.0,0.0,0.0,0.0,0.0,0.0,0.0,0.0,0.0,0.0,0.0,0.0,0.0,0.0,0.0,0.0,0.0,0.0,0.0,0.0,0.0,0.0,0.0,0.0,0.0,0.0,0.0,0.0,0.0,0.0,0.0,0.0,0.0,0.0,0.0,0.0,0.0,0.0,0.0,0.0,0.0,0.0,0.0,0.0,0.0,0.0,0.0,0.0,0.0,0.0,0.0,0.0,0.0,0.0,0.0,0.0,0.0,0.0,0.0,0.0,0.0,0.0,0.0,0.0,0.0,0.0,0.0,0.0,0.0,0.0,0.0,0.0,0.0,0.0,0.0,0.0,0.0,0.0,0.0,0.0,0.0,0.0,0.0,0.0,0.0,0.0,0.0,0.0,0.0,-1.1623,-1.159,-1.1606,0.0,0.0,0.0,0.0,0.0,0.0,0.0,0.0,0.0,0.0,0.0,0.0,0.0,0.0,0.0,0.0,0.0,0.0,0.0,0.0,0.0,0.0,0.0,0.0,0.0,0.0,0.0,0.0,0.0,0.0,0.0,0.0,0.0,0.0,0.0,0.0,0.0,0.0,0.0,0.0,0.0,0.0,0.0,0.0,0.0,0.0,0.0,0.0,0.0,0.0,0.0,0.0,0.0,0.0,0.0,0.0,0.0,0.0,0.0,0.0,0.0,0.0,0.0,0.0,0.0,0.0,0.0,0.0,0.0,0.0,0.0,0.0,0.0,0.0,0.0,0.0,0.0,0.0,0.0,0.0,0.0,0.0,0.0,0.0,0.0,0.0,0.0,0.0,0.0,0.0,0.0,0.0,0.0,0.0,0.0,0.0,0.0,0.0,0.0,0.0,0.0,0.0,0.0,0.0,0.0,0.0,0.0,0.0,0.0,0.0,-1.2225,-1.2225,-1.2218,0.0,-1.2253,0.0,0.0,0.0,0.0,0.0,0.0,0.0,0.0,0.0,0.0,0.0,0.0,0.0,0.0,0.0,0.0,0.0,0.0,0.0,0.0,0.0,0.0,0.0,0.0,0.0,0.0,0.0,0.0,0.0,0.0,0.0,0.0,0.0,0.0,0.0,0.0,0.0,0.0,0.0,0.0,0.0,0.0,0.0,0.0,0.0,0.0,0.0,0.0,0.0,0.0,0.0,0.0,0.0,0.0,0.0,0.0,0.0,0.0,0.0,0.0,0.0,0.0,0.0,0.0,0.0,0.0,0.0,0.0,0.0,0.0,0.0,0.0,0.0,0.0,0.0,0.0,0.0,0.0,0.0,0.0,0.0,0.0,0.0,0.0,0.0,0.0,0.0,0.0,0.0,0.0,0.0,0.0,0.0,0.0,0.0,0.0,0.0,0.0,0.0,0.0,0.0,0.0,0.0,0.0,0.0,0.0,0.0,0.0,0.0,0.0,-1.2305,-1.2305,-1.2305,-1.2325,0.0,0.0,0.0,0.0,0.0,0.0,0.0,0.0,0.0,0.0,0.0,0.0,0.0,0.0,0.0,0.0,0.0,0.0,0.0,0.0,0.0,0.0,0.0,0.0,0.0,0.0,0.0,0.0,0.0,0.0,0.0,0.0,0.0,0.0,0.0,0.0,0.0,0.0,0.0,0.0,0.0,0.0,0.0,0.0,0.0,0.0,0.0,0.0,0.0,0.0,0.0,0.0,0.0,0.0,0.0,0.0,0.0,0.0,0.0,0.0,0.0,0.0,0.0,0.0,0.0,0.0,0.0,0.0,0.0,0.0,0.0,0.0,0.0,0.0,0.0,0.0,0.0,0.0,0.0,0.0,0.0,0.0,0.0,0.0,0.0,0.0,0.0,0.0,0.0,0.0,0.0,0.0,0.0,0.0,0.0,0.0,0.0,0.0,0.0,0.0,0.0,0.0,0.0,0.0,0.0,0.0,0.0,0.0,0.0,0.0,-1.2305,-1.2305,-1.2305,-1.2305,-1.2305,-1.2305,0.0,0.0,0.0,0.0,0.0,0.0,0.0,0.0,0.0,0.0,0.0,0.0,0.0,0.0,0.0,0.0,0.0,0.0,0.0,0.0,0.0,0.0,0.0,0.0,0.0,0.0,0.0,0.0,0.0,0.0,0.0,0.0,0.0,0.0,0.0,0.0,0.0,0.0,0.0,0.0,0.0,0.0,0.0,0.0,0.0,0.0,0.0,0.0,0.0,0.0,0.0,0.0,0.0,0.0,0.0,0.0,0.0,0.0,0.0,0.0,0.0,0.0,0.0,0.0,0.0,0.0,0.0,0.0,0.0,0.0,0.0,0.0,0.0,0.0,0.0,0.0,0.0,0.0,0.0,0.0,0.0,0.0,0.0,0.0,0.0,0.0,0.0,0.0,0.0,0.0,0.0,0.0,0.0,0.0,0.0,0.0,0.0,0.0,0.0,0.0,0.0,0.0,0.0,0.0,0.0,0.0,0.0,0.0,-1.2305,-1.2305,-1.2305,-1.2231,-1.2305,-1.2305,0.0,0.0,0.0,0.0,0.0,0.0,0.0,0.0,0.0,0.0,0.0,0.0,0.0,0.0,0.0,0.0,0.0,0.0,0.0,0.0,0.0,0.0,0.0,0.0,0.0,0.0,0.0,0.0,0.0,0.0,0.0,0.0,0.0,0.0,0.0,0.0,0.0,0.0,0.0,0.0,0.0,0.0,0.0,0.0,0.0,0.0,0.0,0.0,0.0,0.0,0.0,0.0,0.0,0.0,0.0,0.0,0.0,0.0,0.0,0.0,0.0,0.0,0.0,0.0,0.0,0.0,0.0,0.0,0.0,0.0,0.0,0.0,0.0,0.0,0.0,0.0,0.0,0.0,0.0,0.0,0.0,0.0,0.0,0.0,0.0,0.0,0.0,0.0,0.0,0.0,0.0,0.0,0.0,0.0,0.0,0.0,0.0,0.0,0.0,0.0,0.0,0.0,0.0,0.0,0.0,0.0,0.0,0.0,0.0,-1.131,-1.131,-1.1316,-1.1391,-1.1929,-1.2305,0.0,0.0,0.0,0.0,0.0,0.0,0.0,0.0,0.0,0.0,0.0,0.0,0.0,0.0,0.0,0.0,0.0,0.0,0.0,0.0,0.0,0.0,0.0,0.0,0.0,0.0,0.0,0.0,0.0,0.0,0.0,0.0,0.0,0.0,0.0,0.0,0.0,0.0,0.0,0.0,0.0,0.0,0.0,0.0,0.0,0.0,0.0,0.0,0.0,0.0,0.0,0.0,0.0,0.0,0.0,0.0,0.0,0.0,0.0,0.0,0.0,0.0,0.0,0.0,0.0,0.0,0.0,0.0,0.0,0.0,0.0,0.0,0.0,0.0,0.0,0.0,0.0,0.0,0.0,0.0,0.0,0.0,0.0,0.0,0.0,0.0,0.0,0.0,0.0,0.0,0.0,0.0,0.0,0.0,0.0,0.0,0.0,0.0,0.0,0.0,0.0,0.0,0.0,0.0,0.0,0.0,0.0,0.0,0.0,-1.0783,0.0,-1.1316,-1.131,-1.1922,-1.2305,0.0,0.0,0.0,0.0,0.0,0.0,0.0,0.0,0.0,0.0,0.0,0.0,0.0,0.0,0.0,0.0,0.0,0.0,0.0,0.0,0.0,0.0,0.0,0.0,0.0,0.0,0.0,0.0,0.0,0.0,0.0,0.0,0.0,0.0,0.0,0.0,0.0,0.0,0.0,0.0,0.0,0.0,0.0,0.0,0.0,0.0,0.0,0.0,0.0,0.0,0.0,0.0,0.0,0.0,0.0,0.0,0.0,0.0,0.0,0.0,0.0,0.0,0.0,0.0,0.0,0.0,0.0,0.0,0.0,0.0,0.0,0.0,0.0,0.0,0.0,0.0,0.0,0.0,0.0,0.0,0.0,0.0,0.0,0.0,0.0,0.0,0.0,0.0,0.0,0.0,0.0,0.0,0.0,0.0,0.0,0.0,0.0,0.0,0.0,0.0,0.0,0.0,0.0,0.0,0.0,0.0,0.0,0.0,-0.976,-1.0726,-1.17,-1.2157,-1.2311,-1.2238,-1.2305,0.0,0.0,0.0,0.0,0.0,0.0,0.0,0.0,0.0,0.0,0.0,0.0,0.0,0.0,0.0,0.0,0.0,0.0,0.0,0.0,0.0,0.0,0.0,0.0,0.0,0.0,0.0,0.0,0.0,0.0,0.0,0.0,0.0,0.0,0.0,0.0,0.0,0.0,0.0,0.0,0.0,0.0,0.0,0.0,0.0,0.0,0.0,0.0,0.0,0.0,0.0,0.0,0.0,0.0,0.0,0.0,0.0,0.0,0.0,0.0,0.0,0.0,0.0,0.0,0.0,0.0,0.0,0.0,0.0,0.0,0.0,0.0,0.0,0.0,0.0,0.0,0.0,0.0,0.0,0.0,0.0,0.0,0.0,0.0,0.0,0.0,0.0,0.0,0.0,0.0,0.0,0.0,0.0,0.0,0.0,0.0,0.0,0.0,0.0,0.0,0.0,0.0,0.0,0.0,0.0,0.0,0.0,0.0,0.0,-0.917,-1.0509,-1.1334,-1.1517,-1.2032,-1.2305,0.0,0.0,0.0,0.0,0.0,0.0,0.0,0.0,0.0,0.0,0.0,0.0,0.0,0.0,0.0,0.0,0.0,0.0,0.0,0.0,0.0,0.0,0.0,0.0,0.0,0.0,0.0,0.0,0.0,0.0,0.0,0.0,0.0,0.0,0.0,0.0,0.0,0.0,0.0,0.0,0.0,0.0,0.0,0.0,0.0,0.0,0.0,0.0,0.0,0.0,0.0,0.0,0.0,0.0,0.0,0.0,0.0,0.0,0.0,0.0,0.0,0.0,0.0,0.0,0.0,0.0,0.0,0.0,0.0,0.0,0.0,0.0,0.0,0.0,0.0,0.0,0.0,0.0,0.0,0.0,0.0,0.0,0.0,0.0,0.0,0.0,0.0,0.0,0.0,0.0,0.0,0.0,0.0,0.0,0.0,0.0,0.0,0.0,0.0,0.0,0.0,0.0,0.0,0.0,0.0,0.0,0.0,0.0,0.0,-0.8598,-0.9675,-1.0395,-1.0556,-1.1411,-1.2052,-1.2284,0.0,0.0,0.0,0.0,0.0,0.0,0.0,0.0,0.0,0.0,0.0,0.0,0.0,0.0,0.0,0.0,0.0,0.0,0.0,0.0,0.0,0.0,0.0,0.0,0.0,0.0,0.0,0.0,0.0,0.0,0.0,0.0,0.0,0.0,0.0,0.0,0.0,0.0,0.0,0.0,0.0,0.0,0.0,0.0,0.0,0.0,0.0,0.0,0.0,0.0,0.0,0.0,0.0,0.0,0.0,0.0,0.0,0.0,0.0,0.0,0.0,0.0,0.0,0.0,0.0,0.0,0.0,0.0,0.0,0.0,0.0,0.0,0.0,0.0,0.0,0.0,0.0,0.0,0.0,0.0,0.0,0.0,0.0,0.0,0.0,0.0,0.0,0.0,0.0,0.0,0.0,0.0,0.0,0.0,0.0,0.0,0.0,0.0,0.0,0.0,0.0,0.0,0.0,0.0,0.0,0.0,0.0,0.0,-0.8798,-0.9169,-0.9498,-0.966,-1.0668,-1.1597,0.0,0.0,0.0,0.0,0.0,0.0,0.0,0.0,0.0,0.0,0.0,0.0,0.0,0.0,0.0,0.0,0.0,0.0,0.0,0.0,0.0,0.0,0.0,0.0,0.0,0.0,0.0,0.0,0.0,0.0,0.0,0.0,0.0,0.0,0.0,0.0,0.0,0.0,0.0,0.0,0.0,0.0,0.0,0.0,0.0,0.0,0.0,0.0,0.0,0.0,0.0,0.0,0.0,0.0,0.0,0.0,0.0,0.0,0.0,0.0,0.0,0.0,0.0,0.0,0.0,0.0,0.0,0.0,0.0,0.0,0.0,0.0,0.0,0.0,0.0,0.0,0.0,0.0,0.0,0.0,0.0,0.0,0.0,0.0,0.0,0.0,0.0,0.0,0.0,0.0,0.0,0.0,0.0,0.0,0.0,0.0,0.0,0.0,0.0,0.0,0.0,0.0,0.0,0.0,0.0,0.0,0.0,0.0,0.0,-0.757,-0.7599,-0.8792,-1.1165,-1.1404,-1.1933,0.0,0.0,0.0,0.0,0.0,0.0,0.0,0.0,0.0,0.0,0.0,0.0,0.0,0.0,0.0,0.0,0.0,0.0,0.0,0.0,0.0,0.0,0.0,0.0,0.0,0.0,0.0,0.0,0.0,0.0,0.0,0.0,0.0,0.0,0.0,0.0,0.0,0.0,0.0,0.0,0.0,0.0,0.0,0.0,0.0,0.0,0.0,0.0,0.0,0.0,0.0,0.0,0.0,0.0,0.0,0.0,0.0,0.0,0.0,0.0,0.0,0.0,0.0,0.0,0.0,0.0,0.0,0.0,0.0,0.0,0.0,0.0,0.0,0.0,0.0,0.0,0.0,0.0,0.0,0.0,0.0,0.0,0.0,0.0,0.0,0.0,0.0,0.0,0.0,0.0,0.0,0.0,0.0,0.0,0.0,0.0,0.0,0.0,0.0,0.0,0.0,0.0,0.0,0.0,0.0,0.0,0.0,0.0,-0.7139,-0.7139,-0.7058,-0.8127,-1.0588,-1.0864,-1.1179,0.0,0.0,0.0,0.0,0.0,0.0,0.0,0.0,0.0,0.0,0.0,0.0,0.0,0.0,0.0,0.0,0.0,0.0,0.0,0.0,0.0,0.0,0.0,0.0,0.0,0.0,0.0,0.0,0.0,0.0,0.0,0.0,0.0,0.0,0.0,0.0,0.0,0.0,0.0,0.0,0.0,0.0,0.0,0.0,0.0,0.0,0.0,0.0,0.0,0.0,0.0,0.0,0.0,0.0,0.0,0.0,0.0,0.0,0.0,0.0,0.0,0.0,0.0,0.0,0.0,0.0,0.0,0.0,0.0,0.0,0.0,0.0,0.0,0.0,0.0,0.0,0.0,0.0,0.0,0.0,0.0,0.0,0.0,0.0,0.0,0.0,0.0,0.0,0.0,0.0,0.0,0.0,0.0,0.0,0.0,0.0,0.0,0.0,0.0,0.0,0.0,0.0,0.0,0.0,0.0,0.0,0.0,0.0,-0.7139,-0.7139,-0.7139,-0.7669,-0.8886,-0.9909,-1.0118,0.0,0.0,0.0,0.0,0.0,0.0,0.0,0.0,0.0,0.0,0.0,0.0,0.0,0.0,0.0,0.0,0.0,0.0,0.0,0.0,0.0,0.0,0.0,0.0,0.0,0.0,0.0,0.0,0.0,0.0,0.0,0.0,0.0,0.0,0.0,0.0,0.0,0.0,0.0,0.0,0.0,0.0,0.0,0.0,0.0,0.0,0.0,0.0,0.0,0.0,0.0,0.0,0.0,0.0,0.0,0.0,0.0,0.0,0.0,0.0,0.0,0.0,0.0,0.0,0.0,0.0,0.0,0.0,0.0,0.0,0.0,0.0,0.0,0.0,0.0,0.0,0.0,0.0,0.0,0.0,0.0,0.0,0.0,0.0,0.0,0.0,0.0,0.0,0.0,0.0,0.0,0.0,0.0,0.0,0.0,0.0,0.0,0.0,0.0,0.0,0.0,0.0,0.0,0.0,0.0,0.0,0.0,0.0,-0.7139,-0.7139,-0.7139,-0.7665,-0.889,-0.9966,-1.0792,0.0,0.0,0.0,0.0,0.0,0.0,0.0,0.0,0.0,0.0,0.0,0.0,0.0,0.0,0.0,0.0,0.0,0.0,0.0,0.0,0.0,0.0,0.0,0.0,0.0,0.0,0.0,0.0,0.0,0.0,0.0,0.0,0.0,0.0,0.0,0.0,0.0,0.0,0.0,0.0,0.0,0.0,0.0,0.0,0.0,0.0,0.0,0.0,-1.2979,0.0,0.0,0.0,0.0,0.0,0.0,0.0,0.0,0.0,0.0,0.0,0.0,0.0,0.0,0.0,0.0,0.0,0.0,0.0,0.0,0.0,0.0,0.0,0.0,0.0,0.0,0.0,0.0,0.0,0.0,0.0,0.0,0.0,0.0,0.0,0.0,0.0,0.0,0.0,0.0,0.0,0.0,0.0,0.0,0.0,0.0,0.0,0.0,0.0,0.0,0.0,0.0,0.0,0.0,0.0,0.0,0.0,0.0,0.0,-0.7139,-0.7139,-0.7139,-0.7401,-0.8105,-0.9144,-1.0279,0.0,0.0,0.0,0.0,0.0,0.0,0.0,0.0,0.0,0.0,0.0,0.0,0.0,0.0,0.0,0.0,0.0,0.0,0.0,0.0,0.0,0.0,0.0,0.0,0.0,0.0,0.0,0.0,0.0,0.0,0.0,0.0,0.0,0.0,0.0,0.0,0.0,0.0,0.0,0.0,0.0,0.0,0.0,0.0,0.0,0.0,0.0,0.0,0.0,0.0,0.0,0.0,0.0,0.0,0.0,0.0,0.0,0.0,0.0,0.0,0.0,0.0,0.0,0.0,0.0,0.0,0.0,0.0,0.0,0.0,0.0,0.0,0.0,0.0,0.0,0.0,0.0,0.0,0.0,0.0,0.0,0.0,0.0,0.0,0.0,0.0,0.0,0.0,0.0,0.0,0.0,0.0,0.0,0.0,0.0,0.0,0.0,0.0,0.0,0.0,0.0,0.0,0.0,0.0,0.0,0.0,0.0,-0.7139,-0.7139,-0.7139,-0.7139,-0.7139,-0.7139,-0.8277,-0.9405,-1.0524,0.0,0.0,0.0,0.0,0.0,0.0,0.0,0.0,0.0,0.0,0.0,0.0,0.0,0.0,0.0,0.0,0.0,0.0,0.0,0.0,0.0,0.0,0.0,0.0,0.0,0.0,0.0,0.0,0.0,0.0,0.0,0.0,0.0,0.0,0.0,0.0,0.0,0.0,-1.2365,-1.2625,0.0,0.0,0.0,0.0,0.0,0.0,0.0,0.0,-1.2184,0.0,0.0,0.0,0.0,0.0,0.0,0.0,0.0,0.0,0.0,0.0,0.0,0.0,0.0,0.0,0.0,0.0,0.0,0.0,0.0,0.0,0.0,0.0,0.0,0.0,0.0,0.0,0.0,0.0,0.0,0.0,0.0,0.0,0.0,0.0,0.0,0.0,0.0,0.0,0.0,0.0,0.0,0.0,0.0,0.0,0.0,0.0,0.0,0.0,0.0,0.0,0.0,0.0,0.0,0.0,0.0,-0.7139,-0.7139,-0.7139,-0.7139,-0.7139,-0.7139,-0.7139,-0.8277,-0.9405,-1.0616,0.0,0.0,0.0,0.0,0.0,0.0,0.0,0.0,0.0,0.0,0.0,0.0,0.0,0.0,0.0,0.0,0.0,0.0,0.0,0.0,0.0,0.0,0.0,0.0,0.0,0.0,0.0,0.0,0.0,0.0,0.0,0.0,0.0,0.0,0.0,0.0,0.0,0.0,0.0,-1.2939,-1.3133,0.0,0.0,0.0,0.0,0.0,0.0,0.0,0.0,-1.0675,0.0,0.0,0.0,0.0,0.0,0.0,0.0,0.0,0.0,0.0,0.0,0.0,0.0,0.0,0.0,0.0,0.0,0.0,0.0,0.0,0.0,0.0,0.0,0.0,0.0,0.0,0.0,0.0,0.0,0.0,0.0,0.0,0.0,0.0,0.0,0.0,0.0,0.0,0.0,0.0,0.0,0.0,0.0,0.0,0.0,0.0,0.0,0.0,0.0,0.0,0.0,0.0,0.0,0.0,0.0,-0.7139,-0.7139,-0.7139,-0.7139,-0.7139,-0.7139,-0.7139,-0.8277,-0.9152,0.0,0.0,0.0,0.0,0.0,0.0,0.0,0.0,0.0,0.0,0.0,0.0,0.0,0.0,0.0,0.0,0.0,0.0,0.0,0.0,0.0,0.0,0.0,0.0,0.0,0.0,0.0,0.0,0.0,0.0,0.0,0.0,0.0,0.0,0.0,0.0,0.0,0.0,0.0,0.0,-1.2338,-1.2351,-1.17,0.0,0.0,0.0,0.0,0.0,0.0,-1.0178,-1.0005,0.0,0.0,0.0,0.0,0.0,0.0,0.0,0.0,0.0,0.0,0.0,0.0,0.0,0.0,0.0,0.0,0.0,0.0,0.0,0.0,0.0,0.0,0.0,0.0,0.0,0.0,0.0,0.0,0.0,0.0,0.0,0.0,0.0,0.0,0.0,0.0,0.0,0.0,0.0,0.0,0.0,0.0,0.0,0.0,0.0,0.0,0.0,0.0,0.0,0.0,0.0,0.0,0.0,0.0,0.0,-0.7139,-0.7139,-0.7139,-0.7139,-0.7139,-0.7139,-0.7139,-0.8277,-0.889,0.0,0.0,0.0,0.0,0.0,0.0,0.0,0.0,0.0,0.0,0.0,0.0,0.0,0.0,0.0,0.0,0.0,0.0,0.0,0.0,0.0,0.0,0.0,0.0,0.0,0.0,0.0,0.0,0.0,0.0,0.0,0.0,0.0,0.0,0.0,0.0,0.0,0.0,0.0,0.0,0.0,-1.1355,-1.0684,-1.0414,0.0,0.0,0.0,0.0,-0.8623,-0.9318,0.0,0.0,0.0,0.0,0.0,0.0,0.0,0.0,0.0,0.0,0.0,0.0,0.0,0.0,0.0,0.0,0.0,0.0,0.0,0.0,0.0,0.0,0.0,0.0,0.0,0.0,0.0,0.0,0.0,0.0,0.0,0.0,0.0,0.0,0.0,0.0,0.0,0.0,0.0,0.0,0.0,0.0,0.0,0.0,0.0,0.0,0.0,0.0,0.0,0.0,0.0,0.0,0.0,0.0,0.0,0.0,-0.7139,-0.7139,-0.7139,-0.7139,-0.7139,-0.7139,-0.7139,-0.8277,-0.889,0.0,0.0,0.0,0.0,0.0,0.0,0.0,0.0,0.0,0.0,0.0,0.0,0.0,0.0,0.0,0.0,0.0,0.0,0.0,0.0,0.0,0.0,0.0,0.0,0.0,0.0,0.0,0.0,0.0,0.0,0.0,0.0,0.0,0.0,0.0,0.0,0.0,0.0,0.0,0.0,0.0,-1.1086,-1.194,-1.0336,-0.9065,0.0,0.0,-0.7489,-0.7316,-0.7401,0.0,0.0,0.0,0.0,0.0,0.0,0.0,0.0,0.0,0.0,0.0,0.0,0.0,0.0,0.0,0.0,0.0,0.0,0.0,0.0,0.0,0.0,0.0,0.0,0.0,0.0,0.0,0.0,0.0,0.0,0.0,0.0,0.0,0.0,0.0,0.0,0.0,0.0,0.0,0.0,0.0,0.0,0.0,0.0,0.0,0.0,0.0,0.0,0.0,0.0,0.0,0.0,0.0,0.0,0.0,-0.7139,-0.7139,-0.7139,-0.7139,-0.7139,-0.7139,-0.7139,-0.7139,-0.8877,-0.9579,0.0,0.0,0.0,0.0,0.0,0.0,0.0,0.0,0.0,0.0,0.0,0.0,0.0,0.0,0.0,0.0,0.0,0.0,0.0,0.0,0.0,0.0,0.0,0.0,0.0,0.0,0.0,0.0,0.0,0.0,0.0,0.0,0.0,0.0,0.0,0.0,0.0,0.0,0.0,0.0,0.0,0.0,-1.0438,-0.8969,0.0,0.0,0.0,-0.7139,-0.7139,0.0,0.0,0.0,0.0,0.0,0.0,0.0,0.0,0.0,0.0,0.0,0.0,0.0,0.0,0.0,0.0,0.0,0.0,0.0,0.0,0.0,0.0,0.0,0.0,0.0,0.0,0.0,0.0,0.0,0.0,0.0,0.0,0.0,0.0,0.0,0.0,0.0,0.0,0.0,0.0,0.0,0.0,0.0,0.0,0.0,0.0,0.0,0.0,0.0,0.0,0.0,0.0,0.0,0.0,0.0,0.0,0.0,-0.7139,-0.7139,-0.7139,-0.7139,-0.7139,-0.7139,-0.7139,-0.879,0.0,0.0,0.0,0.0,0.0,0.0,0.0,0.0,0.0,0.0,0.0,0.0,0.0,0.0,0.0,0.0,0.0,0.0,0.0,0.0,0.0,0.0,0.0,0.0,0.0,0.0,0.0,-1.4088,0.0,0.0,0.0,0.0,0.0,0.0,0.0,0.0,0.0,0.0,0.0,0.0,0.0,0.0,-0.9488,-0.8973,-0.7841,-0.7139,0.0,0.0,-0.7139,-0.7139,-0.7139,-0.7139,0.0,0.0,0.0,0.0,0.0,0.0,0.0,0.0,0.0,0.0,0.0,0.0,0.0,0.0,0.0,0.0,0.0,0.0,0.0,0.0,0.0,0.0,0.0,0.0,0.0,0.0,0.0,0.0,0.0,0.0,0.0,0.0,0.0,0.0,0.0,0.0,0.0,0.0,0.0,0.0,0.0,0.0,0.0,0.0,0.0,0.0,0.0,0.0,0.0,0.0,0.0,0.0,0.0,0.0,0.0,-0.7139,-0.7139,-0.7139,-0.7139,-0.7139,-0.7139,-0.7139,-0.7228,-0.7316,0.0,0.0,0.0,0.0,0.0,0.0,0.0,0.0,0.0,0.0,0.0,0.0,0.0,0.0,0.0,0.0,0.0,0.0,0.0,0.0,0.0,0.0,0.0,0.0,0.0,0.0,0.0,0.0,0.0,0.0,0.0,0.0,0.0,0.0,0.0,0.0,0.0,0.0,0.0,0.0,0.0,-0.7749,-0.8715,-0.7841,-0.7139,0.0,0.0,-0.7139,-0.7139,-0.7139,-0.7139,-0.7139,0.0,0.0,0.0,0.0,0.0,0.0,0.0,0.0,0.0,0.0,0.0,0.0,0.0,0.0,0.0,0.0,0.0,0.0,0.0,0.0,0.0,0.0,0.0,0.0,0.0,0.0,0.0,0.0,0.0,0.0,0.0,0.0,0.0,0.0,0.0,0.0,0.0,0.0,0.0,0.0,0.0,0.0,0.0,0.0,0.0,0.0,0.0,0.0,0.0,0.0,0.0,0.0,0.0,-0.7139,-0.7139,-0.7139,-0.7139,-0.7139,-0.7139,-0.7139,-0.7139,-0.7841,-0.8189,0.0,0.0,0.0,0.0,0.0,0.0,0.0,0.0,0.0,0.0,0.0,0.0,0.0,0.0,0.0,0.0,0.0,0.0,0.0,0.0,0.0,0.0,0.0,0.0,0.0,0.0,0.0,0.0,-1.4088,-1.3822,-1.3118,0.0,0.0,0.0,0.0,0.0,0.0,0.0,0.0,0.0,0.0,-0.8368,-0.8803,-0.7841,0.0,0.0,-0.7139,-0.7139,-0.7139,-0.7139,-0.7139,-0.7139,-0.7139,0.0,0.0,0.0,0.0,0.0,0.0,0.0,0.0,0.0,0.0,0.0,0.0,0.0,0.0,0.0,0.0,0.0,0.0,0.0,0.0,0.0,0.0,0.0,0.0,0.0,0.0,0.0,0.0,0.0,0.0,0.0,0.0,0.0,0.0,0.0,0.0,0.0,0.0,0.0,0.0,0.0,0.0,0.0,0.0,0.0,0.0,0.0,0.0,0.0,0.0,0.0,0.0,-0.7139,-0.7139,-0.7139,-0.7139,-0.7139,-0.7139,-0.7139,-0.7139,-0.7929,-0.8364,0.0,0.0,0.0,0.0,0.0,0.0,0.0,0.0,0.0,0.0,0.0,0.0,0.0,0.0,0.0,0.0,0.0,0.0,0.0,0.0,0.0,0.0,0.0,0.0,0.0,0.0,0.0,0.0,-1.3215,-1.2778,-1.1901,0.0,0.0,0.0,0.0,0.0,0.0,0.0,0.0,0.0,0.0,-0.8364,-0.8364,-0.7665,-0.7139,-0.7139,-0.7139,-0.7139,-0.7139,-0.7139,-0.7139,-0.7139,0.0,0.0,0.0,0.0,0.0,0.0,0.0,0.0,0.0,0.0,0.0,0.0,0.0,0.0,0.0,0.0,0.0,0.0,0.0,0.0,0.0,0.0,0.0,0.0,0.0,0.0,0.0,0.0,0.0,0.0,0.0,0.0,0.0,0.0,0.0,0.0,0.0,0.0,0.0,0.0,0.0,0.0,0.0,0.0,0.0,0.0,0.0,0.0,0.0,0.0,0.0,0.0,0.0,-0.7139,-0.7139,-0.7139,-0.7139,-0.7139,-0.7139,-0.7139,-0.7139,-0.7139,-0.7139,-0.7136,0.0,0.0,0.0,0.0,0.0,0.0,0.0,0.0,0.0,0.0,0.0,0.0,0.0,0.0,0.0,0.0,0.0,0.0,0.0,0.0,0.0,0.0,0.0,0.0,0.0,0.0,-1.2413,-1.1386,-1.0697,0.0,0.0,0.0,0.0,0.0,0.0,0.0,0.0,0.0,0.0,-0.7143,-0.7143,-0.7139,-0.7139,-0.7139,-0.7139,-0.7139,-0.7139,-0.7139,-0.7139,-0.7139,0.0,0.0,0.0,0.0,0.0,0.0,0.0,0.0,0.0,0.0,0.0,0.0,0.0,0.0,0.0,0.0,0.0,0.0,0.0,0.0,0.0,0.0,0.0,0.0,0.0,0.0,0.0,-0.7139,-0.7139,0.0,0.0,0.0,0.0,0.0,0.0,0.0,0.0,0.0,0.0,0.0,-0.7139,-0.7139,0.0,0.0,0.0,0.0,0.0,0.0,0.0,0.0,0.0,0.0,0.0,0.0,-0.7139,-0.7139,-0.7139,-0.7139,-0.7139,-0.7139,-0.7139,-0.7139,-0.7139,-0.7139,-0.7139,0.0,0.0,0.0,0.0,0.0,0.0,0.0,0.0,0.0,0.0,0.0,0.0,0.0,0.0,0.0,0.0,0.0,0.0,0.0,0.0,0.0,0.0,0.0,0.0,0.0,-1.2322,0.0,0.0,0.0,0.0,0.0,0.0,0.0,0.0,0.0,0.0,0.0,-0.7139,-0.7139,-0.7139,-0.7139,-0.7139,-0.7139,-0.7139,0.0,0.0,0.0,0.0,0.0,0.0,0.0,0.0,0.0,0.0,0.0,0.0,0.0,0.0,-0.6615,-0.5053,-0.2156,-0.0,-0.0,0.0,0.0,0.0,0.0,0.0,0.0,0.0,0.0,0.0,0.0,0.0,0.0,0.0,0.0,0.0,0.0,-0.7139,0.0,0.0,0.0,0.0,0.0,0.0,0.0,0.0,-0.7139,-0.7139,-0.7139,-0.7139,-0.7139,0.0,-0.7139,-0.7139,0.0,0.0,0.0,0.0,0.0,0.0,0.0,0.0,-0.7139,-0.7139,-0.7139,-0.7139,-0.7139,-0.7139,-0.7139,-0.7139,-0.7139,-0.7122,-0.7088,-0.8552,-1.0062,0.0,0.0,0.0,0.0,0.0,0.0,0.0,0.0,0.0,0.0,0.0,0.0,0.0,0.0,0.0,0.0,0.0,0.0,0.0,0.0,0.0,0.0,0.0,-1.095,0.0,0.0,0.0,0.0,0.0,0.0,0.0,0.0,0.0,-0.7139,-0.7139,-0.7139,-0.7139,-0.7139,-0.7139,-0.7139,0.0,0.0,0.0,0.0,0.0,0.0,0.0,-0.7156,-0.721,-0.7221,-0.7238,-0.7292,-0.6491,-0.589,-0.5887,0.0,0.0,-0.4606,-0.211,-0.0,-0.0,-0.0,-0.0,-0.0,-0.0,-0.0,0.0,0.0,0.0,0.0,0.0,0.0,0.0,0.0,-0.7139,-0.7139,0.0,-0.7139,0.0,0.0,0.0,0.0,0.0,0.0,0.0,0.0,-0.7136,-0.7139,-0.7139,-0.7136,-0.7139,-0.7139,-0.7139,-0.7139,-0.7139,-0.7139,0.0,0.0,0.0,0.0,0.0,0.0,-0.7139,-0.7139,-0.7139,-0.7139,-0.7139,-0.7139,-0.7139,-0.7139,-0.7139,-0.7095,-0.709,-0.7267,-0.7246,-0.7264,-0.9327,0.0,0.0,0.0,0.0,0.0,0.0,0.0,0.0,0.0,0.0,0.0,0.0,0.0,0.0,0.0,0.0,0.0,0.0,0.0,0.0,-1.0183,0.0,0.0,0.0,0.0,0.0,0.0,0.0,0.0,0.0,0.0,-0.7139,-0.7139,-0.7139,-0.7139,0.0,0.0,0.0,0.0,-0.7139,-0.7139,-0.7146,-0.7149,-0.7149,-0.7156,-0.7207,-0.7356,0.0,0.0,-0.7573,-0.5504,-0.3794,-0.3515,-0.1714,-0.0,-0.0,-0.0,-0.0,-0.0,-0.0,-0.0,-0.0,-0.0,-0.0,-0.7841,0.0,0.0,0.0,0.0,-0.7139,-0.7139,-0.7139,-0.7139,-0.7139,-0.7139,-0.7139,0.0,0.0,0.0,0.0,0.0,0.0,-0.7139,-0.7139,-0.7109,-0.7109,-0.7139,-0.7105,-0.7109,-0.7139,-0.7139,-0.7139,-0.7139,-0.7139,-0.7139,-0.7139,0.0,0.0,0.0,0.0,-0.7139,-0.7139,-0.7139,-0.7139,-0.7139,-0.7139,-0.7139,-0.7139,-0.7139,-0.7126,-0.7099,-0.8732,-0.9598,-0.9574,-0.8674,0.0,0.0,0.0,0.0,0.0,0.0,0.0,0.0,0.0,0.0,0.0,0.0,0.0,0.0,0.0,0.0,0.0,0.0,0.0,-0.9749,-0.8536,-0.7841,0.0,0.0,0.0,0.0,0.0,0.0,0.0,0.0,0.0,-0.7139,-0.7139,-0.7139,0.0,0.0,-0.7139,-0.7139,-0.7139,-0.7139,-0.7139,0.0,0.0,0.0,-0.7397,-0.7485,-0.7439,-0.7463,-0.7496,-0.7263,-0.6599,-0.4986,-0.1744,-0.0486,-0.0,-0.0,-0.0,-0.0,-0.0,-0.0,-0.0,-0.0,-0.0,-0.0,-0.9144,-0.844,-0.7489,-0.7404,-0.7841,-0.7841,-0.7552,-0.7078,-0.7078,-0.7621,-0.8532,-0.844,-0.8532,-0.8444,-0.8013,0.0,0.0,0.0,-0.7139,-0.7139,-0.7112,-0.8113,-0.9716,-0.8915,-0.8396,-0.8213,-0.8023,-0.7968,-0.8027,-0.7497,-0.7322,-0.7319,0.0,0.0,-0.7108,-0.7095,-0.7138,-0.7322,-0.7322,-0.7322,-0.7322,-0.7322,-0.7322,-0.7322,-0.7322,-0.7222,-0.7105,-0.8403,-1.0107,-1.1893,-1.0637,-1.0226,0.0,0.0,0.0,0.0,0.0,0.0,0.0,0.0,0.0,0.0,0.0,-1.2279,-1.1406,0.0,0.0,0.0,-0.8392,-0.8105,-0.8803,-0.7841,0.0,0.0,0.0,0.0,0.0,0.0,0.0,-0.7139,-0.7139,-0.7139,-0.7139,-0.7139,-0.7139,-0.7139,-0.7139,-0.716,-0.7224,0.0,-0.7255,-0.7312,-0.74,-0.7461,-0.7465,-0.7539,-0.753,-0.7502,-0.669,-0.6141,-0.5955,-0.666,-0.6396,-0.3764,-0.1489,-0.0,-0.0,-0.0,-0.0,-0.0,-0.0,-0.0,-0.0,-0.0,-0.0,-1.0783,-1.0524,-0.836,-0.8013,-0.9065,-0.9061,-0.8388,-0.7429,-0.7429,-0.869,-1.0804,-1.089,-1.0799,-1.0524,-0.9492,0.0,0.0,-0.7944,-0.7326,-0.7146,-0.7153,-0.9376,-1.3395,-1.13,-1.0238,-0.9953,-0.9285,-0.9171,-0.9418,-0.8329,-0.7879,-0.8059,-0.7834,-0.7549,-0.7131,-0.7121,-0.7308,-0.7597,-0.7597,-0.7597,-0.7597,-0.7691,-0.7691,-0.7597,-0.7691,-0.7567,-0.714,-0.7176,-0.9112,-1.3273,-1.4,-1.2641,-0.9306,0.0,0.0,0.0,0.0,0.0,0.0,0.0,0.0,0.0,0.0,0.0,0.0,0.0,0.0,0.0,-0.8074,0.0,-0.8803,-0.7753,0.0,0.0,0.0,-0.7139,-0.7139,-0.7139,-0.7139,-0.7139,0.0,0.0,-0.716,0.0,-0.7177,-0.7177,-0.7078,-0.7217,-0.737,-0.739,-0.7441,-0.756,-0.7607,-0.7617,-0.7617,-0.7645,-0.7518,-0.7149,-0.5367,-0.3707,-0.371,-0.5438,-0.7092,-0.6681,-0.3232,-0.0,-0.0,-0.0,-0.0,-0.0,-0.0,-0.0,-0.0,-0.0,-0.0,-1.1895,-1.1809,-1.0346,-0.9918,-1.0183,-1.0183,-1.0072,-0.9784,-0.9784,-1.1079,-1.3256,-1.3256,-1.2296,-1.0611,-1.0351,-1.0183,-1.0188,-1.0167,-0.903,-0.7187,-0.7072,-0.7706,-0.8734,-0.8398,-0.883,-0.9744,-0.8583,-0.8478,-0.9427,-0.9245,-0.9987,-1.1752,-1.1023,-0.9601,-0.7529,-0.748,-0.76,-0.7889,-0.7889,-0.7792,-0.76,-0.8516,-0.8606,-0.7597,-0.8516,-0.8505,-0.7573,-0.7506,-0.8125,-0.9456,-1.2843,-1.3586,-1.0864,-0.8375,0.0,0.0,0.0,0.0,0.0,0.0,0.0,0.0,0.0,-0.9565,-0.7281,0.0,-0.7109,0.0,-0.7394,-0.7489,-0.7492,-0.7316,0.0,0.0,-0.7139,-0.7139,-0.7139,-0.7139,-0.7139,-0.7139,-0.7241,-0.7316,-0.7316,-0.7417,-0.7492,-0.7489,-0.739,-0.7373,-0.7522,-0.7546,-0.7556,-0.7607,-0.7695,-0.7756,-0.777,-0.7788,-0.7273,-0.5187,-0.2709,-0.1008,-0.0,-0.1412,-0.1918,-0.1918,-0.101,-0.0,-0.0,-0.0,-0.0,-0.0,-0.0,-0.0,-0.0,-0.0,-0.0,-1.348,-1.348,-1.2861,-1.2592,-1.2493,-1.1732,-1.1649,-1.2174,-1.2192,-1.3009,-1.4476,-1.4502,-1.3768,-1.251,-1.1976,-1.18,-1.1722,-1.1394,-1.0495,-0.9075,-0.9042,-0.9688,-1.0925,-0.9985,-0.9951,-1.0712,-1.0318,-1.0632,-1.1368,-1.0905,-1.1288,-1.2527,-1.1512,-1.0477,-0.9548,-0.8324,-0.7842,-0.7997,-0.8568,-0.904,-0.9502,-1.0161,-0.9971,-0.8745,-0.9307,-0.9619,-0.9497,-0.8424,-0.7868,-0.8103,-1.1573,-1.3489,-1.3072,-1.1532,-0.9592,0.0,0.0,0.0,0.0,0.0,0.0,0.0,0.0,0.0,0.0,0.0,-0.7316,-0.7841,-0.7401,-0.7312,-0.7841,-0.7404,-0.7139,-0.7139,-0.7204,-0.7244,-0.7241,-0.7305,-0.7346,-0.7343,-0.7421,-0.7475,-0.7475,-0.7546,-0.7624,-0.7685,-0.7621,-0.7597,-0.7672,-0.7695,-0.7716,-0.7787,-0.7862,-0.7916,-0.7926,-0.7918,-0.7478,-0.5851,-0.2521,-0.0,-0.0,-0.0,-0.0,-0.0,-0.0,-0.0,-0.0,-0.0,-0.0,-0.0,-0.0,-0.0,-0.0,-0.0,-0.0,-1.506,-1.506,-1.506,-1.506,-1.4834,-1.333,-1.3218,-1.4117,-1.4082,-1.4482,-1.5088,-1.5048,-1.506,-1.4963,-1.3857,-1.3399,-1.3399,-1.2409,-1.1957,-1.1957,-1.1989,-1.3407,-1.5688,-1.3451,-1.2428,-1.2438,-1.2952,-1.346,-1.3872,-1.2721,-1.2237,-1.2334,-1.1165,-1.1007,-1.1752,-0.9616,-0.8329,-0.8038,-0.9316,-1.0489,-1.1361,-1.1556,-1.1068,-0.9805,-1.0096,-1.0645,-1.126,-0.9569,-0.835,-0.8086,-1.0196,-1.2393,-1.444,-1.493,-1.3176,0.0,-0.827,0.0,0.0,0.0,0.0,0.0,0.0,0.0,0.0,-0.7173,-0.7642,-0.8609,-0.7816,-0.7642,-0.8613,-0.7816,-0.7197,-0.7204,-0.7319,-0.74,-0.7404,-0.7519,-0.7597,-0.7597,-0.7617,-0.7628,-0.7628,-0.7641,-0.7706,-0.7818,-0.7834,-0.7831,-0.7838,-0.7841,-0.7882,-0.8021,-0.8038,-0.8028,-0.7945,-0.7666,-0.7275,-0.6882,-0.323,-0.0,-0.0,-0.0,-0.0,-0.0,-0.0,-0.0,-0.0,-0.0,-0.0,-0.0,-0.0,-0.0,-0.0,-0.0,-0.0,-1.506,-1.506,-1.506,-1.506,-1.495,-1.4652,-1.4313,-1.4097,-1.4053,-1.4672,-1.5596,-1.5335,-1.5066,-1.4963,-1.4777,-1.4687,-1.4701,-1.4643,-1.4542,-1.4345,-1.4771,-1.5253,-1.5763,-1.5317,-1.5077,-1.4914,-1.3108,-1.2769,-1.3878,-1.3584,-1.4076,-1.5051,-1.3782,-1.2721,-1.1868,0.0,0.0,0.0,-0.9312,-0.9604,-0.8825,-0.9805,-0.9706,-0.8531,-1.0386,0.0,-0.8954,-1.0306,-1.0173,-0.8181,-0.843,0.0,0.0,0.0,0.0,0.0,0.0,0.0,0.0,0.0,0.0,0.0,-1.0643,-0.9929,-0.7399,-0.7316,-0.7605,-0.7791,-0.7605,-0.7605,-0.7791,-0.7695,-0.7512,-0.7516,-0.7539,-0.756,-0.756,-0.7584,-0.7597,-0.76,-0.7699,-0.777,-0.7777,-0.7875,-0.7957,-0.798,-0.7997,-0.7997,-0.7991,-0.7987,-0.8007,-0.8035,-0.8038,-0.8041,-0.8045,-0.6334,-0.5231,-0.4323,-0.2216,-0.0,-0.0,-0.0,-0.0,-0.0,-0.0,-0.0,-0.0,-0.0,-0.0,-0.0,-0.0,-0.0,-0.0,-0.0,-0.0,-1.5391,0.0,-1.5391,-1.5391,0.0,-1.5398,-1.5186,-1.4956,-1.4624,-1.5048,-1.58,-1.5602,-1.5497,-1.5398,-1.5391,-1.5391,-1.5398,-1.5545,-1.5504,-1.5411,-1.5657,-1.5858,-1.5817,-1.5817,-1.585,-1.5711,-1.4424,-1.4178,-1.4848,-1.4854,-1.5146,-1.5737,-1.4561,-1.3273,-1.1971,-1.192,-1.064,-0.8055,-0.928,-0.9998,-0.9998,-1.0583,-1.0288,-0.9118,0.0,0.0,0.0,0.0,0.0,0.0,0.0,0.0,0.0,0.0,0.0,-1.555,-1.0872,-0.8586,-0.9795,-0.9744,-0.9714,-1.0023,-0.9748,-0.9013,-0.7614,-0.7695,-0.7698,-0.76,-0.7597,-0.7597,-0.7597,-0.7597,-0.7597,-0.76,-0.7662,-0.7706,-0.7712,-0.7773,-0.7818,-0.7821,-0.7875,-0.7923,-0.7926,-0.7984,-0.8035,-0.8038,-0.8038,-0.8038,-0.8038,-0.8038,-0.8038,-0.8038,-0.8038,-0.8041,-0.7955,-0.7048,-0.4746,-0.2641,-0.0919,-0.0,-0.0,-0.0,-0.0,-0.0,-0.0,-0.0,-0.0,-0.0,-0.0,-0.0,-0.0,-0.0,-0.0,-0.0,-0.0,-1.5825,-1.5825,-1.5825,-1.5825,-1.5825,-1.5825,-1.5825,-1.5812,0.0,0.0,0.0,-1.5825,-1.5825,-1.5825,-1.5825,-1.5825,-1.5825,-1.5825,-1.5825,-1.5825,-1.5825,-1.5825,-1.5825,-1.5825,-1.5825,-1.5825,-1.5825,-1.5825,-1.5825,-1.5825,-1.5825,-1.573,-1.4561,-1.325,-1.2026,-1.1905,-1.0821,-0.8792,-0.9555,-1.0386,-1.117,-1.1165,-1.0676,-0.9706,-0.9903,-1.0345,-1.1151,-0.9624,-0.8901,-0.9271,-0.8456,-0.8017,-0.8065,-0.9335,-1.1385,-1.3993,-1.0413,-0.897,-1.1035,-0.9236,-0.8432,-0.9608,-0.8627,-0.8038,-0.7988,-0.7974,-0.7875,-0.7678,-0.7678,-0.7678,-0.7678,-0.7678,-0.7675,-0.7678,-0.778,-0.7851,-0.7858,-0.796,-0.8024,-0.8038,-0.8028,-0.8038,-0.8031,-0.8035,-0.8038,-0.8038,-0.8038,-0.8038,-0.8038,-0.8038,-0.8038,-0.8038,-0.8038,-0.8052,-0.7999,-0.7925,-0.602,-0.1966,-0.052,-0.0,-0.0,-0.0,-0.0,-0.0,-0.0,-0.0,-0.0,-0.0,-0.0,-0.0,-0.0,-0.0,-0.0,-0.0,-0.0,-1.5832,-1.5825,-1.5825,-1.5825,-1.5825,-1.5825,-1.5825,-1.5825,-1.5684,-1.5697,-1.5825,-1.5825,-1.5825,-1.5825,-1.5825,-1.5825,-1.5825,-1.5825,-1.5825,0.0,-1.5825,-1.5825,-1.5825,-1.5825,-1.5825,-1.5825,-1.5825,-1.5825,-1.5825,-1.5825,-1.5825,-1.5629,-1.4561,-1.329,-1.2022,-1.194,-1.1678,-1.133,-1.0507,-0.9509,-0.8627,-0.8531,-0.8432,-0.8333,-0.941,-0.9513,-0.8553,-1.0349,-1.2444,-1.4477,-1.0401,-0.8021,-0.8024,-0.8276,-0.8554,-0.9072,-0.8361,-0.8157,-0.8565,-0.8209,-0.8038,-0.8237,-0.8137,-0.8018,-0.7984,-0.798,-0.7977,-0.7974,-0.7963,-0.798,-0.7977,-0.7967,-0.7957,-0.7967,-0.7991,-0.8007,-0.7997,-0.8021,-0.8038,-0.8038,-0.8038,-0.8038,-0.8038,-0.8038,-0.8038,-0.8038,-0.8038,-0.8038,-0.8038,-0.8038,-0.8038,-0.8038,-0.8038,-0.8096,-0.8201,-0.8061,-0.6763,-0.4005,-0.1483,-0.0,-0.0,-0.0,-0.0,-0.0,-0.0,-0.0,-0.0,-0.0,-0.0,-0.0,-0.0,-0.0,-0.0,-0.0,-0.0,-1.6306,-1.6306,-1.6306,-1.6213,-1.6059,-1.5899,-1.5825,-1.5825,-1.5825,-1.5825,-1.5825,-1.5825,-1.5825,-1.5825,-1.5825,-1.5825,-1.5825,-1.5825,-1.5825,-1.5825,-1.5825,-1.5825,-1.5825,-1.5825,-1.5825,-1.5825,-1.5825,-1.5825,-1.5825,-1.5825,-1.5825,-1.573,-1.5242,-1.4592,-1.4057,-1.401,-1.3966,-1.3918,-1.133,-0.9312,-0.8038,-0.8038,-0.8038,-0.8038,-0.8627,-0.8627,-0.8038,-0.911,-1.034,-1.1477,-0.9343,-0.8605,-0.9945,-0.8814,-0.7987,-0.7957,-0.7984,-0.7984,-0.7953,-0.8693,-0.8722,-0.8038,-0.8038,-0.8038,-0.8038,-0.8038,-0.8038,-0.8038,-0.8038,-0.8038,-0.8038,-0.8038,-0.8038,-0.8038,-0.8038,-0.8038,-0.8038,-0.8038,-0.8038,-0.8038,-0.8038,-0.8038,-0.8038,-0.8038,-0.8038,-0.8038,-0.8038,-0.8038,-0.8038,-0.8041,-0.8038,-0.8045,-0.8106,-0.8089,-0.8176,-0.8277,-0.7641,-0.636,-0.2701,-0.0,-0.0,-0.0,-0.0,-0.0,-0.0,-0.0,-0.0,-0.0,-0.0,-0.0,-0.0,-0.0,-0.0,-0.0,-0.0,-1.6707,-1.6707,-1.6707,-1.6573,-1.6353,-1.5912,-1.5813,-1.5813,-1.5813,-1.5916,-1.6005,-1.5892,-1.5825,-1.5825,-1.5825,-1.5825,-1.5825,-1.5825,-1.5825,-1.5825,-1.5825,-1.5825,-1.5838,-1.5899,-1.6034,-1.6048,-1.5999,-1.6025,-1.6032,-1.6025,-1.6025,-1.6019,-1.5916,-1.5853,-1.5835,-1.5963,-1.6036,-1.5816,-1.2766,-1.0276,-0.8535,-0.8432,-0.8333,-0.8038,-0.8038,-0.8038,-0.8035,-0.7997,-0.7994,-0.8035,-0.7997,-0.8894,-1.0753,-0.9665,-0.8634,-0.8086,-0.8014,-0.8021,-0.8079,-0.8992,-0.9114,-0.8137,-0.8038,-0.8038,-0.8038,-0.8038,-0.8038,-0.8038,-0.8038,-0.8038,-0.8038,-0.8038,-0.8038,-0.8038,-0.8038,-0.8038,-0.8038,-0.8038,-0.8038,-0.8038,-0.8038,-0.8038,-0.8038,-0.8038,-0.8038,-0.8038,-0.8038,-0.8038,-0.8038,-0.8062,-0.8089,-0.8113,-0.8194,-0.8309,-0.8059,-0.7539,-0.7565,-0.7825,-0.3633,-0.0,-0.0,-0.0,-0.0,-0.0,-0.0,-0.0,-0.0,-0.0,-0.0,-0.0,-0.0,-0.0,-0.0,-0.0,-0.0,-1.6714,-1.6707,-1.6727,-1.6693,-1.6554,-1.6056,-1.5818,-1.5825,-1.5838,-1.6069,-1.6547,-1.6066,-1.5852,-1.5825,-1.5838,-1.5845,-1.5838,-1.5832,-1.5825,-1.5832,-1.5825,-1.5825,-1.5872,-1.6326,-1.6662,-1.6592,-1.6592,-1.6573,-1.6573,-1.6587,-1.6613,-1.6514,-1.6063,-1.5825,-1.585,-1.6388,-1.6573,-1.6592,-1.5141,-1.2841,-1.0019,-0.9805,-0.9213,-0.8038,-0.8038,-0.8038,-0.8038,-0.8031,-0.8031,-0.8038,-0.8031,-0.8134,-0.8546,-1.0315,-1.0423,-0.8233,-0.8035,-0.8035,-0.8031,-0.8134,-0.8137,-0.8038,-0.8038,-0.8038,-0.8038,-0.8038,-0.8038,-0.8038,-0.8038,-0.8038,-0.8038,-0.8038,-0.8038,-0.8038,-0.8038,-0.8038,-0.8038,-0.8038,-0.8038,-0.8038,-0.8038,-0.8038,-0.8038,-0.8038,-0.8038,-0.8038,-0.8038,-0.8052,-0.8075,-0.8157,-0.8248,-0.8252,-0.8275,-0.8401,-0.8169,-0.6079,-0.592,-0.7374,-0.3802,-0.0,-0.0,-0.0,-0.0,-0.0,-0.0,-0.0,-0.0,-0.0,-0.0,-0.0,-0.0,-0.0,-0.0,-0.0,-0.0,-1.7228,-1.7228,-1.7221,-1.7121,-1.6954,-1.6553,-1.636,-1.6367,-1.6707,-1.7041,-1.7241,-1.7,-1.6681,-1.6339,-1.6172,-1.6086,-1.6072,-1.5905,-1.5825,-1.5845,-1.5794,-1.577,-1.5899,-1.6393,-1.6864,-1.7202,-1.688,-1.6707,-1.6707,-1.6707,-1.6707,-1.67,-1.6473,-1.6299,-1.6364,-1.6874,-1.6465,-1.4747,-1.4683,-1.3217,-1.0632,-1.0213,-0.9514,-0.8144,-0.8038,-0.8038,-0.8038,-0.8038,-0.8038,-0.8038,-0.8038,-0.8021,-0.7994,-0.905,-0.9859,-1.0096,-0.8784,-0.8001,-0.8035,-0.8038,-0.8038,-0.8038,-0.8038,-0.8038,-0.8038,-0.8038,-0.8038,-0.8038,-0.8038,-0.8038,-0.8038,-0.8038,-0.8038,-0.8038,-0.8038,-0.8038,-0.8038,-0.8038,-0.8038,-0.8038,-0.8038,-0.8038,-0.8038,-0.8038,-0.8038,-0.8038,-0.8041,-0.8075,-0.816,-0.8235,-0.8343,-0.8486,-0.853,-0.8581,-0.8396,-0.6165,-0.4657,-0.346,-0.1792,-0.0,-0.0,-0.0,-0.0,-0.0,-0.0,-0.0,-0.0,-0.0,-0.0,-0.0,-0.0,-0.0,-0.0,-0.0,-0.0,-1.7589,-1.7589,-1.7589,-1.7462,-1.7248,-1.7041,-1.6947,-1.6954,-1.7408,-1.7631,-1.7638,-1.7631,-1.7401,-1.6901,-1.6567,-1.6393,-1.6366,-1.6166,-1.5963,-1.5776,-1.5849,-1.5947,-1.6308,-1.6687,-1.717,-1.7521,-1.7157,-1.6954,-1.6947,-1.6947,-1.6947,-1.6947,-1.6947,-1.6892,-1.685,-1.61,-1.4601,-1.3517,-1.3925,-1.2956,-1.0924,-1.0492,-0.9705,-0.8223,-0.8102,-0.8085,-0.8038,-0.8038,-0.8038,-0.8038,-0.8038,-0.8021,-0.798,-0.8014,-0.8821,-1.0382,-0.9076,-0.7994,-0.8038,-0.8038,-0.8038,-0.8038,-0.8038,-0.8038,-0.8038,-0.8038,-0.8038,-0.8038,-0.8038,-0.8038,-0.8038,-0.8038,-0.8038,-0.8038,-0.8038,-0.8038,-0.8038,-0.8038,-0.8038,-0.8038,-0.8038,-0.8038,-0.8038,-0.8038,-0.8038,-0.8038,-0.8079,-0.813,-0.8262,-0.834,-0.8479,-0.8676,-0.8737,-0.8781,-0.8587,-0.7323,-0.4355,-0.0,-0.0,-0.0,-0.0,-0.0,-0.0,-0.0,-0.0,-0.0,-0.0,-0.0,-0.0,-0.0,-0.0,-0.0,-0.0,-0.0,-0.0,-1.7589,-1.7589,-1.7589,-1.7569,-1.7555,-1.7522,-1.7528,-1.7482,-1.7627,-1.764,-1.762,-1.7627,-1.7535,-1.7475,-1.6941,-1.6687,-1.668,-1.664,-1.6288,-1.5937,-1.5876,-1.646,-1.7503,-1.7564,-1.7592,-1.7606,-1.7583,-1.7482,-1.7502,-1.7522,-1.7542,-1.7528,-1.7495,-1.7522,-1.6944,-1.2745,-1.0805,-1.2844,-1.325,-1.2476,-1.1043,-1.0801,-0.9999,-0.8508,-0.8262,-0.8194,-0.8069,-0.8041,-0.8041,-0.8038,-0.8038,-0.8035,-0.8035,-0.8035,-0.8134,-0.8233,-0.8131,-0.8031,-0.8038,-0.8038,-0.8038,-0.8038,-0.8038,-0.8038,-0.8038,-0.8038,-0.8038,-0.8038,-0.8038,-0.8038,-0.8038,-0.8038,-0.8038,-0.8038,-0.8038,-0.8038,-0.8038,-0.8038,-0.8038,-0.8038,-0.8038,-0.8038,-0.8038,-0.8038,-0.8048,-0.8079,-0.8167,-0.8272,-0.8333,-0.852,-0.8659,-0.8733,-0.8828,-0.8933,-0.8843,-0.8291,-0.5819,-0.0,-0.0,-0.0,-0.0,-0.0,-0.0,-0.0,-0.0,-0.0,-0.0,-0.0,-0.0,-0.0,-0.0,-0.0,-0.0,-0.0,-0.0,-1.7589,-1.7589,-1.7589,-1.7589,-1.7589,-1.7589,-1.7589,-1.7589,-1.7589,-1.7589,-1.7589,-1.7589,-1.7589,-1.7569,-1.7368,-1.7161,-1.6981,-1.68,-1.6593,-1.6386,-1.6328,-1.6859,-1.7483,-1.7633,-1.7657,-1.7566,-1.7647,-1.7589,-1.7589,-1.7589,-1.7589,-1.7589,-1.7589,-1.7615,-1.7218,-1.5553,-1.3326,-1.0991,-1.2248,-1.2149,-0.9934,-0.961,-0.9291,-0.8666,-0.8455,-0.8336,-0.8191,-0.8083,-0.8036,-0.8045,-0.8038,-0.8038,-0.8035,-0.8004,-0.8001,-0.8031,-0.8007,-0.8001,-0.8031,-0.8038,-0.8038,-0.8038,-0.8038,-0.8038,-0.8038,-0.8038,-0.8038,-0.8038,-0.8038,-0.8038,-0.8038,-0.8038,-0.8038,-0.8038,-0.8038,-0.8038,-0.8038,-0.8038,-0.8038,-0.8038,-0.8038,-0.8038,-0.8038,-0.8038,-0.8079,-0.8174,-0.8238,-0.835,-0.8516,-0.8655,-0.8747,-0.8835,-0.8899,-0.894,-0.8947,-0.887,-0.741,-0.414,-0.0,-0.0,-0.0,-0.0,-0.0,-0.0,-0.0,-0.0,-0.0,-0.0,-0.0,-0.0,-0.0,-0.0,-0.0,-0.0,-0.0,-1.7589,-1.7589,-1.7589,-1.7589,-1.7589,-1.7589,-1.7589,-1.7589,-1.7589,-1.7589,-1.7589,-1.7589,-1.7589,-1.7589,-1.7589,-1.7482,-1.7281,-1.7081,-1.6987,-1.7001,-1.6968,-1.7171,-1.7549,-1.7607,-1.7589,-1.7582,-1.7589,-1.7589,-1.7589,-1.7589,-1.7589,-1.7589,-1.7589,-1.7629,-1.7583,-1.7556,-1.5435,-1.2591,-1.2384,-1.1538,-0.9809,-0.9158,-0.8896,-0.8788,-0.8682,-0.8533,-0.8353,-0.8127,-0.7978,-0.7988,-0.8036,-0.7989,-0.8041,-0.8001,-0.7997,-0.8031,-0.8004,-0.7997,-0.8031,-0.8038,-0.8038,-0.8038,-0.8038,-0.8038,-0.8038,-0.8038,-0.8038,-0.8038,-0.8038,-0.8038,-0.8038,-0.8038,-0.8038,-0.8038,-0.8038,-0.8038,-0.8038,-0.8038,-0.8038,-0.8038,-0.8038,-0.8038,-0.8045,-0.8089,-0.8157,-0.8262,-0.8336,-0.8509,-0.8662,-0.8764,-0.8808,-0.8913,-0.893,-0.8937,-0.895,-0.887,-0.7744,-0.4698,-0.0,-0.0,-0.0,-0.0,-0.0,-0.0,-0.0,-0.0,-0.0,-0.0,-0.0,-0.0,-0.0,-0.0,-0.0,-0.0,-0.0,-1.7615,-1.7629,-1.7589,-1.7622,-1.7629,-1.7595,-1.7589,-1.7589,-1.7589,-1.7589,-1.7589,-1.7589,-1.7589,-1.7589,-1.7589,-1.7575,-1.7542,-1.7502,-1.7495,-1.7508,-1.7535,-1.7549,-1.766,-1.7569,-1.7589,-1.7589,-1.7589,-1.7589,-1.7589,-1.7589,-1.7589,-1.7589,-1.7589,-1.7595,-1.7589,-1.7583,-1.7429,-1.597,-1.3192,-1.1214,-1.0891,-0.9588,-0.893,-0.8923,-0.8906,-0.8774,-0.8506,-0.8164,-0.8043,-0.8014,-0.802,-0.7991,-0.7982,-0.7955,-0.8045,-0.8038,-0.8035,-0.8038,-0.8038,-0.8038,-0.8038,-0.8038,-0.8038,-0.8038,-0.8038,-0.8038,-0.8038,-0.8038,-0.8038,-0.8038,-0.8038,-0.8038,-0.8038,-0.8038,-0.8038,-0.8038,-0.8038,-0.8038,-0.8038,-0.8038,-0.8038,-0.8041,-0.8075,-0.816,-0.8258,-0.835,-0.8509,-0.8676,-0.874,-0.8838,-0.8916,-0.8933,-0.8937,-0.8937,-0.8954,-0.8749,-0.6943,-0.0,-0.0,-0.0,-0.0,-0.0,-0.0,-0.0,-0.0,-0.0,-0.0,-0.0,-0.0,-0.0,-0.0,-0.0,-0.0,-0.0,-0.0,-1.821,-1.8183,-1.7983,-1.7903,-1.7876,-1.7675,-1.7589,-1.7589,-1.7589,-1.7589,-1.7589,-1.7589,-1.7589,-1.7589,-1.7589,-1.7589,-1.7589,-1.7589,-1.7589,-1.7589,-1.7589,-1.7589,-1.7589,-1.7589,-1.7589,-1.7589,-1.7589,-1.7589,-1.7589,-1.7589,-1.7589,-1.7589,-1.7589,-1.7589,-1.7589,-1.7516,-1.6774,-1.4606,-1.3393,-1.1755,-0.9809,-0.9154,-0.8937,-0.8937,-0.8937,-0.8882,-0.8798,-0.8696,-0.8481,-0.8387,-0.8546,-0.8453,-0.8123,-0.7991,-0.8046,-0.7952,-0.8038,-0.8038,-0.8038,-0.8041,-0.8045,-0.8038,-0.8038,-0.8038,-0.8038,-0.8038,-0.8038,-0.8038,-0.8038,-0.8038,-0.8038,-0.8038,-0.8038,-0.8038,-0.8038,-0.8038,-0.8038,-0.8038,-0.8038,-0.8038,-0.8038,-0.8082,-0.8174,-0.8269,-0.8364,-0.8526,-0.8659,-0.874,-0.8845,-0.8896,-0.8937,-0.8937,-0.8937,-0.894,-0.8957,-0.8752,-0.763,-0.5375,-0.0,-0.0,-0.0,-0.0,-0.0,-0.0,-0.0,-0.0,-0.0,-0.0,-0.0,-0.0,-0.0,-0.0,-0.0,-0.0,-0.0,-1.8497,-1.847,-1.829,-1.821,-1.8176,-1.7883,-1.7643,-1.7616,-1.7622,-1.7589,-1.7589,-1.7589,-1.7589,-1.7589,-1.7589,-1.7589,-1.7589,-1.7589,-1.7589,-1.7589,-1.7589,-1.7589,-1.7589,-1.7589,-1.7589,-1.7589,-1.7589,-1.7589,-1.7589,-1.7589,-1.7589,-1.7589,-1.7589,-1.7589,-1.7589,-1.7582,-1.6605,-1.499,-1.3455,-1.2059,-1.0672,-0.9482,-0.8937,-0.8937,-0.8937,-0.8937,-0.893,-0.8958,-0.8862,-0.8659,-0.8821,-0.8716,-0.8367,-0.8133,-0.7988,-0.8126,-0.8099,-0.8187,-0.8036,-0.8029,-0.8096,-0.8055,-0.8038,-0.8038,-0.8038,-0.8038,-0.8038,-0.8038,-0.8038,-0.8038,-0.8038,-0.8038,-0.8038,-0.8038,-0.8038,-0.8038,-0.8038,-0.8038,-0.8079,-0.8109,-0.8133,-0.8201,-0.8303,-0.8421,-0.8492,-0.8679,-0.876,-0.8811,-0.8913,-0.8933,-0.8937,-0.8937,-0.8937,-0.8944,-0.8954,-0.8638,-0.8094,-0.5719,-0.0,-0.0,-0.0,-0.0,-0.0,-0.0,-0.0,-0.0,-0.0,-0.0,-0.0,-0.0,-0.0,-0.0,-0.0,-0.0,-0.0,-1.8544,-1.8537,-1.8524,-1.851,-1.8477,-1.8196,-1.7921,-1.7626,-1.7636,-1.7622,-1.7589,-1.7589,-1.7589,-1.7589,-1.7589,-1.7589,-1.7589,-1.7589,-1.7589,-1.7589,-1.7589,-1.7589,-1.7589,-1.7589,-1.7589,-1.7589,-1.7589,-1.7589,-1.7589,-1.7589,-1.7589,-1.7589,-1.7589,-1.7589,-1.7589,-1.7589,-1.7483,-1.6842,-1.3869,-1.2582,-1.262,-1.0351,-0.8937,-0.8937,-0.8937,-0.8937,-0.8933,-0.892,-0.8923,-0.8913,-0.8896,-0.8876,-0.8744,-0.8384,-0.8164,-0.834,-0.8469,-0.8287,-0.8203,-0.8176,-0.8235,-0.8022,-0.8009,-0.8062,-0.8106,-0.8123,-0.8123,-0.8016,-0.8109,-0.8092,-0.8096,-0.8099,-0.8099,-0.8072,-0.8069,-0.8048,-0.8055,-0.8065,-0.8136,-0.8245,-0.8286,-0.8333,-0.8476,-0.8604,-0.8676,-0.875,-0.8845,-0.8906,-0.8927,-0.8937,-0.8937,-0.894,-0.894,-0.895,-0.8964,-0.8876,-0.8329,-0.6855,-0.0,-0.0,-0.0,-0.0,-0.0,-0.0,-0.0,-0.0,-0.0,-0.0,-0.0,-0.0,-0.0,-0.0,-0.0,-0.0,-0.0,-1.9138,-1.9112,-1.8898,-1.8804,-1.8764,-1.8497,-1.8121,-1.7685,-1.7607,-1.7662,-1.7629,-1.7589,-1.7589,-1.7589,-1.7589,-1.7589,-1.7589,-1.7589,-1.7589,-1.7589,-1.7589,-1.7589,-1.7589,-1.7589,-1.7589,-1.7589,-1.7589,-1.7589,-1.7589,-1.7589,-1.7589,-1.7589,-1.7589,-1.7589,-1.7589,-1.7589,-1.7635,-1.7277,-1.5279,-1.296,-1.1538,-0.9915,-0.8937,-0.8937,-0.8937,-0.8937,-0.8937,-0.8937,-0.8937,-0.8937,-0.891,-0.892,-0.8894,-0.8755,-0.8501,-0.8418,-0.8604,-0.8692,-0.8445,-0.8428,-0.8401,-0.8267,-0.8123,-0.8153,-0.8364,-0.8364,-0.8364,-0.826,-0.826,-0.8357,-0.836,-0.8353,-0.8353,-0.8336,-0.8187,-0.8106,-0.8184,-0.8214,-0.8265,-0.8397,-0.8425,-0.8499,-0.8615,-0.8689,-0.876,-0.8845,-0.8899,-0.8937,-0.8937,-0.8937,-0.8937,-0.8947,-0.895,-0.896,-0.8863,-0.889,-0.8562,-0.7768,-0.0,-0.0,-0.0,-0.0,-0.0,-0.0,-0.0,-0.0,-0.0,-0.0,-0.0,-0.0,-0.0,-0.0,-0.0,-0.0,-0.0,-2.0702,-2.1145,-1.9731,-1.9435,-1.9835,-1.9016,-1.8571,-1.8267,-1.7777,-1.76,-1.7649,-1.7622,-1.7589,-1.7589,-1.7589,-1.7589,-1.7589,-1.7589,-1.7589,-1.7589,-1.7589,-1.7589,-1.7589,-1.7589,-1.7589,-1.7589,-1.7589,-1.7589,-1.7589,-1.7589,-1.7589,-1.7589,-1.7589,-1.7589,-1.7589,-1.7589,-1.6929,-1.5779,-1.46,-1.3088,-1.1219,-0.9699,-0.9047,-0.8937,-0.8937,-0.8937,-0.8937,-0.8937,-0.8937,-0.8937,-0.8933,-0.8896,-0.8934,-0.8917,-0.8764,-0.8565,-0.8783,-0.8766,-0.8697,-0.8577,-0.8543,-0.8387,-0.8266,-0.8374,-0.858,-0.8696,-0.8591,-0.8577,-0.8587,-0.8482,-0.8482,-0.8482,-0.8482,-0.8452,-0.8323,-0.8262,-0.8357,-0.8357,-0.8428,-0.8526,-0.8587,-0.8635,-0.8784,-0.8801,-0.8849,-0.891,-0.8923,-0.8937,-0.8937,-0.8937,-0.894,-0.895,-0.8618,-0.851,-0.739,-0.6956,-0.5723,-0.5164,-0.0,-0.0,-0.0,-0.0,-0.0,-0.0,-0.0,-0.0,-0.0,-0.0,-0.0,-0.0,-0.0,-0.0,-0.0,-0.0,-0.0,-2.2597,-2.3599,-2.0931,-2.0594,-2.1412,-1.9962,-1.9251,-1.9142,-1.8337,-1.7725,-1.7607,-1.7596,-1.7589,-1.7589,-1.7589,-1.7589,-1.7589,-1.7589,-1.7589,-1.7589,-1.7589,-1.7589,-1.7589,-1.7589,-1.7589,-1.7589,-1.7589,-1.7589,-1.7589,-1.7589,-1.7589,-1.7589,-1.7589,-1.7589,-1.7589,-1.7582,-1.6001,-1.4019,-1.2866,-1.2163,-1.0992,-0.9699,-0.8937,-0.8937,-0.8937,-0.8937,-0.8937,-0.8937,-0.8937,-0.8937,-0.8937,-0.893,-0.893,-0.8933,-0.8923,-0.891,-0.8886,-0.8842,-0.8652,-0.873,-0.8686,-0.8594,-0.856,-0.8635,-0.8786,-0.8906,-0.8803,-0.881,-0.8642,-0.857,-0.8574,-0.855,-0.8567,-0.8577,-0.854,-0.853,-0.8526,-0.8516,-0.8564,-0.8706,-0.8733,-0.8804,-0.8882,-0.8937,-0.8937,-0.8923,-0.8937,-0.8937,-0.894,-0.8947,-0.8947,-0.895,-0.8507,-0.7946,-0.6376,-0.47,-0.3023,-0.0,-0.0,-0.0,-0.0,-0.0,-0.0,-0.0,-0.0,-0.0,-0.0,-0.0,-0.0,-0.0,-0.0,-0.0,-0.0,-0.0,-0.0,-2.3495,-2.3718,-2.3159,-2.3047,-2.3031,-2.173,-2.0379,-1.9375,-1.9099,-1.8386,-1.778,-1.7603,-1.7595,-1.7589,-1.7589,-1.7589,-1.7589,-1.7589,-1.7589,-1.7589,-1.7589,-1.7589,-1.7589,-1.7589,-1.7589,-1.7589,-1.7589,-1.7589,-1.7589,-1.7589,-1.7589,-1.7589,-1.7589,-1.7589,-1.7589,-1.747,-1.6225,-1.3448,-1.1156,-1.0566,-1.0769,-0.9699,-0.8937,-0.8937,-0.8937,-0.8937,-0.8937,-0.8937,-0.8937,-0.8937,-0.8937,-0.8937,-0.8937,-0.8937,-0.8937,-0.8937,-0.8937,-0.892,-0.8893,-0.8872,-0.8876,-0.8821,-0.8798,-0.8842,-0.8842,-0.8931,-0.8937,-0.8951,-0.8842,-0.8808,-0.8804,-0.8828,-0.8808,-0.8798,-0.8804,-0.8815,-0.8815,-0.873,-0.874,-0.8832,-0.8879,-0.8899,-0.8933,-0.8937,-0.8937,-0.8937,-0.8937,-0.8937,-0.8944,-0.895,-0.8954,-0.8957,-0.8745,-0.8187,-0.6953,-0.0,-0.0,-0.0,-0.0,-0.0,-0.0,-0.0,-0.0,-0.0,-0.0,-0.0,-0.0,-0.0,-0.0,-0.0,-0.0,-0.0,-0.0,-0.0,-0.0,-2.5287,-2.5717,-2.4378,-2.4267,-2.4488,-2.2581,-2.0699,-1.9612,-1.9438,-1.8768,-1.781,-1.7562,-1.7589,-1.7589,-1.7589,-1.7589,-1.7589,-1.7589,-1.7589,-1.7589,-1.7589,-1.7589,-1.7589,-1.7589,-1.7589,-1.7589,-1.7589,-1.7589,-1.7589,-1.7589,-1.7589,-1.7589,-1.7589,-1.7589,-1.7589,-1.7589,-1.6037,-1.3276,-1.0493,-0.9338,-0.9783,-0.9375,-0.8937,-0.8937,-0.8937,-0.8937,-0.8937,-0.8937,-0.8937,-0.8937,-0.8937,-0.8937,-0.8937,-0.8937,-0.8937,-0.8937,-0.8937,-0.8937,-0.8937,-0.8937,-0.8933,-0.8937,-0.8937,-0.8937,-0.8937,-0.8937,-0.8937,-0.8937,-0.893,-0.8933,-0.8937,-0.8933,-0.8937,-0.8937,-0.8937,-0.8937,-0.8923,-0.8866,-0.8842,-0.892,-0.893,-0.893,-0.8937,-0.8937,-0.8937,-0.8937,-0.8937,-0.8937,-0.8937,-0.8947,-0.8957,-0.8967,-0.8873,-0.8431,-0.7533,-0.0,-0.0,-0.0,-0.0,-0.0,-0.0,-0.0,-0.0,-0.0,-0.0,-0.0,-0.0,-0.0,-0.0,-0.0,-0.0,-0.0,-0.0,-0.0,-0.0,-2.7187,-2.8067,-2.5489,-2.527,-2.5827,-2.359,-2.1662,-2.0308,-1.9563,-1.8748,-1.7818,-1.7582,-1.7589,-1.7589,-1.7589,-1.7589,-1.7589,-1.7589,-1.7589,-1.7589,-1.7589,-1.7589,-1.7589,-1.7589,-1.7589,-1.7589,-1.7589,-1.7589,-1.7589,-1.7589,-1.7589,-1.7589,-1.7589,-1.7589,-1.7589,-1.7477,-1.6168,-1.3337,-1.0405,-0.8907,-0.9023,-0.894,-0.8937,-0.8937,-0.8937,-0.8937,-0.8937,-0.8937,-0.8937,-0.8937,-0.8937,-0.8937,-0.8937,-0.8937,-0.8937,-0.8937,-0.8937,-0.8937,-0.8937,-0.8937,-0.8937,-0.8937,-0.8937,-0.8937,-0.8937,-0.8937,-0.8937,-0.8937,-0.8937,-0.8937,-0.8937,-0.8937,-0.8937,-0.8937,-0.8937,-0.8937,-0.8937,-0.8937,-0.8933,-0.8933,-0.8937,-0.8937,-0.8937,-0.8937,-0.8937,-0.8937,-0.8937,-0.8937,-0.894,-0.8947,-0.896,-0.7385,-0.6834,-0.5601,-0.4485,-0.0,-0.0,-0.0,-0.0,-0.0,-0.0,-0.0,-0.0,-0.0,-0.0,-0.0,-0.0,-0.0,-0.0,-0.0,-0.0,-0.0,-0.0,-0.0,-0.0,-2.8067,-2.8291,-2.7726,-2.7736,-2.7618,-2.6045,-2.4319,-2.2763,-2.0478,-1.8761,-1.7718,-1.7623,-1.7589,-1.7589,-1.7589,-1.7589,-1.7589,-1.7589,-1.7589,-1.7589,-1.7589,-1.7589,-1.7589,-1.7589,-1.7589,-1.7589,-1.7589,-1.7589,-1.7589,-1.7589,-1.7589,-1.7589,-1.7589,-1.7589,-1.7589,-1.7477,-1.6174,-1.3347,-1.0413,-0.9022,-0.8906,-0.8937,-0.8937,-0.8937,-0.8937,-0.8937,-0.8937,-0.8937,-0.8937,-0.8937,-0.8937,-0.8937,-0.8937,-0.8937,-0.8937,-0.8937,-0.8937,-0.8937,-0.8937,-0.8937,-0.8937,-0.8937,-0.8937,-0.8937,-0.8937,-0.8937,-0.8937,-0.8937,-0.8937,-0.8937,-0.8937,-0.8937,-0.8937,-0.8937,-0.8937,-0.8937,-0.8937,-0.8937,-0.8937,-0.8937,-0.8937,-0.8937,-0.8937,-0.8937,-0.8937,-0.8937,-0.8937,-0.8944,-0.8947,-0.896,-0.8866,-0.6717,-0.4136,-0.2573,-0.0896,-0.0,-0.0,-0.0,-0.0,-0.0,-0.0,-0.0,-0.0,-0.0,-0.0,-0.0,-0.0,-0.0,-0.0,-0.0,-0.0,-0.0,-0.0,-0.0,-0.0,-2.8301,-2.8301,-2.8301,-2.8301,-2.8067,-2.6726,-2.6145,-2.5413,-2.1116,-1.8442,-1.7842,-1.7616,-1.7589,-1.7589,-1.7589,-1.7589,-1.7589,-1.7589,-1.7589,-1.7589,-1.7589,-1.7589,-1.7589,-1.7589,-1.7589,-1.7589,-1.7589,-1.7589,-1.7589,-1.7589,-1.7589,-1.7589,-1.7589,-1.7589,-1.7589,-1.7582,-1.5962,-1.3332,-1.0534,-0.891,-0.8927,-0.8937,-0.8937,-0.8937,-0.8937,-0.8937,-0.8937,-0.8937,-0.8937,-0.8937,-0.8937,-0.8937,-0.8937,-0.8937,-0.8937,-0.8937,-0.8937,-0.8937,-0.8937,-0.8937,-0.8937,-0.8937,-0.8937,-0.8937,-0.8937,-0.8937,-0.8937,-0.8937,-0.8937,-0.8937,-0.8937,-0.8937,-0.8937,-0.8937,-0.8937,-0.8937,-0.8937,-0.8937,-0.8937,-0.8937,-0.8937,-0.8937,-0.8937,-0.8937,-0.8937,-0.8937,-0.8937,-0.8944,-0.895,-0.8967,-0.887,-0.6953,-0.0,-0.0,-0.0,-0.0,-0.0,-0.0,-0.0,-0.0,-0.0,-0.0,-0.0,-0.0,-0.0,-0.0,-0.0,-0.0,-0.0,-0.0,-0.0,-0.0,-0.0,-0.0,-0.0,-2.8301,-2.8301,-2.8301,-2.8301,-2.8057,-2.6957,-2.707,-2.6933,-2.2089,-1.8784,-1.7681,-1.7583,-1.7589,-1.7589,-1.7589,-1.7589,-1.7589,-1.7589,-1.7589,-1.7589,-1.7589,-1.7589,-1.7589,-1.7589,-1.7589,-1.7589,-1.7589,-1.7589,-1.7589,-1.7589,-1.7589,-1.7589,-1.7589,-1.7589,-1.7589,-1.7629,-1.5767,-1.3316,-1.0438,-0.9043,-0.891,-0.8937,-0.8937,-0.8937,-0.8937,-0.8937,-0.8937,-0.8937,-0.8937,-0.8937,-0.8937,-0.8937,-0.8937,-0.8937,-0.8937,-0.8937,-0.8937,-0.8937,-0.8937,-0.8937,-0.8937,-0.8937,-0.8937,-0.8937,-0.8937,-0.8937,-0.8937,-0.8937,-0.8937,-0.8937,-0.8937,-0.8937,-0.8937,-0.8937,-0.8937,-0.8937,-0.8937,-0.8937,-0.8937,-0.8937,-0.8937,-0.8937,-0.8937,-0.8937,-0.8937,-0.8937,-0.8937,-0.894,-0.895,-0.8964,-0.853,-0.719,-0.0,-0.0,-0.0,-0.0,-0.0,-0.0,-0.0,-0.0,-0.0,-0.0,-0.0,-0.0,-0.0,-0.0,-0.0,-0.0,-0.0,-0.0,-0.0,-0.0,-0.0,-0.0,-0.0,-2.8301,-2.8291,-2.8291,-2.8301,-2.8203,-2.766,-2.7699,-2.7593,-2.3904,-2.0542,-1.7563,-1.7609,-1.7589,-1.7589,-1.7589,-1.7589,-1.7589,-1.7589,-1.7589,-1.7589,-1.7589,-1.7589,-1.7589,-1.7589,-1.7589,-1.7589,-1.7589,-1.7589,-1.7589,-1.7589,-1.7589,-1.7589,-1.7589,-1.7589,-1.7595,-1.7576,-1.6059,-1.3254,-1.0365,-0.8862,-0.8927,-0.8937,-0.8937,-0.8937,-0.8937,-0.8937,-0.8937,-0.8937,-0.8937,-0.8937,-0.8937,-0.8937,-0.8937,-0.8937,-0.8937,-0.8937,-0.8937,-0.8937,-0.8937,-0.8937,-0.8937,-0.8937,-0.8937,-0.8937,-0.8937,-0.8937,-0.8937,-0.8937,-0.8937,-0.8937,-0.8937,-0.8937,-0.8937,-0.8937,-0.8937,-0.8937,-0.8937,-0.8937,-0.8937,-0.8937,-0.8937,-0.8937,-0.8937,-0.8937,-0.8937,-0.8937,-0.8937,-0.894,-0.8273,-0.7838,-0.7059,-0.5384,-0.0,-0.0,-0.0,-0.0,-0.0,-0.0,-0.0,-0.0,-0.0,-0.0,-0.0,-0.0,-0.0,-0.0,-0.0,-0.0,-0.0,-0.0,-0.0,-0.0,-0.0,-0.0,-0.0,-2.7715,-2.7939,-2.7939,-2.7793,-2.7559,-2.7373,-2.7347,-2.6845,-2.4209,-2.093,-1.8044,-1.7589,-1.7589,-1.7589,-1.7589,-1.7589,-1.7589,-1.7589,-1.7589,-1.7589,-1.7589,-1.7589,-1.7589,-1.7589,-1.7589,-1.7589,-1.7589,-1.7589,-1.7589,-1.7589,-1.7589,-1.7589,-1.7589,-1.7589,-1.7602,-1.7603,-1.4776,-1.1783,-0.9505,-0.8906,-0.893,-0.8937,-0.8937,-0.8937,-0.8937,-0.893,-0.893,-0.8937,-0.8937,-0.8937,-0.8937,-0.8937,-0.8937,-0.8937,-0.8937,-0.8937,-0.8937,-0.8937,-0.8937,-0.8933,-0.8937,-0.8937,-0.8937,-0.8937,-0.8937,-0.8937,-0.8937,-0.8937,-0.8937,-0.8937,-0.8937,-0.8937,-0.8937,-0.8937,-0.8937,-0.8937,-0.8937,-0.8937,-0.8937,-0.8937,-0.8933,-0.8927,-0.8927,-0.8937,-0.8937,-0.8937,-0.883,-0.8725,-0.6932,-0.4814,-0.4032,-0.3026,-0.0,-0.0,-0.0,-0.0,-0.0,-0.0,-0.0,-0.0,-0.0,-0.0,-0.0,-0.0,-0.0,-0.0,-0.0,-0.0,-0.0,-0.0,-0.0,-0.0,-0.0,-0.0,-0.0,-2.7148,-2.7353,-2.7451,-2.7305,-2.7002,-2.6904,-2.6958,-2.6645,-2.3867,-2.0716,-1.8254,-1.7589,-1.7589,-1.7589,-1.7589,-1.7589,-1.7589,-1.7589,-1.7589,-1.7589,-1.7589,-1.7589,-1.7589,-1.7589,-1.7589,-1.7589,-1.7589,-1.7589,-1.7589,-1.7589,-1.7589,-1.7589,-1.7589,-1.7589,-1.7629,-1.7177,-1.4968,-0.9704,-0.9113,-0.893,-0.8937,-0.8937,-0.8937,-0.8927,-0.8906,-0.8882,-0.8879,-0.8931,-0.892,-0.8917,-0.8794,-0.8777,-0.8784,-0.8889,-0.8893,-0.8893,-0.8889,-0.8781,-0.8818,-0.8859,-0.892,-0.8937,-0.8937,-0.8937,-0.8937,-0.8937,-0.8937,-0.8937,-0.8937,-0.8937,-0.8937,-0.8937,-0.8937,-0.8937,-0.8937,-0.8937,-0.8923,-0.8889,-0.8893,-0.892,-0.8913,-0.8899,-0.8906,-0.893,-0.8937,-0.8937,-0.8833,-0.8618,-0.6379,-0.3585,-0.2577,-0.0,-0.0,-0.0,-0.0,-0.0,-0.0,-0.0,-0.0,-0.0,-0.0,-0.0,-0.0,-0.0,-0.0,-0.0,-0.0,-0.0,-0.0,-0.0,-0.0,-0.0,-0.0,-0.0,-0.0,-2.6797,-2.6504,-2.6894,-2.7021,-2.6943,-2.6592,-2.6584,-2.6559,-2.3236,-2.0308,-1.7793,-1.7589,-1.7589,-1.7589,-1.7589,-1.7589,-1.7589,-1.7589,-1.7589,-1.7589,-1.7589,-1.7589,-1.7589,-1.7589,-1.7589,-1.7589,-1.7589,-1.7589,-1.7589,-1.7589,-1.7589,-1.7589,-1.7589,-1.7589,-1.7179,-1.638,-1.384,-0.9708,-0.8862,-0.8879,-0.8889,-0.8893,-0.8896,-0.8876,-0.8798,-0.8726,-0.8939,-0.8845,-0.8789,-0.8793,-0.8581,-0.8577,-0.8598,-0.8701,-0.8814,-0.8814,-0.8701,-0.8591,-0.8511,-0.8757,-0.8896,-0.8927,-0.891,-0.8872,-0.8855,-0.8906,-0.8923,-0.8886,-0.8849,-0.8876,-0.8896,-0.8927,-0.8862,-0.8845,-0.8818,-0.8821,-0.8804,-0.8788,-0.8801,-0.8872,-0.8899,-0.8893,-0.8903,-0.893,-0.8937,-0.8937,-0.8722,-0.8507,-0.6601,-0.4143,-0.2913,-0.0,-0.0,-0.0,-0.0,-0.0,-0.0,-0.0,-0.0,-0.0,-0.0,-0.0,-0.0,-0.0,-0.0,-0.0,-0.0,-0.0,-0.0,-0.0,-0.0,-0.0,-0.0,-0.0,-0.0,-2.6133,-2.6016,-2.6172,-2.623,-2.6121,-2.5116,-2.528,-2.5563,-2.3031,-2.0155,-1.7589,-1.7589,-1.7589,-1.7589,-1.7589,-1.7589,-1.7589,-1.7589,-1.7589,-1.7589,-1.7589,-1.7589,-1.7589,-1.7589,-1.7589,-1.7589,-1.7589,-1.7589,-1.7589,-1.7589,-1.7589,-1.7589,-1.7589,-1.7649,-1.7025,-1.4388,-1.1022,-0.9781,-0.8679,-0.8669,-0.8659,-0.8659,-0.8659,-0.8645,-0.8625,-0.857,-0.867,-0.8625,-0.8489,-0.8374,-0.8266,-0.8266,-0.8266,-0.8482,-0.8591,-0.8591,-0.8482,-0.8374,-0.8266,-0.8488,-0.8759,-0.888,-0.8876,-0.8793,-0.872,-0.8679,-0.8662,-0.8652,-0.8696,-0.874,-0.8672,-0.8659,-0.8638,-0.8655,-0.8686,-0.8716,-0.8723,-0.8723,-0.8754,-0.8845,-0.8889,-0.891,-0.892,-0.8937,-0.8937,-0.8937,-0.8611,-0.806,-0.6381,-0.0,-0.0,-0.0,-0.0,-0.0,-0.0,-0.0,-0.0,-0.0,-0.0,-0.0,-0.0,-0.0,-0.0,-0.0,-0.0,-0.0,-0.0,-0.0,-0.0,-0.0,-0.0,-0.0,-0.0,-0.0,-0.0,-2.5732,-2.5732,-2.5732,-2.5732,-2.5528,-2.4304,-2.399,-2.4059,-2.2587,-2.0142,-1.7694,-1.7589,-1.7589,-1.7589,-1.7589,-1.7589,-1.7589,-1.7589,-1.7589,-1.7589,-1.7589,-1.7589,-1.7589,-1.7589,-1.7589,-1.7589,-1.7589,-1.7589,-1.7589,-1.7589,-1.7589,-1.7589,-1.7595,-1.7655,-1.6223,-1.1898,-0.8538,-0.8518,-0.8618,-0.8618,-0.8638,-0.8645,-0.8652,-0.8645,-0.8618,-0.8584,-0.8564,-0.8421,-0.8269,-0.8154,-0.8049,-0.8049,-0.8157,-0.8266,-0.8371,-0.8371,-0.8371,-0.8266,-0.8266,-0.8374,-0.8615,-0.8707,-0.8814,-0.8611,-0.8598,-0.8501,-0.8598,-0.8679,-0.8652,-0.8604,-0.8598,-0.8689,-0.8716,-0.8774,-0.8764,-0.8781,-0.875,-0.8743,-0.8774,-0.8821,-0.8845,-0.8859,-0.8927,-0.8937,-0.8937,-0.8944,-0.8843,-0.8291,-0.7062,-0.0,-0.0,-0.0,-0.0,-0.0,-0.0,-0.0,-0.0,-0.0,-0.0,-0.0,-0.0,-0.0,-0.0,-0.0,-0.0,-0.0,-0.0,-0.0,-0.0,-0.0,-0.0,-0.0,-0.0,-0.0,-0.0,-2.5732,-2.5732,-2.5732,-2.5732,-2.5528,-2.4205,-2.3003,-2.2173,-2.1504,-1.9919,-1.7701,-1.7589,-1.7589,-1.7589,-1.7589,-1.7589,-1.7589,-1.7589,-1.7589,-1.7589,-1.7589,-1.7589,-1.7589,-1.7589,-1.7589,-1.7589,-1.7589,-1.7589,-1.7589,-1.7589,-1.7589,-1.7595,-1.7615,-1.7298,-1.6964,-1.158,-0.8739,-0.8559,-0.8749,-0.8832,-0.8811,-0.8791,-0.8781,-0.875,-0.8676,-0.8615,-0.8591,-0.8312,-0.8161,-0.8157,-0.8157,-0.8266,-0.8479,-0.8479,-0.8374,-0.8157,-0.8374,-0.8482,-0.8482,-0.8482,-0.8537,-0.8505,-0.8491,-0.8548,-0.8491,-0.8536,-0.8583,-0.8699,-0.8781,-0.8832,-0.8879,-0.8876,-0.8825,-0.8791,-0.8764,-0.8747,-0.8706,-0.874,-0.8764,-0.8798,-0.8774,-0.8771,-0.8872,-0.8937,-0.8937,-0.8944,-0.896,-0.8298,-0.7516,-0.0,-0.0,-0.0,-0.0,-0.0,-0.0,-0.0,-0.0,-0.0,-0.0,-0.0,-0.0,-0.0,-0.0,-0.0,-0.0,-0.0,-0.0,-0.0,-0.0,-0.0,-0.0,-0.0,-0.0,-0.0,-0.0,-2.5732,-2.5732,-2.5732,-2.5732,-2.5421,-2.3285,-2.2055,-2.1355,-1.9902,-1.8464,-1.7806,-1.7589,-1.7589,-1.7589,-1.7589,-1.7589,-1.7589,-1.7589,-1.7589,-1.7589,-1.7589,-1.7589,-1.7589,-1.7589,-1.7589,-1.7589,-1.7589,-1.7589,-1.7589,-1.7589,-1.7589,-1.7595,-1.743,-1.648,-1.4305,-1.0774,-0.8841,-0.8755,-0.8731,-0.8628,-0.8645,-0.8659,-0.8669,-0.8676,-0.8621,-0.8604,-0.8608,-0.8431,-0.8418,-0.852,-0.8523,-0.8625,-0.873,-0.8622,-0.8503,-0.8387,-0.8492,-0.8482,-0.8482,-0.8482,-0.8391,-0.8342,-0.8375,-0.8621,-0.8752,-0.8749,-0.8745,-0.8669,-0.872,-0.871,-0.8618,-0.8625,-0.8598,-0.8591,-0.8577,-0.8581,-0.8577,-0.8672,-0.8733,-0.8774,-0.8777,-0.8832,-0.8916,-0.8937,-0.8937,-0.8937,-0.895,-0.8964,-0.8298,-0.5819,-0.0,-0.0,-0.0,-0.0,-0.0,-0.0,-0.0,-0.0,-0.0,-0.0,-0.0,-0.2687,-0.0,-0.0,-0.0,-0.0,-0.0,-0.0,-0.0,-0.0,-0.0,-0.0,-0.0,-0.0,-0.0,-2.5732,-2.5732,-2.5732,-2.543,-2.4707,-2.2659,-2.1237,-2.0135,-1.8401,-1.7589,-1.7589,-1.7589,-1.7589,-1.7589,-1.7589,-1.7589,-1.7589,-1.7589,-1.7589,-1.7589,-1.7589,-1.7589,-1.7589,-1.7589,-1.7589,-1.7589,-1.7589,-1.7589,-1.7589,-1.7589,-1.7259,-1.6974,-1.731,-1.6769,-1.4325,-1.1639,-0.8862,-0.8817,-0.8726,-0.8706,-0.8699,-0.8682,-0.8672,-0.8679,-0.8669,-0.8665,-0.8648,-0.8745,-0.8745,-0.8852,-0.8959,-0.8962,-0.8855,-0.8749,-0.8642,-0.8642,-0.8642,-0.8648,-0.8659,-0.8662,-0.8575,-0.8464,-0.8491,-0.8594,-0.8845,-0.8925,-0.8807,-0.8686,-0.8628,-0.8635,-0.8638,-0.8621,-0.8618,-0.8625,-0.8632,-0.8645,-0.8669,-0.8774,-0.8794,-0.8828,-0.8842,-0.8903,-0.8937,-0.8937,-0.8937,-0.8937,-0.894,-0.8954,-0.8856,-0.6937,-0.4806,-0.0,-0.0,-0.0,-0.0,-0.0,-0.0,-0.0,-0.5616,-0.8683,-0.8227,-0.5725,-0.3022,-0.0,-0.0,-0.0,-0.0,-0.0,-0.0,-0.0,-0.0,-0.0,-0.0,-0.0,-0.0,-2.5732,-2.5732,-2.5732,-2.4913,-2.3592,-2.2291,-2.0246,-1.7793,-1.7687,-1.7589,-1.7589,-1.7589,-1.7589,-1.7589,-1.7589,-1.7589,-1.7589,-1.7589,-1.7589,-1.7589,-1.7589,-1.7589,-1.7589,-1.7589,-1.7589,-1.7589,-1.7589,-1.7589,-1.7589,-1.7589,-1.6935,-1.6211,-1.6542,-1.627,-1.4575,-1.1742,-0.9275,-0.8838,-0.8849,-0.8838,-0.8838,-0.8872,-0.8855,-0.8852,-0.8855,-0.8859,-0.8859,-0.8866,-0.8879,-0.8889,-0.8903,-0.8913,-0.8923,-0.8933,-0.8933,-0.8923,-0.8906,-0.8889,-0.8876,-0.8866,-0.8872,-0.8722,-0.8665,-0.8709,-0.8845,-0.8961,-0.8835,-0.8842,-0.8835,-0.8872,-0.8896,-0.8882,-0.8872,-0.8876,-0.8876,-0.8882,-0.8886,-0.891,-0.891,-0.8916,-0.8913,-0.8937,-0.8937,-0.8937,-0.8937,-0.8937,-0.894,-0.8947,-0.896,-0.886,-0.694,-0.0,-0.0,-0.0,-0.0,-0.0,-0.0,-0.0,-0.64,-0.8907,-0.8565,-0.8106,-0.5491,-0.2908,-0.0784,-0.0,-0.0,-0.0,-0.0,-0.0,-0.0,-0.0,-0.0,-0.0,-0.0,-2.5732,-2.5732,-2.5732,-2.4913,-2.361,-2.2257,-2.0081,-1.7799,-1.7589,-1.7589,-1.7589,-1.7589,-1.7589,-1.7589,-1.7589,-1.7589,-1.7589,-1.7589,-1.7589,-1.7589,-1.7589,-1.7589,-1.7589,-1.7589,-1.7589,-1.7589,-1.7589,-1.7589,-1.7589,-1.7589,-1.7582,-1.7173,-1.5922,-1.5325,-1.3428,-1.0845,-0.9556,-0.892,-0.8937,-0.8937,-0.8937,-0.8937,-0.8937,-0.8937,-0.8937,-0.8937,-0.8937,-0.8937,-0.8937,-0.8937,-0.8937,-0.8937,-0.8937,-0.8937,-0.8937,-0.8937,-0.8933,-0.8933,-0.8937,-0.8937,-0.8937,-0.8937,-0.8773,-0.8783,-0.8927,-0.8937,-0.8937,-0.8937,-0.8937,-0.8937,-0.8937,-0.8937,-0.8937,-0.8937,-0.8937,-0.8937,-0.8937,-0.8937,-0.8937,-0.8937,-0.8937,-0.8937,-0.8937,-0.8937,-0.8937,-0.8937,-0.894,-0.8944,-0.895,-0.8964,-0.8628,-0.716,-0.6715,-0.5815,-0.5596,-0.0,-0.0,-0.5148,-0.741,-0.8778,-0.8431,-0.7859,-0.6951,-0.5148,-0.2684,-0.0,-0.0,-0.0,-0.0,-0.0,-0.0,-0.0,-0.0,-0.0,-0.0,-2.5333,-2.4922,-2.4913,-2.38,-2.1988,-2.0592,-1.9024,-1.7694,-1.7589,-1.7589,-1.7589,-1.7589,-1.7589,-1.7589,-1.7589,-1.7589,-1.7589,-1.7589,-1.7589,-1.7589,-1.7589,-1.7589,-1.7589,-1.7589,-1.7589,-1.7589,-1.7589,-1.7589,-1.7589,-1.7477,-1.747,-1.6505,-1.5079,-1.3567,-1.1715,-0.9866,-0.9237,-0.8923,-0.8937,-0.8937,-0.8937,-0.8937,-0.8937,-0.8937,-0.8937,-0.8937,-0.8937,-0.8937,-0.8937,-0.8937,-0.8937,-0.8937,-0.8937,-0.8937,-0.8937,-0.8937,-0.8937,-0.8937,-0.8937,-0.8937,-0.8937,-0.8937,-0.8937,-0.8933,-0.8933,-0.8937,-0.8937,-0.8937,-0.8937,-0.8937,-0.8937,-0.8937,-0.8937,-0.8937,-0.8937,-0.8937,-0.8937,-0.8937,-0.8937,-0.8937,-0.8937,-0.8937,-0.8937,-0.8937,-0.8937,-0.8937,-0.8937,-0.894,-0.8944,-0.895,-0.8954,-0.8273,-0.8285,-0.8177,-0.7961,-0.7399,-0.6943,-0.6715,-0.7736,-0.8647,-0.8409,-0.8187,-0.7736,-0.6267,-0.4359,-0.0,-0.0,-0.0,-0.0,-0.0,-0.0,-0.0,-0.0,-0.0,-0.0,-2.466,-2.3529,-2.3375,-2.1963,-1.9635,-1.8415,-1.7694,-1.7589,-1.7589,-1.7589,-1.7589,-1.7589,-1.7589,-1.7589,-1.7589,-1.7589,-1.7589,-1.7589,-1.7589,-1.7589,-1.7589,-1.7589,-1.7589,-1.7589,-1.7589,-1.7589,-1.7589,-1.7589,-1.7589,-1.7582,-1.7041,-1.5648,-1.6687,-1.5132,-1.1163,-0.9541,-0.8906,-0.893,-0.8937,-0.8937,-0.8937,-0.8937,-0.8937,-0.8937,-0.8937,-0.8937,-0.8937,-0.8937,-0.8937,-0.8937,-0.8937,-0.8937,-0.8937,-0.8937,-0.8937,-0.8937,-0.8937,-0.8937,-0.8937,-0.8937,-0.8937,-0.8937,-0.8937,-0.8937,-0.8937,-0.8937,-0.8937,-0.8937,-0.8937,-0.8937,-0.8937,-0.8937,-0.8937,-0.8937,-0.8937,-0.8937,-0.8937,-0.8937,-0.8937,-0.8937,-0.8937,-0.8937,-0.8937,-0.8937,-0.8937,-0.8937,-0.8937,-0.8937,-0.894,-0.894,-0.894,-0.894,-0.895,-0.896,-0.8735,-0.8399,-0.8517,-0.8742,-0.886,-0.8517,-0.8171,-0.8513,-0.8866,-0.7504,-0.6038,-0.4246,-0.0,-0.0,-0.0,-0.0,-0.0,-0.0,-0.0,-0.0,-0.0,-2.293,-2.1759,-2.0937,-2.0135,-1.942,-1.8199,-1.7582,-1.7589,-1.7589,-1.7589,-1.7589,-1.7589,-1.7589,-1.7589,-1.7589,-1.7589,-1.7589,-1.7589,-1.7589,-1.7589,-1.7589,-1.7589,-1.7589,-1.7589,-1.7589,-1.7589,-1.7589,-1.7589,-1.7589,-1.7582,-1.7483,-1.706,-1.7562,-1.5337,-1.2375,-1.0643,-0.8896,-0.8923,-0.8937,-0.8937,-0.8937,-0.8937,-0.8937,-0.8937,-0.8937,-0.8937,-0.8937,-0.8937,-0.8937,-0.8937,-0.8937,-0.8937,-0.8937,-0.8937,-0.8937,-0.8937,-0.8937,-0.8937,-0.8937,-0.8937,-0.8937,-0.8937,-0.8937,-0.8937,-0.8937,-0.8937,-0.8937,-0.8937,-0.8937,-0.8937,-0.8937,-0.8937,-0.8937,-0.8937,-0.8937,-0.8937,-0.8937,-0.8937,-0.8937,-0.8937,-0.8937,-0.8937,-0.8937,-0.8937,-0.8937,-0.8937,-0.8937,-0.8937,-0.8937,-0.894,-0.894,-0.894,-0.894,-0.8944,-0.8947,-0.895,-0.8954,-0.8957,-0.885,-0.8504,-0.8156,-0.8501,-0.885,-0.886,-0.7841,-0.6262,-0.514,-0.0,-0.0,-0.0,-0.0,-0.0,-0.0,-0.0,-0.0,-2.1256,-2.0008,-1.8809,-1.838,-1.8391,-1.7811,-1.758,-1.7575,-1.7589,-1.7589,-1.7589,-1.7589,-1.7589,-1.7589,-1.7589,-1.7589,-1.7589,-1.7589,-1.7589,-1.7589,-1.7589,-1.7589,-1.7589,-1.7589,-1.7589,-1.7589,-1.7589,-1.7589,-1.7589,-1.7589,-1.7589,-1.7615,-1.741,-1.6693,-1.4407,-1.1516,-0.8989,-0.8893,-0.8923,-0.8937,-0.8937,-0.8937,-0.8937,-0.8937,-0.8937,-0.8937,-0.8937,-0.8937,-0.8937,-0.8937,-0.8937,-0.8937,-0.8937,-0.8937,-0.8937,-0.8937,-0.8937,-0.8937,-0.8937,-0.8937,-0.8937,-0.8937,-0.8937,-0.8937,-0.8937,-0.8937,-0.8937,-0.8937,-0.8937,-0.8937,-0.8937,-0.8937,-0.8937,-0.8937,-0.8937,-0.8937,-0.8937,-0.8937,-0.8937,-0.8937,-0.8937,-0.8937,-0.8937,-0.8937,-0.8937,-0.8937,-0.8937,-0.8937,-0.8937,-0.8937,-0.8937,-0.8937,-0.8937,-0.8937,-0.894,-0.8944,-0.894,-0.8947,-0.895,-0.8722,-0.8491,-0.8716,-0.8944,-0.8843,-0.885,-0.8513,-0.7613,-0.6715,-0.6614,-0.0,-0.0,-0.0,-0.0,-0.0,-0.0,-1.9668,-1.8353,-1.7207,-1.6854,-1.717,-1.7429,-1.7599,-1.76,-1.7634,-1.766,-1.7589,-1.7589,-1.7589,-1.7589,-1.7589,-1.7589,-1.7589,-1.7589,-1.7589,-1.7589,-1.7589,-1.7589,-1.7589,-1.7589,-1.7589,-1.7589,-1.7589,-1.7589,-1.7589,-1.7589,-1.7602,-1.7635,-1.7523,-1.7313,-1.5576,-1.2772,-0.9677,-0.9116,-0.8913,-0.8933,-0.8937,-0.8937,-0.8937,-0.8937,-0.8937,-0.8937,-0.8937,-0.8937,-0.8937,-0.8937,-0.8937,-0.8937,-0.8937,-0.8937,-0.8937,-0.8937,-0.8937,-0.8937,-0.8937,-0.8937,-0.8937,-0.8937,-0.8937,-0.8937,-0.8937,-0.8937,-0.8937,-0.8937,-0.8937,-0.8937,-0.8937,-0.8937,-0.8937,-0.8937,-0.8937,-0.8937,-0.8937,-0.8937,-0.8937,-0.8937,-0.8937,-0.8937,-0.8937,-0.8937,-0.8937,-0.8937,-0.8937,-0.8937,-0.8937,-0.8937,-0.8937,-0.8937,-0.8937,-0.8937,-0.8937,-0.8937,-0.8937,-0.894,-0.8944,-0.894,-0.8937,-0.8937,-0.8937,-0.8937,-0.8947,-0.8954,-0.896,-0.8171,-0.8304,-0.8097,-0.0,-0.0,-0.0,-0.0,-0.0,-1.8028,-1.7093,-1.68,-1.6734,-1.6794,-1.7015,-1.7299,-1.7551,-1.7585,-1.759,-1.7634,-1.7582,-1.7589,-1.7589,-1.7589,-1.7589,-1.7589,-1.7589,-1.7589,-1.7589,-1.7589,-1.7589,-1.7589,-1.7589,-1.7589,-1.7589,-1.7589,-1.7589,-1.7589,-1.7589,-1.7589,-1.7602,-1.7609,-1.658,-1.4283,-1.2073,-1.1202,-1.021,-0.924,-0.9154,-0.9047,-0.8937,-0.8937,-0.8937,-0.8937,-0.8937,-0.8937,-0.8937,-0.8937,-0.8937,-0.8937,-0.8937,-0.8937,-0.8937,-0.8937,-0.8937,-0.8937,-0.8937,-0.8937,-0.8937,-0.8937,-0.8937,-0.8937,-0.8937,-0.8937,-0.8937,-0.8937,-0.8937,-0.8937,-0.8937,-0.8937,-0.8937,-0.8937,-0.8937,-0.8937,-0.8937,-0.8937,-0.8937,-0.8937,-0.8937,-0.8937,-0.8937,-0.8937,-0.8937,-0.8937,-0.8937,-0.8937,-0.8937,-0.8937,-0.8937,-0.8937,-0.8937,-0.8937,-0.8937,-0.8937,-0.8937,-0.8937,-0.8937,-0.8937,-0.8937,-0.8937,-0.8937,-0.8937,-0.8937,-0.8937,-0.8944,-0.8947,-0.8954,-0.8853,-0.8301,-0.6044,-0.0,-0.0,-0.0,-0.0]},{"header":{"parameterUnit":"m.s-1","parameterCategory":1,"la1":31.0,"la2":29.5877,"lo1":-88.7671,"lo2":-86.6584,"dy":0.0162,"dx":0.0185,"nx":115,"ny":88,"refTime":"2023-07-04T06:00:00:Z","depth":0,"parameterNumber":3,"parameterNumberName":"V-component_of_WINDS"},"data":[0.0,0.0,0.0,0.0,0.0,0.0,0.0,0.0,0.0,0.0,0.0,0.0,0.0,0.0,0.0,0.0,0.0,0.0,0.0,0.0,0.0,0.0,0.0,0.0,0.0,0.0,0.0,0.0,0.0,0.0,0.0,0.0,0.0,0.0,0.0,0.0,0.0,0.0,0.0,0.0,0.0,0.0,0.0,0.0,0.0,0.0,0.0,0.0,0.0,0.0,0.0,0.0,0.0,0.0,0.0,0.0,0.0,0.0,0.0,0.0,0.0,0.0,0.0,0.0,0.0,0.0,0.0,0.0,0.0,0.0,0.0,0.0,0.0,0.0,0.0,0.0,0.0,0.0,0.0,0.0,0.0,0.0,0.0,0.0,0.0,0.0,0.0,0.0,0.0,0.0,0.0,0.0,0.0,0.0,0.0,0.0,0.0,0.0,0.0,0.0,0.0,0.0,0.0,0.0,0.0,0.0,0.0,0.0,0.0,0.0,0.0,0.0,0.0,0.0,0.0,0.0,0.0,0.0,0.0,0.0,0.0,0.0,0.0,0.0,0.0,0.0,0.0,0.0,0.0,0.0,0.0,0.0,0.0,0.0,0.0,0.0,0.0,0.0,0.0,0.0,0.0,0.0,0.0,0.0,0.0,0.0,0.0,0.0,0.0,0.0,0.0,0.0,0.0,0.0,0.0,0.0,0.0,0.0,0.0,0.0,0.0,0.0,0.0,0.0,0.0,0.0,0.0,0.0,0.0,0.0,0.0,0.0,0.0,0.0,0.0,0.0,0.0,0.0,0.0,0.0,0.0,0.0,0.0,0.0,0.0,0.0,0.0,0.0,0.0,0.0,0.0,0.0,0.0,0.0,0.0,0.0,0.0,0.0,0.0,0.0,0.0,0.0,0.0,0.0,0.0,0.0,0.0,0.0,0.0,0.0,0.0,0.0,0.0,0.0,0.0,0.0,0.0,0.0,0.0,0.0,0.0,0.0,0.0,0.0,0.0,0.0,0.0,0.0,0.0,0.0,0.0,0.0,0.0,0.0,0.0,0.0,0.0,0.0,0.0,0.0,0.0,0.0,0.0,0.0,0.0,0.0,0.0,0.0,0.0,0.0,0.0,0.0,0.0,0.0,0.0,0.0,0.0,0.0,0.0,0.0,0.0,0.0,0.0,0.0,0.0,0.0,0.0,0.0,0.0,0.0,0.0,0.0,0.0,0.0,0.0,0.0,0.0,0.0,0.0,0.0,0.0,0.0,0.0,0.0,0.0,0.0,0.0,0.0,0.0,0.0,0.0,0.0,0.0,0.0,0.0,0.0,0.0,0.0,0.0,0.0,0.0,0.0,0.0,0.0,0.0,0.0,0.0,0.0,0.0,0.0,0.0,0.0,0.0,0.0,0.0,0.0,0.0,0.0,0.0,0.0,0.0,0.0,0.0,0.0,0.0,0.0,0.0,0.0,0.0,0.0,0.0,0.0,0.0,0.0,0.0,0.0,0.0,0.0,0.0,0.0,0.0,0.0,0.0,0.0,0.0,0.0,0.0,0.0,0.0,0.0,0.0,0.0,0.0,0.0,0.0,0.0,0.0,0.0,0.0,0.0,0.0,0.0,0.0,0.0,0.0,0.0,0.0,0.0,0.0,0.0,0.0,0.0,0.0,0.0,0.0,0.0,0.0,0.0,0.0,0.0,0.0,0.0,0.0,0.0,0.0,0.0,0.0,0.0,0.0,0.0,0.0,0.0,0.0,0.0,0.0,0.0,0.0,0.0,0.0,0.0,0.0,0.0,0.0,0.0,0.0,0.0,0.0,0.0,0.0,0.0,0.0,0.0,0.0,0.0,0.0,0.0,0.0,0.0,0.0,0.0,0.0,0.0,0.0,0.0,0.0,0.0,0.0,0.0,0.0,0.0,0.0,0.0,0.0,0.0,0.0,0.0,0.0,0.0,0.0,0.0,0.0,0.0,0.0,0.0,0.0,0.0,0.0,0.0,0.0,0.0,0.0,0.0,0.0,0.0,0.0,0.0,0.0,0.0,0.0,0.0,0.0,0.0,0.0,0.0,0.0,0.0,0.0,0.0,0.0,0.0,0.0,0.0,0.0,0.0,0.0,0.0,0.0,0.0,0.0,0.0,0.0,0.0,0.0,0.0,0.0,0.0,0.0,0.0,0.0,0.0,0.0,0.0,0.0,0.0,0.0,0.0,0.0,0.0,0.0,0.0,0.0,0.0,0.0,0.0,0.0,0.0,0.0,0.0,0.0,0.0,0.0,0.0,0.0,0.0,0.0,0.0,0.0,0.0,0.0,0.0,0.0,0.0,0.0,0.0,0.0,0.0,0.0,0.0,0.0,0.0,0.0,0.0,0.0,0.0,0.0,0.0,0.0,0.0,0.0,0.0,0.0,0.0,0.0,0.0,0.0,0.0,0.0,0.0,0.0,0.0,0.0,0.0,0.0,0.0,0.0,0.0,0.0,0.0,0.0,0.0,0.0,0.0,0.0,0.0,0.0,0.0,0.0,0.0,0.0,0.0,0.0,0.0,0.0,0.0,0.0,0.0,0.0,0.0,0.0,0.0,0.0,0.0,0.0,0.0,0.0,0.0,0.0,0.0,0.0,0.0,0.0,0.0,0.0,0.0,0.0,0.0,0.0,0.0,0.0,0.0,0.0,0.0,0.0,0.0,0.0,0.0,0.0,0.0,0.0,0.0,0.0,0.0,0.0,0.0,0.0,0.0,0.0,0.0,0.0,0.0,0.0,0.0,0.0,0.0,0.0,0.0,0.0,0.0,0.0,0.0,0.0,0.0,0.0,0.0,0.0,0.0,0.0,0.0,0.0,0.0,0.0,0.0,0.0,0.0,0.0,0.0,0.0,0.0,0.0,0.0,0.0,0.0,0.0,0.0,0.0,0.0,0.0,0.0,0.0,0.0,0.0,0.0,0.0,0.0,0.0,0.0,0.0,0.0,0.0,0.0,0.0,0.0,0.0,0.0,0.0,0.0,0.0,0.0,0.0,0.0,0.0,0.0,0.0,0.0,0.0,0.0,0.0,0.0,0.0,0.0,0.0,0.0,0.0,0.0,0.0,0.0,0.0,0.0,0.0,0.0,0.0,0.0,0.0,0.0,0.0,0.0,0.0,0.0,0.0,0.0,0.0,0.0,0.0,0.0,0.0,0.0,0.0,0.0,0.0,0.0,0.0,0.0,0.0,0.0,0.0,0.0,0.0,0.0,0.0,0.0,0.0,0.0,0.0,0.0,0.0,0.0,0.0,0.0,0.0,0.0,0.0,0.0,0.0,0.0,0.0,0.0,0.0,0.0,0.0,0.0,0.0,0.0,0.0,0.0,0.0,0.0,0.0,0.0,0.0,0.0,0.0,0.0,0.0,0.0,0.0,0.0,0.0,0.0,0.0,0.0,0.0,0.0,0.0,0.0,0.0,0.0,0.0,0.0,0.0,0.0,0.0,0.0,0.0,0.0,0.0,0.0,0.0,0.0,0.0,0.0,0.0,0.0,0.0,0.0,0.0,0.0,0.0,0.0,0.0,0.0,0.0,0.0,0.0,0.0,0.0,0.0,0.0,0.0,0.0,0.0,0.0,0.0,0.0,0.0,0.0,0.0,0.0,0.0,0.0,0.0,0.0,0.0,0.0,0.0,0.0,0.0,0.0,0.0,0.0,0.0,0.0,0.0,0.0,0.0,0.0,0.0,0.0,0.0,0.0,0.0,0.0,0.0,0.0,0.0,0.0,0.0,0.0,0.0,0.0,0.0,0.0,0.0,0.0,0.0,0.0,0.0,0.0,0.0,0.0,0.0,0.0,0.0,0.0,0.0,0.0,0.0,0.0,0.0,0.0,0.0,0.0,0.0,0.0,0.0,0.0,0.0,0.0,0.0,0.0,0.0,0.0,0.0,0.0,0.0,0.0,0.0,0.0,0.0,0.0,0.0,0.0,0.0,0.0,0.0,0.0,0.0,0.0,0.0,0.0,0.0,0.0,0.0,0.0,0.0,0.0,0.0,0.0,0.0,0.0,0.0,0.0,0.0,0.0,0.0,0.0,0.0,0.0,0.0,0.0,0.0,0.0,0.0,0.0,0.0,0.0,0.0,0.0,0.0,0.0,0.0,0.0,0.0,0.0,0.0,0.0,0.0,0.0,0.0,0.0,0.0,0.0,0.0,0.0,0.0,0.0,0.0,0.0,0.0,0.0,0.0,0.0,0.0,0.0,0.0,0.0,0.0,0.0,0.0,0.0,0.0,0.0,0.0,0.0,0.0,0.0,0.0,-3.0885,0.0,0.0,0.0,0.0,0.0,0.0,0.0,0.0,0.0,0.0,0.0,0.0,0.0,0.0,0.0,0.0,0.0,0.0,0.0,0.0,0.0,0.0,0.0,0.0,0.0,0.0,0.0,0.0,0.0,0.0,0.0,0.0,0.0,0.0,0.0,0.0,0.0,0.0,0.0,0.0,0.0,0.0,0.0,0.0,0.0,0.0,0.0,0.0,0.0,0.0,0.0,0.0,0.0,0.0,0.0,0.0,0.0,0.0,0.0,0.0,0.0,0.0,0.0,0.0,0.0,0.0,0.0,0.0,0.0,0.0,0.0,0.0,0.0,0.0,0.0,0.0,0.0,0.0,0.0,0.0,0.0,0.0,0.0,0.0,0.0,0.0,0.0,0.0,0.0,0.0,0.0,0.0,0.0,0.0,0.0,0.0,0.0,0.0,0.0,0.0,0.0,0.0,0.0,0.0,0.0,0.0,0.0,0.0,0.0,0.0,-3.1403,-3.1403,-3.1258,-3.1232,-3.1384,0.0,0.0,0.0,0.0,0.0,0.0,0.0,0.0,0.0,0.0,0.0,0.0,0.0,0.0,0.0,0.0,0.0,0.0,0.0,0.0,0.0,0.0,0.0,0.0,0.0,0.0,0.0,0.0,0.0,0.0,0.0,0.0,0.0,0.0,0.0,0.0,0.0,0.0,0.0,0.0,0.0,0.0,0.0,0.0,0.0,0.0,0.0,0.0,0.0,0.0,0.0,0.0,0.0,0.0,0.0,0.0,0.0,0.0,0.0,0.0,0.0,0.0,0.0,0.0,0.0,0.0,0.0,0.0,0.0,0.0,0.0,0.0,0.0,0.0,0.0,0.0,0.0,0.0,0.0,0.0,0.0,0.0,0.0,0.0,0.0,0.0,0.0,0.0,0.0,0.0,0.0,0.0,0.0,0.0,0.0,0.0,0.0,0.0,0.0,0.0,0.0,0.0,0.0,0.0,0.0,0.0,0.0,0.0,0.0,0.0,0.0,0.0,-3.1935,-3.1843,-3.1671,0.0,0.0,0.0,0.0,0.0,0.0,0.0,0.0,0.0,0.0,0.0,0.0,0.0,0.0,0.0,0.0,0.0,0.0,0.0,0.0,0.0,0.0,0.0,0.0,0.0,0.0,0.0,0.0,0.0,0.0,0.0,0.0,0.0,0.0,0.0,0.0,0.0,0.0,0.0,0.0,0.0,0.0,0.0,0.0,0.0,0.0,0.0,0.0,0.0,0.0,0.0,0.0,0.0,0.0,0.0,0.0,0.0,0.0,0.0,0.0,0.0,0.0,0.0,0.0,0.0,0.0,0.0,0.0,0.0,0.0,0.0,0.0,0.0,0.0,0.0,0.0,0.0,0.0,0.0,0.0,0.0,0.0,0.0,0.0,0.0,0.0,0.0,0.0,0.0,0.0,0.0,0.0,0.0,0.0,0.0,0.0,0.0,0.0,0.0,0.0,0.0,0.0,0.0,0.0,0.0,0.0,0.0,0.0,0.0,0.0,-3.3587,-3.3587,-3.3568,0.0,-3.2556,0.0,0.0,0.0,0.0,0.0,0.0,0.0,0.0,0.0,0.0,0.0,0.0,0.0,0.0,0.0,0.0,0.0,0.0,0.0,0.0,0.0,0.0,0.0,0.0,0.0,0.0,0.0,0.0,0.0,0.0,0.0,0.0,0.0,0.0,0.0,0.0,0.0,0.0,0.0,0.0,0.0,0.0,0.0,0.0,0.0,0.0,0.0,0.0,0.0,0.0,0.0,0.0,0.0,0.0,0.0,0.0,0.0,0.0,0.0,0.0,0.0,0.0,0.0,0.0,0.0,0.0,0.0,0.0,0.0,0.0,0.0,0.0,0.0,0.0,0.0,0.0,0.0,0.0,0.0,0.0,0.0,0.0,0.0,0.0,0.0,0.0,0.0,0.0,0.0,0.0,0.0,0.0,0.0,0.0,0.0,0.0,0.0,0.0,0.0,0.0,0.0,0.0,0.0,0.0,0.0,0.0,0.0,0.0,0.0,0.0,-3.3807,-3.3807,-3.3807,-3.3633,0.0,0.0,0.0,0.0,0.0,0.0,0.0,0.0,0.0,0.0,0.0,0.0,0.0,0.0,0.0,0.0,0.0,0.0,0.0,0.0,0.0,0.0,0.0,0.0,0.0,0.0,0.0,0.0,0.0,0.0,0.0,0.0,0.0,0.0,0.0,0.0,0.0,0.0,0.0,0.0,0.0,0.0,0.0,0.0,0.0,0.0,0.0,0.0,0.0,0.0,0.0,0.0,0.0,0.0,0.0,0.0,0.0,0.0,0.0,0.0,0.0,0.0,0.0,0.0,0.0,0.0,0.0,0.0,0.0,0.0,0.0,0.0,0.0,0.0,0.0,0.0,0.0,0.0,0.0,0.0,0.0,0.0,0.0,0.0,0.0,0.0,0.0,0.0,0.0,0.0,0.0,0.0,0.0,0.0,0.0,0.0,0.0,0.0,0.0,0.0,0.0,0.0,0.0,0.0,0.0,0.0,0.0,0.0,0.0,0.0,-3.3807,-3.3807,-3.3807,-3.3807,-3.3807,-3.3807,0.0,0.0,0.0,0.0,0.0,0.0,0.0,0.0,0.0,0.0,0.0,0.0,0.0,0.0,0.0,0.0,0.0,0.0,0.0,0.0,0.0,0.0,0.0,0.0,0.0,0.0,0.0,0.0,0.0,0.0,0.0,0.0,0.0,0.0,0.0,0.0,0.0,0.0,0.0,0.0,0.0,0.0,0.0,0.0,0.0,0.0,0.0,0.0,0.0,0.0,0.0,0.0,0.0,0.0,0.0,0.0,0.0,0.0,0.0,0.0,0.0,0.0,0.0,0.0,0.0,0.0,0.0,0.0,0.0,0.0,0.0,0.0,0.0,0.0,0.0,0.0,0.0,0.0,0.0,0.0,0.0,0.0,0.0,0.0,0.0,0.0,0.0,0.0,0.0,0.0,0.0,0.0,0.0,0.0,0.0,0.0,0.0,0.0,0.0,0.0,0.0,0.0,0.0,0.0,0.0,0.0,0.0,0.0,-3.3807,-3.3807,-3.3807,-3.3834,-3.3807,-3.3807,0.0,0.0,0.0,0.0,0.0,0.0,0.0,0.0,0.0,0.0,0.0,0.0,0.0,0.0,0.0,0.0,0.0,0.0,0.0,0.0,0.0,0.0,0.0,0.0,0.0,0.0,0.0,0.0,0.0,0.0,0.0,0.0,0.0,0.0,0.0,0.0,0.0,0.0,0.0,0.0,0.0,0.0,0.0,0.0,0.0,0.0,0.0,0.0,0.0,0.0,0.0,0.0,0.0,0.0,0.0,0.0,0.0,0.0,0.0,0.0,0.0,0.0,0.0,0.0,0.0,0.0,0.0,0.0,0.0,0.0,0.0,0.0,0.0,0.0,0.0,0.0,0.0,0.0,0.0,0.0,0.0,0.0,0.0,0.0,0.0,0.0,0.0,0.0,0.0,0.0,0.0,0.0,0.0,0.0,0.0,0.0,0.0,0.0,0.0,0.0,0.0,0.0,0.0,0.0,0.0,0.0,0.0,0.0,0.0,-3.4049,-3.4049,-3.4068,-3.4043,-3.3921,-3.3807,0.0,0.0,0.0,0.0,0.0,0.0,0.0,0.0,0.0,0.0,0.0,0.0,0.0,0.0,0.0,0.0,0.0,0.0,0.0,0.0,0.0,0.0,0.0,0.0,0.0,0.0,0.0,0.0,0.0,0.0,0.0,0.0,0.0,0.0,0.0,0.0,0.0,0.0,0.0,0.0,0.0,0.0,0.0,0.0,0.0,0.0,0.0,0.0,0.0,0.0,0.0,0.0,0.0,0.0,0.0,0.0,0.0,0.0,0.0,0.0,0.0,0.0,0.0,0.0,0.0,0.0,0.0,0.0,0.0,0.0,0.0,0.0,0.0,0.0,0.0,0.0,0.0,0.0,0.0,0.0,0.0,0.0,0.0,0.0,0.0,0.0,0.0,0.0,0.0,0.0,0.0,0.0,0.0,0.0,0.0,0.0,0.0,0.0,0.0,0.0,0.0,0.0,0.0,0.0,0.0,0.0,0.0,0.0,0.0,-3.42,0.0,-3.4068,-3.4049,-3.3902,-3.3807,0.0,0.0,0.0,0.0,0.0,0.0,0.0,0.0,0.0,0.0,0.0,0.0,0.0,0.0,0.0,0.0,0.0,0.0,0.0,0.0,0.0,0.0,0.0,0.0,0.0,0.0,0.0,0.0,0.0,0.0,0.0,0.0,0.0,0.0,0.0,0.0,0.0,0.0,0.0,0.0,0.0,0.0,0.0,0.0,0.0,0.0,0.0,0.0,0.0,0.0,0.0,0.0,0.0,0.0,0.0,0.0,0.0,0.0,0.0,0.0,0.0,0.0,0.0,0.0,0.0,0.0,0.0,0.0,0.0,0.0,0.0,0.0,0.0,0.0,0.0,0.0,0.0,0.0,0.0,0.0,0.0,0.0,0.0,0.0,0.0,0.0,0.0,0.0,0.0,0.0,0.0,0.0,0.0,0.0,0.0,0.0,0.0,0.0,0.0,0.0,0.0,0.0,0.0,0.0,0.0,0.0,0.0,0.0,-3.4607,-3.4279,-3.3979,-3.386,-3.3825,-3.3852,-3.3807,0.0,0.0,0.0,0.0,0.0,0.0,0.0,0.0,0.0,0.0,0.0,0.0,0.0,0.0,0.0,0.0,0.0,0.0,0.0,0.0,0.0,0.0,0.0,0.0,0.0,0.0,0.0,0.0,0.0,0.0,0.0,0.0,0.0,0.0,0.0,0.0,0.0,0.0,0.0,0.0,0.0,0.0,0.0,0.0,0.0,0.0,0.0,0.0,0.0,0.0,0.0,0.0,0.0,0.0,0.0,0.0,0.0,0.0,0.0,0.0,0.0,0.0,0.0,0.0,0.0,0.0,0.0,0.0,0.0,0.0,0.0,0.0,0.0,0.0,0.0,0.0,0.0,0.0,0.0,0.0,0.0,0.0,0.0,0.0,0.0,0.0,0.0,0.0,0.0,0.0,0.0,0.0,0.0,0.0,0.0,0.0,0.0,0.0,0.0,0.0,0.0,0.0,0.0,0.0,0.0,0.0,0.0,0.0,0.0,-3.6442,-3.4918,-3.4371,-3.4927,-3.4215,-3.3807,0.0,0.0,0.0,0.0,0.0,0.0,0.0,0.0,0.0,0.0,0.0,0.0,0.0,0.0,0.0,0.0,0.0,0.0,0.0,0.0,0.0,0.0,0.0,0.0,0.0,0.0,0.0,0.0,0.0,0.0,0.0,0.0,0.0,0.0,0.0,0.0,0.0,0.0,0.0,0.0,0.0,0.0,0.0,0.0,0.0,0.0,0.0,0.0,0.0,0.0,0.0,0.0,0.0,0.0,0.0,0.0,0.0,0.0,0.0,0.0,0.0,0.0,0.0,0.0,0.0,0.0,0.0,0.0,0.0,0.0,0.0,0.0,0.0,0.0,0.0,0.0,0.0,0.0,0.0,0.0,0.0,0.0,0.0,0.0,0.0,0.0,0.0,0.0,0.0,0.0,0.0,0.0,0.0,0.0,0.0,0.0,0.0,0.0,0.0,0.0,0.0,0.0,0.0,0.0,0.0,0.0,0.0,0.0,0.0,-3.8385,-3.6109,-3.5094,-3.5637,-3.486,-3.4271,-3.3981,0.0,0.0,0.0,0.0,0.0,0.0,0.0,0.0,0.0,0.0,0.0,0.0,0.0,0.0,0.0,0.0,0.0,0.0,0.0,0.0,0.0,0.0,0.0,0.0,0.0,0.0,0.0,0.0,0.0,0.0,0.0,0.0,0.0,0.0,0.0,0.0,0.0,0.0,0.0,0.0,0.0,0.0,0.0,0.0,0.0,0.0,0.0,0.0,0.0,0.0,0.0,0.0,0.0,0.0,0.0,0.0,0.0,0.0,0.0,0.0,0.0,0.0,0.0,0.0,0.0,0.0,0.0,0.0,0.0,0.0,0.0,0.0,0.0,0.0,0.0,0.0,0.0,0.0,0.0,0.0,0.0,0.0,0.0,0.0,0.0,0.0,0.0,0.0,0.0,0.0,0.0,0.0,0.0,0.0,0.0,0.0,0.0,0.0,0.0,0.0,0.0,0.0,0.0,0.0,0.0,0.0,0.0,0.0,-4.0101,-3.7469,-3.6075,-3.6052,-3.5726,-3.5168,0.0,0.0,0.0,0.0,0.0,0.0,0.0,0.0,0.0,0.0,0.0,0.0,0.0,0.0,0.0,0.0,0.0,0.0,0.0,0.0,0.0,0.0,0.0,0.0,0.0,0.0,0.0,0.0,0.0,0.0,0.0,0.0,0.0,0.0,0.0,0.0,0.0,0.0,0.0,0.0,0.0,0.0,0.0,0.0,0.0,0.0,0.0,0.0,0.0,0.0,0.0,0.0,0.0,0.0,0.0,0.0,0.0,0.0,0.0,0.0,0.0,0.0,0.0,0.0,0.0,0.0,0.0,0.0,0.0,0.0,0.0,0.0,0.0,0.0,0.0,0.0,0.0,0.0,0.0,0.0,0.0,0.0,0.0,0.0,0.0,0.0,0.0,0.0,0.0,0.0,0.0,0.0,0.0,0.0,0.0,0.0,0.0,0.0,0.0,0.0,0.0,0.0,0.0,0.0,0.0,0.0,0.0,0.0,0.0,-4.0351,-3.9092,-3.808,-3.7392,-3.6727,-3.6189,0.0,0.0,0.0,0.0,0.0,0.0,0.0,0.0,0.0,0.0,0.0,0.0,0.0,0.0,0.0,0.0,0.0,0.0,0.0,0.0,0.0,0.0,0.0,0.0,0.0,0.0,0.0,0.0,0.0,0.0,0.0,0.0,0.0,0.0,0.0,0.0,0.0,0.0,0.0,0.0,0.0,0.0,0.0,0.0,0.0,0.0,0.0,0.0,0.0,0.0,0.0,0.0,0.0,0.0,0.0,0.0,0.0,0.0,0.0,0.0,0.0,0.0,0.0,0.0,0.0,0.0,0.0,0.0,0.0,0.0,0.0,0.0,0.0,0.0,0.0,0.0,0.0,0.0,0.0,0.0,0.0,0.0,0.0,0.0,0.0,0.0,0.0,0.0,0.0,0.0,0.0,0.0,0.0,0.0,0.0,0.0,0.0,0.0,0.0,0.0,0.0,0.0,0.0,0.0,0.0,0.0,0.0,0.0,-4.0489,-4.0489,-4.0027,-3.9505,-3.8836,-3.7887,-3.7143,0.0,0.0,0.0,0.0,0.0,0.0,0.0,0.0,0.0,0.0,0.0,0.0,0.0,0.0,0.0,0.0,0.0,0.0,0.0,0.0,0.0,0.0,0.0,0.0,0.0,0.0,0.0,0.0,0.0,0.0,0.0,0.0,0.0,0.0,0.0,0.0,0.0,0.0,0.0,0.0,0.0,0.0,0.0,0.0,0.0,0.0,0.0,0.0,0.0,0.0,0.0,0.0,0.0,0.0,0.0,0.0,0.0,0.0,0.0,0.0,0.0,0.0,0.0,0.0,0.0,0.0,0.0,0.0,0.0,0.0,0.0,0.0,0.0,0.0,0.0,0.0,0.0,0.0,0.0,0.0,0.0,0.0,0.0,0.0,0.0,0.0,0.0,0.0,0.0,0.0,0.0,0.0,0.0,0.0,0.0,0.0,0.0,0.0,0.0,0.0,0.0,0.0,0.0,0.0,0.0,0.0,0.0,0.0,-4.0489,-4.0489,-4.0489,-4.0392,-4.0081,-3.9015,-3.8093,0.0,0.0,0.0,0.0,0.0,0.0,0.0,0.0,0.0,0.0,0.0,0.0,0.0,0.0,0.0,0.0,0.0,0.0,0.0,0.0,0.0,0.0,0.0,0.0,0.0,0.0,0.0,0.0,0.0,0.0,0.0,0.0,0.0,0.0,0.0,0.0,0.0,0.0,0.0,0.0,0.0,0.0,0.0,0.0,0.0,0.0,0.0,0.0,0.0,0.0,0.0,0.0,0.0,0.0,0.0,0.0,0.0,0.0,0.0,0.0,0.0,0.0,0.0,0.0,0.0,0.0,0.0,0.0,0.0,0.0,0.0,0.0,0.0,0.0,0.0,0.0,0.0,0.0,0.0,0.0,0.0,0.0,0.0,0.0,0.0,0.0,0.0,0.0,0.0,0.0,0.0,0.0,0.0,0.0,0.0,0.0,0.0,0.0,0.0,0.0,0.0,0.0,0.0,0.0,0.0,0.0,0.0,0.0,-4.0489,-4.0489,-4.0489,-4.0372,-4.0101,-3.9605,-3.9246,0.0,0.0,0.0,0.0,0.0,0.0,0.0,0.0,0.0,0.0,0.0,0.0,0.0,0.0,0.0,0.0,0.0,0.0,0.0,0.0,0.0,0.0,0.0,0.0,0.0,0.0,0.0,0.0,0.0,0.0,0.0,0.0,0.0,0.0,0.0,0.0,0.0,0.0,0.0,0.0,0.0,0.0,0.0,0.0,0.0,0.0,0.0,0.0,-3.5661,0.0,0.0,0.0,0.0,0.0,0.0,0.0,0.0,0.0,0.0,0.0,0.0,0.0,0.0,0.0,0.0,0.0,0.0,0.0,0.0,0.0,0.0,0.0,0.0,0.0,0.0,0.0,0.0,0.0,0.0,0.0,0.0,0.0,0.0,0.0,0.0,0.0,0.0,0.0,0.0,0.0,0.0,0.0,0.0,0.0,0.0,0.0,0.0,0.0,0.0,0.0,0.0,0.0,0.0,0.0,0.0,0.0,0.0,0.0,-4.0489,-4.0489,-4.0489,-4.0422,-4.0286,-4.0003,-3.9747,0.0,0.0,0.0,0.0,0.0,0.0,0.0,0.0,0.0,0.0,0.0,0.0,0.0,0.0,0.0,0.0,0.0,0.0,0.0,0.0,0.0,0.0,0.0,0.0,0.0,0.0,0.0,0.0,0.0,0.0,0.0,0.0,0.0,0.0,0.0,0.0,0.0,0.0,0.0,0.0,0.0,0.0,0.0,0.0,0.0,0.0,0.0,0.0,0.0,0.0,0.0,0.0,0.0,0.0,0.0,0.0,0.0,0.0,0.0,0.0,0.0,0.0,0.0,0.0,0.0,0.0,0.0,0.0,0.0,0.0,0.0,0.0,0.0,0.0,0.0,0.0,0.0,0.0,0.0,0.0,0.0,0.0,0.0,0.0,0.0,0.0,0.0,0.0,0.0,0.0,0.0,0.0,0.0,0.0,0.0,0.0,0.0,0.0,0.0,0.0,0.0,0.0,0.0,0.0,0.0,0.0,0.0,-4.0489,-4.0489,-4.0489,-4.0489,-4.0489,-4.0489,-4.0232,-3.9943,-3.9622,0.0,0.0,0.0,0.0,0.0,0.0,0.0,0.0,0.0,0.0,0.0,0.0,0.0,0.0,0.0,0.0,0.0,0.0,0.0,0.0,0.0,0.0,0.0,0.0,0.0,0.0,0.0,0.0,0.0,0.0,0.0,0.0,0.0,0.0,0.0,0.0,0.0,0.0,-3.3972,-3.4688,0.0,0.0,0.0,0.0,0.0,0.0,0.0,0.0,-3.6949,0.0,0.0,0.0,0.0,0.0,0.0,0.0,0.0,0.0,0.0,0.0,0.0,0.0,0.0,0.0,0.0,0.0,0.0,0.0,0.0,0.0,0.0,0.0,0.0,0.0,0.0,0.0,0.0,0.0,0.0,0.0,0.0,0.0,0.0,0.0,0.0,0.0,0.0,0.0,0.0,0.0,0.0,0.0,0.0,0.0,0.0,0.0,0.0,0.0,0.0,0.0,0.0,0.0,0.0,0.0,0.0,-4.0489,-4.0489,-4.0489,-4.0489,-4.0489,-4.0489,-4.0489,-4.0232,-3.9943,-3.9618,0.0,0.0,0.0,0.0,0.0,0.0,0.0,0.0,0.0,0.0,0.0,0.0,0.0,0.0,0.0,0.0,0.0,0.0,0.0,0.0,0.0,0.0,0.0,0.0,0.0,0.0,0.0,0.0,0.0,0.0,0.0,0.0,0.0,0.0,0.0,0.0,0.0,0.0,0.0,-3.555,-3.6083,0.0,0.0,0.0,0.0,0.0,0.0,0.0,0.0,-3.9157,0.0,0.0,0.0,0.0,0.0,0.0,0.0,0.0,0.0,0.0,0.0,0.0,0.0,0.0,0.0,0.0,0.0,0.0,0.0,0.0,0.0,0.0,0.0,0.0,0.0,0.0,0.0,0.0,0.0,0.0,0.0,0.0,0.0,0.0,0.0,0.0,0.0,0.0,0.0,0.0,0.0,0.0,0.0,0.0,0.0,0.0,0.0,0.0,0.0,0.0,0.0,0.0,0.0,0.0,0.0,-4.0489,-4.0489,-4.0489,-4.0489,-4.0489,-4.0489,-4.0489,-4.0232,-4.0041,0.0,0.0,0.0,0.0,0.0,0.0,0.0,0.0,0.0,0.0,0.0,0.0,0.0,0.0,0.0,0.0,0.0,0.0,0.0,0.0,0.0,0.0,0.0,0.0,0.0,0.0,0.0,0.0,0.0,0.0,0.0,0.0,0.0,0.0,0.0,0.0,0.0,0.0,0.0,0.0,-3.6609,-3.7182,-3.7392,0.0,0.0,0.0,0.0,0.0,0.0,-3.9712,-3.9757,0.0,0.0,0.0,0.0,0.0,0.0,0.0,0.0,0.0,0.0,0.0,0.0,0.0,0.0,0.0,0.0,0.0,0.0,0.0,0.0,0.0,0.0,0.0,0.0,0.0,0.0,0.0,0.0,0.0,0.0,0.0,0.0,0.0,0.0,0.0,0.0,0.0,0.0,0.0,0.0,0.0,0.0,0.0,0.0,0.0,0.0,0.0,0.0,0.0,0.0,0.0,0.0,0.0,0.0,0.0,-4.0489,-4.0489,-4.0489,-4.0489,-4.0489,-4.0489,-4.0489,-4.0232,-4.0101,0.0,0.0,0.0,0.0,0.0,0.0,0.0,0.0,0.0,0.0,0.0,0.0,0.0,0.0,0.0,0.0,0.0,0.0,0.0,0.0,0.0,0.0,0.0,0.0,0.0,0.0,0.0,0.0,0.0,0.0,0.0,0.0,0.0,0.0,0.0,0.0,0.0,0.0,0.0,0.0,0.0,-3.8334,-3.8526,-3.9207,0.0,0.0,0.0,0.0,-4.0139,-3.9963,0.0,0.0,0.0,0.0,0.0,0.0,0.0,0.0,0.0,0.0,0.0,0.0,0.0,0.0,0.0,0.0,0.0,0.0,0.0,0.0,0.0,0.0,0.0,0.0,0.0,0.0,0.0,0.0,0.0,0.0,0.0,0.0,0.0,0.0,0.0,0.0,0.0,0.0,0.0,0.0,0.0,0.0,0.0,0.0,0.0,0.0,0.0,0.0,0.0,0.0,0.0,0.0,0.0,0.0,0.0,0.0,-4.0489,-4.0489,-4.0489,-4.0489,-4.0489,-4.0489,-4.0489,-4.0232,-4.0101,0.0,0.0,0.0,0.0,0.0,0.0,0.0,0.0,0.0,0.0,0.0,0.0,0.0,0.0,0.0,0.0,0.0,0.0,0.0,0.0,0.0,0.0,0.0,0.0,0.0,0.0,0.0,0.0,0.0,0.0,0.0,0.0,0.0,0.0,0.0,0.0,0.0,0.0,0.0,0.0,0.0,-3.9306,-3.9055,-3.9611,-4.0061,0.0,0.0,-4.0406,-4.0457,-4.0422,0.0,0.0,0.0,0.0,0.0,0.0,0.0,0.0,0.0,0.0,0.0,0.0,0.0,0.0,0.0,0.0,0.0,0.0,0.0,0.0,0.0,0.0,0.0,0.0,0.0,0.0,0.0,0.0,0.0,0.0,0.0,0.0,0.0,0.0,0.0,0.0,0.0,0.0,0.0,0.0,0.0,0.0,0.0,0.0,0.0,0.0,0.0,0.0,0.0,0.0,0.0,0.0,0.0,0.0,0.0,-4.0489,-4.0489,-4.0489,-4.0489,-4.0489,-4.0489,-4.0489,-4.0489,-4.0043,-3.9901,0.0,0.0,0.0,0.0,0.0,0.0,0.0,0.0,0.0,0.0,0.0,0.0,0.0,0.0,0.0,0.0,0.0,0.0,0.0,0.0,0.0,0.0,0.0,0.0,0.0,0.0,0.0,0.0,0.0,0.0,0.0,0.0,0.0,0.0,0.0,0.0,0.0,0.0,0.0,0.0,0.0,0.0,-3.9645,-4.0043,0.0,0.0,0.0,-4.0489,-4.0489,0.0,0.0,0.0,0.0,0.0,0.0,0.0,0.0,0.0,0.0,0.0,0.0,0.0,0.0,0.0,0.0,0.0,0.0,0.0,0.0,0.0,0.0,0.0,0.0,0.0,0.0,0.0,0.0,0.0,0.0,0.0,0.0,0.0,0.0,0.0,0.0,0.0,0.0,0.0,0.0,0.0,0.0,0.0,0.0,0.0,0.0,0.0,0.0,0.0,0.0,0.0,0.0,0.0,0.0,0.0,0.0,0.0,-4.0489,-4.0489,-4.0489,-4.0489,-4.0489,-4.0489,-4.0489,-4.0063,0.0,0.0,0.0,0.0,0.0,0.0,0.0,0.0,0.0,0.0,0.0,0.0,0.0,0.0,0.0,0.0,0.0,0.0,0.0,0.0,0.0,0.0,0.0,0.0,0.0,0.0,0.0,-3.8707,0.0,0.0,0.0,0.0,0.0,0.0,0.0,0.0,0.0,0.0,0.0,0.0,0.0,0.0,-3.9903,-4.0062,-4.0339,-4.0489,0.0,0.0,-4.0489,-4.0489,-4.0489,-4.0489,0.0,0.0,0.0,0.0,0.0,0.0,0.0,0.0,0.0,0.0,0.0,0.0,0.0,0.0,0.0,0.0,0.0,0.0,0.0,0.0,0.0,0.0,0.0,0.0,0.0,0.0,0.0,0.0,0.0,0.0,0.0,0.0,0.0,0.0,0.0,0.0,0.0,0.0,0.0,0.0,0.0,0.0,0.0,0.0,0.0,0.0,0.0,0.0,0.0,0.0,0.0,0.0,0.0,0.0,0.0,-4.0489,-4.0489,-4.0489,-4.0489,-4.0489,-4.0489,-4.0489,-4.0473,-4.0457,0.0,0.0,0.0,0.0,0.0,0.0,0.0,0.0,0.0,0.0,0.0,0.0,0.0,0.0,0.0,0.0,0.0,0.0,0.0,0.0,0.0,0.0,0.0,0.0,0.0,0.0,0.0,0.0,0.0,0.0,0.0,0.0,0.0,0.0,0.0,0.0,0.0,0.0,0.0,0.0,0.0,-4.0336,-4.0139,-4.0339,-4.0489,0.0,0.0,-4.0489,-4.0489,-4.0489,-4.0489,-4.0489,0.0,0.0,0.0,0.0,0.0,0.0,0.0,0.0,0.0,0.0,0.0,0.0,0.0,0.0,0.0,0.0,0.0,0.0,0.0,0.0,0.0,0.0,0.0,0.0,0.0,0.0,0.0,0.0,0.0,0.0,0.0,0.0,0.0,0.0,0.0,0.0,0.0,0.0,0.0,0.0,0.0,0.0,0.0,0.0,0.0,0.0,0.0,0.0,0.0,0.0,0.0,0.0,0.0,-4.0489,-4.0489,-4.0489,-4.0489,-4.0489,-4.0489,-4.0489,-4.0489,-4.0339,-4.025,0.0,0.0,0.0,0.0,0.0,0.0,0.0,0.0,0.0,0.0,0.0,0.0,0.0,0.0,0.0,0.0,0.0,0.0,0.0,0.0,0.0,0.0,0.0,0.0,0.0,0.0,0.0,0.0,-3.8707,-3.8762,-3.8923,0.0,0.0,0.0,0.0,0.0,0.0,0.0,0.0,0.0,0.0,-4.0233,-4.012,-4.0339,0.0,0.0,-4.0489,-4.0489,-4.0489,-4.0489,-4.0489,-4.0489,-4.0489,0.0,0.0,0.0,0.0,0.0,0.0,0.0,0.0,0.0,0.0,0.0,0.0,0.0,0.0,0.0,0.0,0.0,0.0,0.0,0.0,0.0,0.0,0.0,0.0,0.0,0.0,0.0,0.0,0.0,0.0,0.0,0.0,0.0,0.0,0.0,0.0,0.0,0.0,0.0,0.0,0.0,0.0,0.0,0.0,0.0,0.0,0.0,0.0,0.0,0.0,0.0,0.0,-4.0489,-4.0489,-4.0489,-4.0489,-4.0489,-4.0489,-4.0489,-4.0489,-4.0321,-4.0213,0.0,0.0,0.0,0.0,0.0,0.0,0.0,0.0,0.0,0.0,0.0,0.0,0.0,0.0,0.0,0.0,0.0,0.0,0.0,0.0,0.0,0.0,0.0,0.0,0.0,0.0,0.0,0.0,-3.8931,-3.9036,-3.9231,0.0,0.0,0.0,0.0,0.0,0.0,0.0,0.0,0.0,0.0,-4.0213,-4.0213,-4.0372,-4.0489,-4.0489,-4.0489,-4.0489,-4.0489,-4.0489,-4.0489,-4.0489,0.0,0.0,0.0,0.0,0.0,0.0,0.0,0.0,0.0,0.0,0.0,0.0,0.0,0.0,0.0,0.0,0.0,0.0,0.0,0.0,0.0,0.0,0.0,0.0,0.0,0.0,0.0,0.0,0.0,0.0,0.0,0.0,0.0,0.0,0.0,0.0,0.0,0.0,0.0,0.0,0.0,0.0,0.0,0.0,0.0,0.0,0.0,0.0,0.0,0.0,0.0,0.0,0.0,-4.0489,-4.0489,-4.0489,-4.0489,-4.0489,-4.0489,-4.0489,-4.0489,-4.0489,-4.0489,-4.0469,0.0,0.0,0.0,0.0,0.0,0.0,0.0,0.0,0.0,0.0,0.0,0.0,0.0,0.0,0.0,0.0,0.0,0.0,0.0,0.0,0.0,0.0,0.0,0.0,0.0,0.0,-3.9072,-3.9383,-3.9576,0.0,0.0,0.0,0.0,0.0,0.0,0.0,0.0,0.0,0.0,-4.0508,-4.0508,-4.0489,-4.0489,-4.0489,-4.0489,-4.0489,-4.0489,-4.0489,-4.0489,-4.0489,0.0,0.0,0.0,0.0,0.0,0.0,0.0,0.0,0.0,0.0,0.0,0.0,0.0,0.0,0.0,0.0,0.0,0.0,0.0,0.0,0.0,0.0,0.0,0.0,0.0,0.0,0.0,-4.0489,-4.0489,0.0,0.0,0.0,0.0,0.0,0.0,0.0,0.0,0.0,0.0,0.0,-4.0489,-4.0489,0.0,0.0,0.0,0.0,0.0,0.0,0.0,0.0,0.0,0.0,0.0,0.0,-4.0489,-4.0489,-4.0489,-4.0489,-4.0489,-4.0489,-4.0489,-4.0489,-4.0489,-4.0489,-4.0489,0.0,0.0,0.0,0.0,0.0,0.0,0.0,0.0,0.0,0.0,0.0,0.0,0.0,0.0,0.0,0.0,0.0,0.0,0.0,0.0,0.0,0.0,0.0,0.0,0.0,-3.908,0.0,0.0,0.0,0.0,0.0,0.0,0.0,0.0,0.0,0.0,0.0,-4.0489,-4.0489,-4.0489,-4.0489,-4.0489,-4.0489,-4.0489,0.0,0.0,0.0,0.0,0.0,0.0,0.0,0.0,0.0,0.0,0.0,0.0,0.0,0.0,-4.1764,-4.1156,-4.1135,-4.1191,-4.1191,0.0,0.0,0.0,0.0,0.0,0.0,0.0,0.0,0.0,0.0,0.0,0.0,0.0,0.0,0.0,0.0,-4.0489,0.0,0.0,0.0,0.0,0.0,0.0,0.0,0.0,-4.0489,-4.0489,-4.0489,-4.0489,-4.0489,0.0,-4.0489,-4.0489,0.0,0.0,0.0,0.0,0.0,0.0,0.0,0.0,-4.0489,-4.0489,-4.0489,-4.0489,-4.0489,-4.0489,-4.0489,-4.0489,-4.0489,-4.0392,-4.02,-4.0234,-3.9984,0.0,0.0,0.0,0.0,0.0,0.0,0.0,0.0,0.0,0.0,0.0,0.0,0.0,0.0,0.0,0.0,0.0,0.0,0.0,0.0,0.0,0.0,0.0,-3.9486,0.0,0.0,0.0,0.0,0.0,0.0,0.0,0.0,0.0,-4.0489,-4.0489,-4.0489,-4.0489,-4.0489,-4.0489,-4.0489,0.0,0.0,0.0,0.0,0.0,0.0,0.0,-4.0585,-4.0893,-4.095,-4.1046,-4.1354,-4.1567,-4.1912,-4.2563,0.0,0.0,-4.2053,-4.2017,-4.207,-4.207,-4.25,-4.2832,-4.2851,-4.3301,-4.3711,0.0,0.0,0.0,0.0,0.0,0.0,0.0,0.0,-4.0489,-4.0489,0.0,-4.0489,0.0,0.0,0.0,0.0,0.0,0.0,0.0,0.0,-4.0469,-4.0489,-4.0489,-4.0469,-4.0489,-4.0489,-4.0489,-4.0489,-4.0489,-4.0489,0.0,0.0,0.0,0.0,0.0,0.0,-4.0489,-4.0489,-4.0489,-4.0489,-4.0489,-4.0489,-4.0489,-4.0489,-4.0489,-4.0239,-3.9704,-4.0188,-4.0073,-3.9196,-4.0001,0.0,0.0,0.0,0.0,0.0,0.0,0.0,0.0,0.0,0.0,0.0,0.0,0.0,0.0,0.0,0.0,0.0,0.0,0.0,0.0,-3.9731,0.0,0.0,0.0,0.0,0.0,0.0,0.0,0.0,0.0,0.0,-4.0489,-4.0489,-4.0489,-4.0489,0.0,0.0,0.0,0.0,-4.0489,-4.0489,-4.0527,-4.0546,-4.0546,-4.0585,-4.0873,-4.172,0.0,0.0,-4.2951,-4.3264,-4.3369,-4.3452,-4.3619,-4.375,-4.3789,-4.3652,-4.3613,-4.3633,-4.3672,-4.375,-4.373,-4.3848,-4.3926,-4.0339,0.0,0.0,0.0,0.0,-4.0489,-4.0489,-4.0489,-4.0489,-4.0489,-4.0489,-4.0489,0.0,0.0,0.0,0.0,0.0,0.0,-4.0489,-4.0489,-4.0315,-4.0315,-4.0489,-4.0296,-4.0315,-4.0489,-4.0489,-4.0489,-4.0489,-4.0489,-4.0489,-4.0489,0.0,0.0,0.0,0.0,-4.0489,-4.0489,-4.0489,-4.0489,-4.0489,-4.0489,-4.0489,-4.0489,-4.0489,-4.0412,-4.0258,-4.0215,-3.9977,-3.9501,-3.9948,0.0,0.0,0.0,0.0,0.0,0.0,0.0,0.0,0.0,0.0,0.0,0.0,0.0,0.0,0.0,0.0,0.0,0.0,0.0,-3.984,-4.0157,-4.0339,0.0,0.0,0.0,0.0,0.0,0.0,0.0,0.0,0.0,-4.0489,-4.0489,-4.0489,0.0,0.0,-4.0489,-4.0489,-4.0489,-4.0489,-4.0489,0.0,0.0,0.0,-4.195,-4.245,-4.2736,-4.2871,-4.3063,-4.34,-4.3506,-4.376,-4.4399,-4.4568,-4.4824,-4.5351,-4.4512,-4.3789,-4.373,-4.418,-4.4609,-4.4648,-4.5098,-4.5527,-4.0003,-4.0138,-4.0406,-4.0441,-4.0339,-4.0339,-4.0255,-4.0142,-4.0142,-4.0142,-4.0138,-4.0138,-4.0138,-4.0157,-4.0285,0.0,0.0,0.0,-4.0489,-4.0489,-4.0335,-4.0325,-4.0471,-4.0215,-4.0366,-4.0823,-4.0801,-4.0991,-4.1297,-4.1456,-4.1527,-4.1508,0.0,0.0,-4.0831,-4.1289,-4.154,-4.1527,-4.1527,-4.1527,-4.1527,-4.1527,-4.1527,-4.1527,-4.1527,-4.1485,-4.1347,-4.1302,-4.0919,-4.015,-4.0401,-4.0265,0.0,0.0,0.0,0.0,0.0,0.0,0.0,0.0,0.0,0.0,0.0,-3.985,-4.0109,0.0,0.0,0.0,-4.0347,-4.0286,-4.012,-4.0339,0.0,0.0,0.0,0.0,0.0,0.0,0.0,-4.0489,-4.0489,-4.0489,-4.0489,-4.0489,-4.0489,-4.0489,-4.0489,-4.0604,-4.0969,0.0,-4.1143,-4.147,-4.197,-4.2316,-4.2335,-4.2758,-4.3256,-4.3657,-4.4105,-4.4401,-4.4486,-4.4564,-4.48,-4.5293,-4.5483,-4.5683,-4.6211,-4.541,-4.4726,-4.4746,-4.5137,-4.5488,-4.5508,-4.5957,-4.6289,-3.9552,-3.9622,-4.0194,-4.0285,-4.0061,-4.0042,-3.9889,-3.9602,-3.9602,-3.9605,-3.9628,-3.9604,-3.9609,-3.9622,-3.9922,0.0,0.0,-4.0398,-4.0515,-4.0527,-4.0566,-4.0611,-4.0622,-4.0403,-4.0685,-4.1459,-4.1453,-4.1799,-4.2484,-4.285,-4.3035,-4.2961,-4.2268,-4.1745,-4.1501,-4.2553,-4.3096,-4.3085,-4.3085,-4.3085,-4.3085,-4.3069,-4.3069,-4.3085,-4.3069,-4.2912,-4.2668,-4.288,-4.2411,-4.1155,-4.1243,-4.1026,-4.0307,0.0,0.0,0.0,0.0,0.0,0.0,0.0,0.0,0.0,0.0,0.0,0.0,0.0,0.0,0.0,-4.0133,0.0,-4.012,-4.0356,0.0,0.0,0.0,-4.0489,-4.0489,-4.0489,-4.0489,-4.0489,0.0,0.0,-4.0604,0.0,-4.07,-4.07,-4.0658,-4.0931,-4.1797,-4.1912,-4.22,-4.2874,-4.3143,-4.3201,-4.3201,-4.3355,-4.3753,-4.4508,-4.5347,-4.5827,-4.5866,-4.5949,-4.6078,-4.6081,-4.6215,-4.6289,-4.6289,-4.623,-4.6328,-4.6348,-4.6308,-4.6269,-4.625,-4.6269,-4.6328,-3.9212,-3.9238,-3.9649,-3.9778,-3.9731,-3.9731,-3.9659,-3.961,-3.961,-3.9613,-3.9618,-3.9618,-3.96,-3.9599,-3.9668,-3.9731,-3.975,-4.04,-4.073,-4.0758,-4.1155,-4.1577,-4.1992,-4.1742,-4.1992,-4.2631,-4.2661,-4.2622,-4.2522,-4.2582,-4.2414,-4.202,-4.2621,-4.2864,-4.2701,-4.2967,-4.3104,-4.3092,-4.3092,-4.309,-4.3104,-4.2813,-4.2776,-4.3085,-4.2813,-4.2756,-4.2951,-4.2566,-4.2293,-4.2216,-4.2006,-4.1813,-4.1633,-4.1627,0.0,0.0,0.0,0.0,0.0,0.0,0.0,0.0,0.0,-4.0226,-4.0265,0.0,-4.0315,0.0,-4.0383,-4.0406,-4.0425,-4.0457,0.0,0.0,-4.0489,-4.0489,-4.0489,-4.0489,-4.0489,-4.0489,-4.1066,-4.1489,-4.1489,-4.2066,-4.2489,-4.247,-4.1912,-4.1816,-4.2662,-4.2797,-4.2854,-4.3143,-4.3643,-4.3989,-4.4066,-4.4737,-4.5279,-4.5526,-4.5936,-4.62,-4.6211,-4.6228,-4.6249,-4.6249,-4.6278,-4.6289,-4.6328,-4.6289,-4.6582,-4.707,-4.6758,-4.6289,-4.6289,-4.6328,-4.6504,-3.9997,-3.9997,-4.0179,-4.0244,-4.0234,-3.9607,-3.9327,-3.9208,-3.957,-3.9741,-3.9772,-4.0115,-4.027,-4.029,-4.0431,-4.0483,-4.0546,-4.1086,-4.1325,-4.136,-4.1647,-4.1963,-4.2243,-4.1993,-4.2262,-4.2962,-4.2978,-4.3042,-4.3177,-4.3336,-4.3258,-4.2977,-4.3725,-4.4064,-4.3975,-4.3846,-4.3915,-4.4224,-4.4077,-4.3943,-4.3765,-4.3577,-4.3621,-4.3963,-4.3787,-4.384,-4.4206,-4.3847,-4.3513,-4.3192,-4.2819,-4.2459,-4.2099,-4.1939,-4.1965,0.0,0.0,0.0,0.0,0.0,0.0,0.0,0.0,0.0,0.0,0.0,-4.0457,-4.0339,-4.0422,-4.0438,-4.0339,-4.0441,-4.0489,-4.0489,-4.0854,-4.1085,-4.1066,-4.1431,-4.1662,-4.1643,-4.2085,-4.2393,-4.2393,-4.2797,-4.3239,-4.3585,-4.322,-4.3085,-4.3508,-4.3643,-4.3758,-4.4162,-4.4586,-4.4893,-4.4951,-4.5488,-4.5918,-4.5996,-4.6181,-4.6289,-4.6289,-4.6289,-4.6289,-4.6308,-4.6621,-4.6875,-4.6894,-4.7226,-4.7637,-4.793,-4.7812,-4.75,-4.7461,-4.7461,-4.7637,-4.1097,-4.1097,-4.1097,-4.1097,-4.1034,-3.9841,-3.9219,-3.905,-3.9768,-4.006,-4.0087,-4.0789,-4.1097,-4.1111,-4.1415,-4.1545,-4.1545,-4.1892,-4.2044,-4.2044,-4.2156,-4.2199,-4.2239,-4.2021,-4.2294,-4.3023,-4.3035,-4.3349,-4.3998,-4.4364,-4.4501,-4.4474,-4.4781,-4.4981,-4.5035,-4.476,-4.4938,-4.5586,-4.5282,-4.4985,-4.4732,-4.4682,-4.4806,-4.5159,-4.5074,-4.5209,-4.5583,-4.5509,-4.5053,-4.4168,-4.3729,-4.3219,-4.2538,-4.2161,-4.2108,0.0,-4.2543,0.0,0.0,0.0,0.0,0.0,0.0,0.0,0.0,-4.0681,-4.0735,-4.0501,-4.0682,-4.0735,-4.052,-4.0682,-4.0816,-4.0854,-4.1508,-4.197,-4.1989,-4.2643,-4.3085,-4.3085,-4.3201,-4.3258,-4.3258,-4.3335,-4.3701,-4.4335,-4.4432,-4.4412,-4.4451,-4.447,-4.4701,-4.549,-4.5586,-4.5528,-4.5642,-4.5808,-4.5931,-4.6051,-4.6196,-4.6328,-4.6504,-4.6504,-4.6523,-4.6699,-4.7305,-4.7754,-4.7773,-4.8379,-4.8867,-4.9023,-4.9023,-4.8945,-4.8808,-4.873,-4.8926,-4.1097,-4.1097,-4.1097,-4.1097,-4.1075,-4.0809,-4.0701,-4.0652,-4.0812,-4.0864,-4.0896,-4.1016,-4.1115,-4.1111,-4.1158,-4.119,-4.1227,-4.1931,-4.2234,-4.226,-4.2899,-4.3373,-4.3605,-4.3557,-4.3786,-4.4253,-4.4252,-4.4168,-4.4016,-4.4087,-4.3974,-4.3712,-4.4046,-4.4364,-4.4681,0.0,0.0,0.0,-4.5263,-4.5182,-4.54,-4.5159,-4.518,-4.5476,-4.4988,0.0,-4.5534,-4.5087,-4.4957,-4.5243,-4.4939,0.0,0.0,0.0,0.0,0.0,0.0,0.0,0.0,0.0,0.0,0.0,-4.2295,-4.2167,-4.2505,-4.2579,-4.2588,-4.2554,-4.2588,-4.2588,-4.2554,-4.2552,-4.2604,-4.2624,-4.2758,-4.2874,-4.2874,-4.3008,-4.3085,-4.3104,-4.3662,-4.4066,-4.4105,-4.4662,-4.5124,-4.5259,-4.5355,-4.5355,-4.5316,-4.5297,-4.5413,-4.5566,-4.5586,-4.5605,-4.5624,-4.5794,-4.5914,-4.5949,-4.6138,-4.6582,-4.7187,-4.7363,-4.7637,-4.8164,-4.8555,-4.8652,-4.8652,-4.8789,-4.9199,-4.9824,-4.9961,-4.9746,-4.9043,-4.8906,-4.9101,-4.2286,0.0,-4.2286,-4.2286,0.0,-4.2304,-4.2298,-4.2235,-4.1875,-4.1912,-4.226,-4.2292,-4.2289,-4.2304,-4.2286,-4.2286,-4.2304,-4.2708,-4.2889,-4.2923,-4.3311,-4.3571,-4.3752,-4.3752,-4.3844,-4.406,-4.4066,-4.3962,-4.374,-4.3758,-4.3679,-4.3532,-4.3836,-4.4101,-4.429,-4.4485,-4.4748,-4.5107,-4.511,-4.5096,-4.5096,-4.4943,-4.5011,-4.5322,0.0,0.0,0.0,0.0,0.0,0.0,0.0,0.0,0.0,0.0,0.0,-4.4841,-4.4431,-4.4173,-4.4181,-4.3952,-4.3819,-4.3849,-4.3971,-4.3809,-4.3181,-4.3088,-4.3107,-4.3104,-4.3085,-4.3085,-4.3085,-4.3085,-4.3085,-4.3104,-4.3451,-4.3701,-4.3739,-4.4085,-4.4335,-4.4355,-4.4662,-4.4932,-4.4951,-4.5278,-4.5566,-4.5586,-4.5586,-4.5586,-4.5586,-4.5586,-4.5586,-4.5586,-4.5586,-4.5605,-4.5699,-4.5789,-4.6124,-4.6507,-4.6807,-4.7285,-4.8105,-4.8262,-4.8398,-4.8848,-4.9238,-4.9531,-4.959,-4.9844,-5.0273,-5.0683,-5.0801,-5.0683,-5.0215,-5.0137,-5.0234,-4.3479,-4.3479,-4.3479,-4.3479,-4.3479,-4.3479,-4.3479,-4.3442,0.0,0.0,0.0,-4.3479,-4.3479,-4.3479,-4.3479,-4.3479,-4.3479,-4.3479,-4.3479,-4.3479,-4.3479,-4.3479,-4.3479,-4.3479,-4.3479,-4.3479,-4.3479,-4.3479,-4.3479,-4.3479,-4.3479,-4.3513,-4.3836,-4.4026,-4.4113,-4.4429,-4.4645,-4.471,-4.4953,-4.4988,-4.48,-4.4781,-4.49,-4.518,-4.5137,-4.5258,-4.5569,-4.5277,-4.5266,-4.557,-4.5073,-4.4895,-4.5164,-4.4879,-4.4827,-4.5065,-4.5103,-4.5093,-4.5095,-4.5398,-4.5495,-4.5201,-4.5438,-4.501,-4.363,-4.3553,-4.3551,-4.3547,-4.3547,-4.3547,-4.3547,-4.3547,-4.3528,-4.3547,-4.4124,-4.4528,-4.4566,-4.5143,-4.5509,-4.5586,-4.5528,-4.5586,-4.5547,-4.5566,-4.5586,-4.5586,-4.5586,-4.5586,-4.5586,-4.5586,-4.5586,-4.5586,-4.5586,-4.5663,-4.595,-4.6121,-4.6506,-4.7401,-4.7712,-4.8144,-4.8848,-4.9121,-4.918,-4.9453,-4.9961,-5.0332,-5.0449,-5.0859,-5.1367,-5.1387,-5.1387,-5.1387,-5.1387,-5.1387,-5.1328,-4.3497,-4.3479,-4.3479,-4.3479,-4.3479,-4.3479,-4.3479,-4.3479,-4.3385,-4.3422,-4.3479,-4.3479,-4.3479,-4.3479,-4.3479,-4.3479,-4.3479,-4.3479,-4.3479,0.0,-4.3479,-4.3479,-4.3479,-4.3479,-4.3479,-4.3479,-4.3479,-4.3479,-4.3479,-4.3479,-4.3479,-4.3529,-4.3836,-4.4157,-4.4478,-4.4561,-4.4751,-4.5022,-4.5061,-4.5222,-4.5438,-4.5476,-4.5495,-4.5513,-4.5243,-4.5241,-4.5591,-4.5278,-4.5254,-4.5568,-4.5506,-4.549,-4.5509,-4.5206,-4.5054,-4.5093,-4.5111,-4.5108,-4.5112,-4.5396,-4.5586,-4.555,-4.5568,-4.547,-4.5278,-4.5259,-4.524,-4.522,-4.5163,-4.5259,-4.524,-4.5182,-4.5124,-4.5182,-4.5316,-4.5413,-4.5355,-4.549,-4.5586,-4.5586,-4.5586,-4.5586,-4.5586,-4.5586,-4.5586,-4.5586,-4.5586,-4.5586,-4.5586,-4.5586,-4.5586,-4.5586,-4.5586,-4.5913,-4.6509,-4.691,-4.7371,-4.8193,-4.8551,-4.9004,-4.9863,-5.0,-5.0195,-5.0859,-5.1016,-5.1133,-5.1191,-5.1308,-5.1387,-5.1387,-5.1387,-5.1387,-5.1387,-5.1387,-5.1387,-4.48,-4.48,-4.48,-4.4544,-4.4121,-4.3681,-4.3479,-4.3479,-4.3479,-4.3479,-4.3479,-4.3479,-4.3479,-4.3479,-4.3479,-4.3479,-4.3479,-4.3479,-4.3479,-4.3479,-4.3479,-4.3479,-4.3479,-4.3479,-4.3479,-4.3479,-4.3479,-4.3479,-4.3479,-4.3479,-4.3479,-4.3513,-4.3646,-4.3929,-4.4246,-4.4097,-4.4296,-4.4822,-4.5022,-4.5263,-4.5586,-4.5586,-4.5586,-4.5586,-4.5438,-4.5438,-4.5586,-4.5284,-4.5239,-4.5609,-4.5416,-4.5323,-4.5328,-4.5343,-4.5297,-4.5124,-4.5278,-4.5278,-4.5105,-4.5247,-4.54,-4.5586,-4.5586,-4.5586,-4.5586,-4.5586,-4.5586,-4.5586,-4.5586,-4.5586,-4.5586,-4.5586,-4.5586,-4.5586,-4.5586,-4.5586,-4.5586,-4.5586,-4.5586,-4.5586,-4.5586,-4.5586,-4.5586,-4.5586,-4.5586,-4.5586,-4.5586,-4.5586,-4.5586,-4.5605,-4.5586,-4.5624,-4.597,-4.6469,-4.6969,-4.7547,-4.8246,-4.9141,-4.9477,-4.9941,-5.0664,-5.084,-5.0996,-5.1289,-5.1387,-5.1387,-5.1387,-5.1387,-5.1387,-5.1387,-5.1387,-5.1387,-5.1387,-5.1387,-5.1387,-4.5902,-4.5902,-4.5902,-4.5535,-4.4929,-4.432,-4.4044,-4.4044,-4.4044,-4.4028,-4.3975,-4.3663,-4.3479,-4.3479,-4.3479,-4.3479,-4.3479,-4.3479,-4.3479,-4.3479,-4.3479,-4.3479,-4.3516,-4.3681,-4.3756,-4.3793,-4.3956,-4.403,-4.4048,-4.403,-4.403,-4.4011,-4.4028,-4.4154,-4.441,-4.4156,-4.4358,-4.4976,-4.5265,-4.5414,-4.5495,-4.5495,-4.5513,-4.5586,-4.5586,-4.5586,-4.5566,-4.5355,-4.5336,-4.5566,-4.5355,-4.5227,-4.5223,-4.5468,-4.5477,-4.528,-4.5451,-4.549,-4.5241,-4.5208,-4.5303,-4.5568,-4.5586,-4.5586,-4.5586,-4.5586,-4.5586,-4.5586,-4.5586,-4.5586,-4.5586,-4.5586,-4.5586,-4.5586,-4.5586,-4.5586,-4.5586,-4.5586,-4.5586,-4.5586,-4.5586,-4.5586,-4.5586,-4.5586,-4.5586,-4.5586,-4.5586,-4.5586,-4.5586,-4.572,-4.5874,-4.6009,-4.6471,-4.7124,-4.7524,-4.8282,-4.9148,-5.0115,-5.0377,-5.0703,-5.1191,-5.1367,-5.1387,-5.1387,-5.1387,-5.1387,-5.1387,-5.1387,-5.1387,-5.1387,-5.1387,-5.1387,-5.1387,-5.1387,-5.1387,-4.592,-4.5902,-4.5957,-4.5865,-4.5791,-4.5657,-4.5616,-4.5635,-4.5672,-4.5694,-4.5461,-4.414,-4.3552,-4.3479,-4.3516,-4.3534,-4.3516,-4.3497,-4.3479,-4.3497,-4.3479,-4.3479,-4.3608,-4.4252,-4.4565,-4.4674,-4.5278,-4.5535,-4.5535,-4.5571,-4.5645,-4.5681,-4.5676,-4.5635,-4.5709,-4.5643,-4.5846,-4.6213,-4.6257,-4.5914,-4.5192,-4.5159,-4.5283,-4.5586,-4.5586,-4.5586,-4.5586,-4.5547,-4.5547,-4.5586,-4.5547,-4.5549,-4.5553,-4.5586,-4.5601,-4.5531,-4.5566,-4.5566,-4.5547,-4.5549,-4.5568,-4.5586,-4.5586,-4.5586,-4.5586,-4.5586,-4.5586,-4.5586,-4.5586,-4.5586,-4.5586,-4.5586,-4.5586,-4.5586,-4.5586,-4.5586,-4.5586,-4.5586,-4.5586,-4.5586,-4.5586,-4.5586,-4.5586,-4.5586,-4.5586,-4.5586,-4.5586,-4.5663,-4.5797,-4.6259,-4.6778,-4.6797,-4.6932,-4.7644,-4.8813,-4.9511,-5.0022,-5.0855,-5.1167,-5.1289,-5.1367,-5.1387,-5.1387,-5.1387,-5.1387,-5.1387,-5.1387,-5.1387,-5.1387,-5.1387,-5.1387,-5.1387,-5.1387,-5.1387,-5.1387,-4.7333,-4.7333,-4.7315,-4.704,-4.6581,-4.6103,-4.5881,-4.59,-4.5902,-4.5883,-4.5808,-4.5168,-4.4913,-4.4892,-4.4433,-4.4195,-4.4158,-4.3699,-4.3479,-4.3534,-4.3989,-4.4226,-4.4283,-4.5039,-4.5407,-4.5405,-4.5755,-4.5902,-4.5902,-4.5902,-4.5902,-4.5883,-4.5882,-4.6027,-4.6211,-4.6049,-4.6176,-4.6773,-4.6568,-4.6477,-4.6515,-4.6069,-4.574,-4.5607,-4.5586,-4.5586,-4.5586,-4.5586,-4.5586,-4.5586,-4.5586,-4.549,-4.5336,-4.5495,-4.5407,-4.5074,-4.5189,-4.5374,-4.5566,-4.5586,-4.5586,-4.5586,-4.5586,-4.5586,-4.5586,-4.5586,-4.5586,-4.5586,-4.5586,-4.5586,-4.5586,-4.5586,-4.5586,-4.5586,-4.5586,-4.5586,-4.5586,-4.5586,-4.5586,-4.5586,-4.5586,-4.5586,-4.5586,-4.5586,-4.5586,-4.5586,-4.5605,-4.5797,-4.6278,-4.6701,-4.7317,-4.8125,-4.8375,-4.8663,-4.9508,-5.0209,-5.0685,-5.1074,-5.1316,-5.1387,-5.1387,-5.1387,-5.1387,-5.1387,-5.1387,-5.1387,-5.1387,-5.1387,-5.1387,-5.1387,-5.1387,-5.1387,-5.1387,-5.1387,-5.1387,-4.8324,-4.8324,-4.8324,-4.7976,-4.7388,-4.6819,-4.6562,-4.6581,-4.6559,-4.6537,-4.6556,-4.6537,-4.6541,-4.6434,-4.5516,-4.5039,-4.4966,-4.4415,-4.4156,-4.4244,-4.4757,-4.5033,-4.5111,-4.5847,-4.6231,-4.6245,-4.6506,-4.6581,-4.6562,-4.6562,-4.6562,-4.6562,-4.6562,-4.6728,-4.693,-4.6759,-4.7023,-4.7529,-4.7391,-4.7523,-4.7791,-4.7327,-4.6658,-4.6049,-4.5951,-4.5855,-4.5586,-4.5586,-4.5586,-4.5586,-4.5586,-4.549,-4.5259,-4.5451,-4.5381,-4.4969,-4.5112,-4.5336,-4.5586,-4.5586,-4.5586,-4.5586,-4.5586,-4.5586,-4.5586,-4.5586,-4.5586,-4.5586,-4.5586,-4.5586,-4.5586,-4.5586,-4.5586,-4.5586,-4.5586,-4.5586,-4.5586,-4.5586,-4.5586,-4.5586,-4.5586,-4.5586,-4.5586,-4.5586,-4.5586,-4.5586,-4.5817,-4.6105,-4.6855,-4.7298,-4.8086,-4.9202,-4.9548,-4.9798,-4.9971,-5.0507,-5.1064,-5.1191,-5.1308,-5.1387,-5.1387,-5.1387,-5.1387,-5.1387,-5.1387,-5.1387,-5.1387,-5.1387,-5.1387,-5.1387,-5.1387,-5.1387,-5.1387,-5.1387,-5.1387,-4.8324,-4.8324,-4.8324,-4.8269,-4.8233,-4.8141,-4.8159,-4.8031,-4.8102,-4.8139,-4.8084,-4.8102,-4.8177,-4.8012,-4.6544,-4.5847,-4.5828,-4.5718,-4.5679,-4.5637,-4.5782,-4.5845,-4.5897,-4.6667,-4.7053,-4.709,-4.7661,-4.8031,-4.8086,-4.8141,-4.8196,-4.8159,-4.8067,-4.8141,-4.8182,-4.8409,-4.8738,-4.8787,-4.9022,-4.9124,-4.8805,-4.8719,-4.8073,-4.7049,-4.6855,-4.6471,-4.5759,-4.5605,-4.5605,-4.5586,-4.5586,-4.5566,-4.5566,-4.5566,-4.5549,-4.5531,-4.553,-4.5547,-4.5586,-4.5586,-4.5586,-4.5586,-4.5586,-4.5586,-4.5586,-4.5586,-4.5586,-4.5586,-4.5586,-4.5586,-4.5586,-4.5586,-4.5586,-4.5586,-4.5586,-4.5586,-4.5586,-4.5586,-4.5586,-4.5586,-4.5586,-4.5586,-4.5586,-4.5586,-4.5643,-4.5817,-4.6317,-4.6913,-4.7259,-4.8317,-4.9106,-4.9529,-5.0067,-5.0664,-5.0798,-5.0911,-5.1076,-5.1191,-5.1269,-5.1387,-5.1387,-5.1387,-5.1387,-5.1387,-5.1387,-5.1387,-5.1387,-5.1387,-5.1387,-5.1387,-5.1387,-5.1387,-5.1387,-5.1387,-5.1387,-4.8324,-4.8324,-4.8324,-4.8324,-4.8324,-4.8324,-4.8324,-4.8324,-4.8324,-4.8324,-4.8324,-4.8324,-4.8324,-4.8269,-4.7719,-4.715,-4.6654,-4.6159,-4.5901,-4.5955,-4.6431,-4.6636,-4.676,-4.7476,-4.7862,-4.7937,-4.8157,-4.8324,-4.8324,-4.8324,-4.8324,-4.8324,-4.8324,-4.8398,-4.8623,-4.8587,-4.888,-4.9577,-4.9584,-4.9648,-4.9939,-5.0023,-4.9527,-4.8529,-4.7952,-4.7278,-4.6451,-4.6431,-4.6161,-4.5624,-4.5586,-4.5586,-4.5566,-4.5393,-4.5374,-4.5547,-4.5413,-4.5374,-4.5547,-4.5586,-4.5586,-4.5586,-4.5586,-4.5586,-4.5586,-4.5586,-4.5586,-4.5586,-4.5586,-4.5586,-4.5586,-4.5586,-4.5586,-4.5586,-4.5586,-4.5586,-4.5586,-4.5586,-4.5586,-4.5586,-4.5586,-4.5586,-4.5586,-4.5586,-4.5817,-4.6355,-4.6721,-4.7355,-4.8298,-4.9086,-4.9606,-5.0106,-5.0471,-5.0702,-5.0741,-5.0952,-5.1106,-5.118,-5.125,-5.1348,-5.1387,-5.1387,-5.1387,-5.1387,-5.1387,-5.1387,-5.1387,-5.1387,-5.1387,-5.1387,-5.1387,-5.1387,-5.1387,-5.1387,-5.1387,-4.8324,-4.8324,-4.8324,-4.8324,-4.8324,-4.8324,-4.8324,-4.8324,-4.8324,-4.8324,-4.8324,-4.8324,-4.8324,-4.8324,-4.8324,-4.8031,-4.748,-4.6929,-4.6673,-4.6709,-4.7261,-4.7499,-4.7569,-4.8047,-4.8324,-4.8306,-4.8324,-4.8324,-4.8324,-4.8324,-4.8324,-4.8324,-4.8324,-4.8434,-4.8638,-4.8565,-4.8952,-4.9578,-4.9671,-4.9974,-5.0462,-5.0643,-5.0452,-4.9837,-4.924,-4.8394,-4.7375,-4.7295,-4.7043,-4.6487,-4.6161,-4.5892,-4.5605,-4.5374,-4.5355,-4.5547,-4.5393,-4.5355,-4.5547,-4.5586,-4.5586,-4.5586,-4.5586,-4.5586,-4.5586,-4.5586,-4.5586,-4.5586,-4.5586,-4.5586,-4.5586,-4.5586,-4.5586,-4.5586,-4.5586,-4.5586,-4.5586,-4.5586,-4.5586,-4.5586,-4.5586,-4.5586,-4.5624,-4.5874,-4.6259,-4.6855,-4.7278,-4.8259,-4.9125,-4.9702,-4.9952,-5.0548,-5.0644,-5.0683,-5.076,-5.0952,-5.1057,-5.1132,-5.1269,-5.1348,-5.1387,-5.1387,-5.1387,-5.1387,-5.1387,-5.1387,-5.1387,-5.1387,-5.1387,-5.1387,-5.1387,-5.1387,-5.1387,-5.1387,-5.1387,-4.8398,-4.8434,-4.8324,-4.8416,-4.8434,-4.8343,-4.8324,-4.8324,-4.8324,-4.8324,-4.8324,-4.8324,-4.8324,-4.8324,-4.8324,-4.8288,-4.8196,-4.8086,-4.8067,-4.8104,-4.8177,-4.8214,-4.8194,-4.8269,-4.8324,-4.8324,-4.8324,-4.8324,-4.8324,-4.8324,-4.8324,-4.8324,-4.8324,-4.8343,-4.8324,-4.8638,-4.888,-4.915,-4.9665,-5.0068,-5.0159,-5.0504,-5.0644,-5.0606,-5.051,-4.976,-4.824,-4.8141,-4.8062,-4.7889,-4.7293,-4.6506,-4.5853,-4.5699,-4.5624,-4.5586,-4.5566,-4.5586,-4.5586,-4.5586,-4.5586,-4.5586,-4.5586,-4.5586,-4.5586,-4.5586,-4.5586,-4.5586,-4.5586,-4.5586,-4.5586,-4.5586,-4.5586,-4.5586,-4.5586,-4.5586,-4.5586,-4.5586,-4.5586,-4.5586,-4.5586,-4.5605,-4.5797,-4.6278,-4.6836,-4.7355,-4.8259,-4.9202,-4.9567,-5.0125,-5.0567,-5.0664,-5.0683,-5.0683,-5.0779,-5.0914,-5.1014,-5.1113,-5.1269,-5.1387,-5.1387,-5.1387,-5.1387,-5.1387,-5.1387,-5.1387,-5.1387,-5.1387,-5.1387,-5.1387,-5.1387,-5.1387,-5.1387,-5.1387,-5.1387,-5.0031,-4.9958,-4.9407,-4.9187,-4.9114,-4.8563,-4.8324,-4.8324,-4.8324,-4.8324,-4.8324,-4.8324,-4.8324,-4.8324,-4.8324,-4.8324,-4.8324,-4.8324,-4.8324,-4.8324,-4.8324,-4.8324,-4.8324,-4.8324,-4.8324,-4.8324,-4.8324,-4.8324,-4.8324,-4.8324,-4.8324,-4.8324,-4.8324,-4.8324,-4.8324,-4.8454,-4.8716,-4.9308,-4.955,-4.9924,-5.0462,-5.0624,-5.0683,-5.0683,-5.0683,-5.0375,-4.9894,-4.9317,-4.872,-4.8182,-4.7856,-4.7337,-4.6661,-4.6506,-4.6219,-4.568,-4.5586,-4.5586,-4.5586,-4.5605,-4.5624,-4.5586,-4.5586,-4.5586,-4.5586,-4.5586,-4.5586,-4.5586,-4.5586,-4.5586,-4.5586,-4.5586,-4.5586,-4.5586,-4.5586,-4.5586,-4.5586,-4.5586,-4.5586,-4.5586,-4.5586,-4.5836,-4.6355,-4.6894,-4.7432,-4.8355,-4.9106,-4.9567,-5.0164,-5.0452,-5.0683,-5.0683,-5.0683,-5.0702,-5.0798,-5.0933,-5.1054,-5.1144,-5.1289,-5.1387,-5.1387,-5.1387,-5.1387,-5.1387,-5.1387,-5.1387,-5.1387,-5.1387,-5.1387,-5.1387,-5.1387,-5.1387,-5.1387,-5.1387,-5.1387,-5.082,-5.0747,-5.0251,-5.0031,-4.9939,-4.9132,-4.8803,-4.873,-4.8416,-4.8324,-4.8324,-4.8324,-4.8324,-4.8324,-4.8324,-4.8324,-4.8324,-4.8324,-4.8324,-4.8324,-4.8324,-4.8324,-4.8324,-4.8324,-4.8324,-4.8324,-4.8324,-4.8324,-4.8324,-4.8324,-4.8324,-4.8324,-4.8324,-4.8324,-4.8324,-4.8306,-4.8568,-4.9029,-4.9351,-4.9751,-5.0206,-5.0544,-5.0683,-5.0683,-5.0683,-5.0683,-5.0644,-5.0163,-4.9625,-4.9106,-4.8779,-4.8203,-4.7451,-4.7334,-4.7101,-4.6681,-4.6527,-4.6432,-4.6161,-4.6123,-4.5913,-4.5682,-4.5586,-4.5586,-4.5586,-4.5586,-4.5586,-4.5586,-4.5586,-4.5586,-4.5586,-4.5586,-4.5586,-4.5586,-4.5586,-4.5586,-4.5586,-4.5586,-4.5817,-4.599,-4.6124,-4.6509,-4.7086,-4.7759,-4.8163,-4.9221,-4.9683,-4.9971,-5.0548,-5.0664,-5.0683,-5.0683,-5.0683,-5.0721,-5.0779,-5.0933,-5.1101,-5.1185,-5.1289,-5.1367,-5.1387,-5.1387,-5.1387,-5.1387,-5.1387,-5.1387,-5.1387,-5.1387,-5.1387,-5.1387,-5.1387,-5.1387,-5.1387,-5.1387,-5.1387,-5.0949,-5.093,-5.0894,-5.0857,-5.0765,-4.9994,-4.9575,-4.9432,-4.8785,-4.8416,-4.8324,-4.8324,-4.8324,-4.8324,-4.8324,-4.8324,-4.8324,-4.8324,-4.8324,-4.8324,-4.8324,-4.8324,-4.8324,-4.8324,-4.8324,-4.8324,-4.8324,-4.8324,-4.8324,-4.8324,-4.8324,-4.8324,-4.8324,-4.8324,-4.8324,-4.8324,-4.8363,-4.8569,-4.9175,-4.954,-4.9692,-5.0313,-5.0683,-5.0683,-5.0683,-5.0683,-5.0664,-5.0587,-5.0606,-5.0548,-4.9817,-4.9087,-4.8356,-4.8162,-4.8141,-4.7912,-4.8029,-4.7604,-4.7123,-4.6969,-4.6701,-4.6084,-4.6007,-4.572,-4.597,-4.6067,-4.6067,-4.6046,-4.599,-4.5893,-4.5913,-4.5932,-4.5932,-4.5778,-4.5759,-4.5643,-4.5682,-4.574,-4.6144,-4.6759,-4.699,-4.7259,-4.8067,-4.8798,-4.9202,-4.9625,-5.0164,-5.051,-5.0625,-5.0683,-5.0683,-5.0702,-5.0702,-5.076,-5.0837,-5.0991,-5.1142,-5.1203,-5.1289,-5.1367,-5.1387,-5.1387,-5.1387,-5.1387,-5.1387,-5.1387,-5.1387,-5.1387,-5.1387,-5.1387,-5.1387,-5.1387,-5.1387,-5.1387,-5.1387,-5.2582,-5.2509,-5.1922,-5.1665,-5.1555,-5.082,-5.0126,-4.9597,-4.9377,-4.8859,-4.8434,-4.8324,-4.8324,-4.8324,-4.8324,-4.8324,-4.8324,-4.8324,-4.8324,-4.8324,-4.8324,-4.8324,-4.8324,-4.8324,-4.8324,-4.8324,-4.8324,-4.8324,-4.8324,-4.8324,-4.8324,-4.8324,-4.8324,-4.8324,-4.8324,-4.8324,-4.8453,-4.8789,-4.9206,-4.9665,-4.9974,-5.0421,-5.0683,-5.0683,-5.0683,-5.0683,-5.0683,-5.0683,-5.0683,-5.0683,-5.0529,-4.9952,-4.9183,-4.9029,-4.8836,-4.8355,-4.8183,-4.8068,-4.7894,-4.7798,-4.7644,-4.7489,-4.7276,-4.7449,-4.7432,-4.7432,-4.7432,-4.745,-4.745,-4.7394,-4.7413,-4.7375,-4.7375,-4.7278,-4.6432,-4.597,-4.6413,-4.6586,-4.6874,-4.7625,-4.7778,-4.8202,-4.8856,-4.9279,-4.9683,-5.0164,-5.0471,-5.0683,-5.0683,-5.0683,-5.0683,-5.0741,-5.076,-5.0818,-5.0914,-5.1068,-5.1163,-5.1211,-5.1289,-5.1367,-5.1387,-5.1387,-5.1387,-5.1387,-5.1387,-5.1387,-5.1387,-5.1387,-5.1387,-5.1387,-5.1387,-5.1387,-5.1387,-5.1387,-5.1387,-5.2554,-5.2335,-5.2425,-5.2328,-5.201,-5.1545,-5.1022,-5.053,-4.9855,-4.9358,-4.8822,-4.8416,-4.8324,-4.8324,-4.8324,-4.8324,-4.8324,-4.8324,-4.8324,-4.8324,-4.8324,-4.8324,-4.8324,-4.8324,-4.8324,-4.8324,-4.8324,-4.8324,-4.8324,-4.8324,-4.8324,-4.8324,-4.8324,-4.8324,-4.8324,-4.8324,-4.8477,-4.8925,-4.9289,-4.9712,-5.0087,-5.0483,-5.0663,-5.0683,-5.0683,-5.0683,-5.0683,-5.0683,-5.0683,-5.0683,-5.0664,-5.0452,-5.0029,-4.9933,-4.9702,-4.9201,-4.9183,-4.9087,-4.8702,-4.8644,-4.8452,-4.8182,-4.8103,-4.8105,-4.8048,-4.8087,-4.8106,-4.8029,-4.8087,-4.8105,-4.8105,-4.8105,-4.8105,-4.7932,-4.7201,-4.6855,-4.7394,-4.7394,-4.7798,-4.8355,-4.8702,-4.8971,-4.9817,-4.9913,-5.0183,-5.0529,-5.0606,-5.0683,-5.0683,-5.0683,-5.0702,-5.076,-5.0817,-5.0855,-5.0971,-5.1111,-5.1224,-5.1284,-5.1308,-5.1387,-5.1387,-5.1387,-5.1387,-5.1387,-5.1387,-5.1387,-5.1387,-5.1387,-5.1387,-5.1387,-5.1387,-5.1387,-5.1387,-5.1387,-5.1387,-5.1661,-5.1189,-5.2463,-5.2617,-5.2015,-5.2003,-5.1833,-5.154,-5.038,-4.9708,-4.9377,-4.8675,-4.8324,-4.8324,-4.8324,-4.8324,-4.8324,-4.8324,-4.8324,-4.8324,-4.8324,-4.8324,-4.8324,-4.8324,-4.8324,-4.8324,-4.8324,-4.8324,-4.8324,-4.8324,-4.8324,-4.8324,-4.8324,-4.8324,-4.8324,-4.8306,-4.8524,-4.8889,-4.9306,-4.9705,-5.0097,-5.0483,-5.0683,-5.0683,-5.0683,-5.0683,-5.0683,-5.0683,-5.0683,-5.0683,-5.0683,-5.0644,-5.0644,-5.0664,-5.0606,-5.0529,-5.0394,-5.0144,-4.9702,-4.951,-4.926,-4.874,-4.8548,-4.8356,-4.8587,-4.8644,-4.8683,-4.8721,-4.8394,-4.8606,-4.8625,-4.849,-4.8586,-4.8644,-4.8432,-4.8375,-4.8355,-4.8298,-4.8567,-4.9375,-4.9529,-4.9933,-5.0375,-5.0683,-5.0683,-5.0606,-5.0683,-5.0683,-5.0702,-5.0741,-5.0741,-5.076,-5.0836,-5.0887,-5.1009,-5.1152,-5.1258,-5.1348,-5.1348,-5.1387,-5.1387,-5.1387,-5.1387,-5.1387,-5.1387,-5.1387,-5.1387,-5.1387,-5.1387,-5.1387,-5.1387,-5.1387,-5.1387,-5.1387,-5.1387,-5.1258,-5.1155,-5.1411,-5.1462,-5.1426,-5.182,-5.1736,-5.114,-5.0744,-5.0175,-4.9522,-4.8693,-4.8343,-4.8324,-4.8324,-4.8324,-4.8324,-4.8324,-4.8324,-4.8324,-4.8324,-4.8324,-4.8324,-4.8324,-4.8324,-4.8324,-4.8324,-4.8324,-4.8324,-4.8324,-4.8324,-4.8324,-4.8324,-4.8324,-4.8324,-4.8326,-4.849,-4.8907,-4.93,-4.971,-5.0126,-5.0483,-5.0683,-5.0683,-5.0683,-5.0683,-5.0683,-5.0683,-5.0683,-5.0683,-5.0683,-5.0683,-5.0683,-5.0683,-5.0683,-5.0683,-5.0683,-5.0587,-5.0433,-5.0317,-5.0337,-5.0029,-4.9894,-5.0144,-5.0144,-5.001,-5.0048,-5.0125,-5.0144,-4.9952,-4.9933,-5.0067,-4.9952,-4.9894,-4.9933,-4.999,-4.999,-4.951,-4.9567,-5.0087,-5.0356,-5.0471,-5.0664,-5.0683,-5.0683,-5.0683,-5.0683,-5.0683,-5.0721,-5.076,-5.0779,-5.0798,-5.0895,-5.0968,-5.1091,-5.1211,-5.1308,-5.1367,-5.1387,-5.1387,-5.1387,-5.1387,-5.1387,-5.1387,-5.1387,-5.1387,-5.1387,-5.1387,-5.1387,-5.1387,-5.1387,-5.1387,-5.1387,-5.1387,-5.1387,-5.0442,-5.0202,-5.0823,-5.0876,-5.077,-5.1625,-5.1883,-5.1426,-5.097,-5.0533,-4.9947,-4.8915,-4.8324,-4.8324,-4.8324,-4.8324,-4.8324,-4.8324,-4.8324,-4.8324,-4.8324,-4.8324,-4.8324,-4.8324,-4.8324,-4.8324,-4.8324,-4.8324,-4.8324,-4.8324,-4.8324,-4.8324,-4.8324,-4.8324,-4.8324,-4.8324,-4.8635,-4.9116,-4.9366,-4.9776,-5.0327,-5.0584,-5.0683,-5.0683,-5.0683,-5.0683,-5.0683,-5.0683,-5.0683,-5.0683,-5.0683,-5.0683,-5.0683,-5.0683,-5.0683,-5.0683,-5.0683,-5.0683,-5.0683,-5.0683,-5.0664,-5.0683,-5.0683,-5.0683,-5.0683,-5.0683,-5.0683,-5.0683,-5.0644,-5.0664,-5.0683,-5.0664,-5.0683,-5.0683,-5.0683,-5.0683,-5.0606,-5.0279,-5.0144,-5.0587,-5.0644,-5.0644,-5.0683,-5.0683,-5.0683,-5.0683,-5.0683,-5.0683,-5.0683,-5.0741,-5.0798,-5.0856,-5.0972,-5.1066,-5.1167,-5.1269,-5.1348,-5.1387,-5.1387,-5.1387,-5.1387,-5.1387,-5.1387,-5.1387,-5.1387,-5.1387,-5.1387,-5.1387,-5.1387,-5.1387,-5.1387,-5.1387,-5.1387,-5.1387,-5.1387,-4.9555,-4.9107,-5.0297,-5.0407,-5.0146,-5.1172,-5.1658,-5.1554,-5.0964,-5.0479,-5.0317,-4.897,-4.8324,-4.8324,-4.8324,-4.8324,-4.8324,-4.8324,-4.8324,-4.8324,-4.8324,-4.8324,-4.8324,-4.8324,-4.8324,-4.8324,-4.8324,-4.8324,-4.8324,-4.8324,-4.8324,-4.8324,-4.8324,-4.8324,-4.8324,-4.8344,-4.8674,-4.9343,-4.9484,-4.9875,-5.0529,-5.0702,-5.0683,-5.0683,-5.0683,-5.0683,-5.0683,-5.0683,-5.0683,-5.0683,-5.0683,-5.0683,-5.0683,-5.0683,-5.0683,-5.0683,-5.0683,-5.0683,-5.0683,-5.0683,-5.0683,-5.0683,-5.0683,-5.0683,-5.0683,-5.0683,-5.0683,-5.0683,-5.0683,-5.0683,-5.0683,-5.0683,-5.0683,-5.0683,-5.0683,-5.0683,-5.0683,-5.0683,-5.0664,-5.0664,-5.0683,-5.0683,-5.0683,-5.0683,-5.0683,-5.0683,-5.0683,-5.0683,-5.0702,-5.0741,-5.0818,-5.0932,-5.1048,-5.1139,-5.1269,-5.1308,-5.1387,-5.1387,-5.1387,-5.1387,-5.1387,-5.1387,-5.1387,-5.1387,-5.1387,-5.1387,-5.1387,-5.1387,-5.1387,-5.1387,-5.1387,-5.1387,-5.1387,-5.1387,-5.1387,-4.9107,-4.9001,-4.9256,-4.9273,-4.9316,-5.0033,-5.0418,-5.024,-5.0055,-4.9848,-4.9689,-4.8748,-4.8324,-4.8324,-4.8324,-4.8324,-4.8324,-4.8324,-4.8324,-4.8324,-4.8324,-4.8324,-4.8324,-4.8324,-4.8324,-4.8324,-4.8324,-4.8324,-4.8324,-4.8324,-4.8324,-4.8324,-4.8324,-4.8324,-4.8324,-4.8344,-4.8692,-4.938,-4.9522,-4.9894,-5.051,-5.0683,-5.0683,-5.0683,-5.0683,-5.0683,-5.0683,-5.0683,-5.0683,-5.0683,-5.0683,-5.0683,-5.0683,-5.0683,-5.0683,-5.0683,-5.0683,-5.0683,-5.0683,-5.0683,-5.0683,-5.0683,-5.0683,-5.0683,-5.0683,-5.0683,-5.0683,-5.0683,-5.0683,-5.0683,-5.0683,-5.0683,-5.0683,-5.0683,-5.0683,-5.0683,-5.0683,-5.0683,-5.0683,-5.0683,-5.0683,-5.0683,-5.0683,-5.0683,-5.0683,-5.0683,-5.0683,-5.0721,-5.0741,-5.0818,-5.0933,-5.1024,-5.1122,-5.1224,-5.134,-5.1367,-5.1387,-5.1387,-5.1387,-5.1387,-5.1387,-5.1387,-5.1387,-5.1387,-5.1387,-5.1387,-5.1387,-5.1387,-5.1387,-5.1387,-5.1387,-5.1387,-5.1387,-5.1387,-5.1387,-4.9018,-4.9018,-4.9018,-4.9018,-4.9107,-4.9739,-4.9959,-4.9875,-4.9747,-4.9655,-4.9354,-4.873,-4.8324,-4.8324,-4.8324,-4.8324,-4.8324,-4.8324,-4.8324,-4.8324,-4.8324,-4.8324,-4.8324,-4.8324,-4.8324,-4.8324,-4.8324,-4.8324,-4.8324,-4.8324,-4.8324,-4.8324,-4.8324,-4.8324,-4.8324,-4.8306,-4.8763,-4.9324,-4.9557,-4.9894,-5.0625,-5.0683,-5.0683,-5.0683,-5.0683,-5.0683,-5.0683,-5.0683,-5.0683,-5.0683,-5.0683,-5.0683,-5.0683,-5.0683,-5.0683,-5.0683,-5.0683,-5.0683,-5.0683,-5.0683,-5.0683,-5.0683,-5.0683,-5.0683,-5.0683,-5.0683,-5.0683,-5.0683,-5.0683,-5.0683,-5.0683,-5.0683,-5.0683,-5.0683,-5.0683,-5.0683,-5.0683,-5.0683,-5.0683,-5.0683,-5.0683,-5.0683,-5.0683,-5.0683,-5.0683,-5.0683,-5.0683,-5.0721,-5.076,-5.0856,-5.0952,-5.1091,-5.1211,-5.1289,-5.1367,-5.1387,-5.1387,-5.1387,-5.1387,-5.1387,-5.1387,-5.1387,-5.1387,-5.1387,-5.1387,-5.1387,-5.1387,-5.1387,-5.1387,-5.1387,-5.1387,-5.1387,-5.1387,-5.1387,-5.1387,-4.9018,-4.9018,-4.9018,-4.9018,-4.909,-4.9392,-4.9598,-4.9605,-4.9323,-4.9255,-4.9246,-4.8638,-4.8324,-4.8324,-4.8324,-4.8324,-4.8324,-4.8324,-4.8324,-4.8324,-4.8324,-4.8324,-4.8324,-4.8324,-4.8324,-4.8324,-4.8324,-4.8324,-4.8324,-4.8324,-4.8324,-4.8324,-4.8324,-4.8324,-4.8324,-4.8434,-4.8887,-4.9267,-4.9637,-5.0009,-5.0529,-5.0683,-5.0683,-5.0683,-5.0683,-5.0683,-5.0683,-5.0683,-5.0683,-5.0683,-5.0683,-5.0683,-5.0683,-5.0683,-5.0683,-5.0683,-5.0683,-5.0683,-5.0683,-5.0683,-5.0683,-5.0683,-5.0683,-5.0683,-5.0683,-5.0683,-5.0683,-5.0683,-5.0683,-5.0683,-5.0683,-5.0683,-5.0683,-5.0683,-5.0683,-5.0683,-5.0683,-5.0683,-5.0683,-5.0683,-5.0683,-5.0683,-5.0683,-5.0683,-5.0683,-5.0683,-5.0683,-5.0702,-5.076,-5.0837,-5.0971,-5.1157,-5.1269,-5.1348,-5.1387,-5.1387,-5.1387,-5.1387,-5.1387,-5.1387,-5.1387,-5.1387,-5.1387,-5.1387,-5.1387,-5.1387,-5.1387,-5.1387,-5.1387,-5.1387,-5.1387,-5.1387,-5.1387,-5.1387,-5.1387,-4.9018,-4.9001,-4.9001,-4.9018,-4.8849,-4.8395,-4.8463,-4.877,-4.8207,-4.8102,-4.8583,-4.8379,-4.8324,-4.8324,-4.8324,-4.8324,-4.8324,-4.8324,-4.8324,-4.8324,-4.8324,-4.8324,-4.8324,-4.8324,-4.8324,-4.8324,-4.8324,-4.8324,-4.8324,-4.8324,-4.8324,-4.8324,-4.8324,-4.8324,-4.8343,-4.862,-4.906,-4.9466,-4.9832,-5.026,-5.0625,-5.0683,-5.0683,-5.0683,-5.0683,-5.0683,-5.0683,-5.0683,-5.0683,-5.0683,-5.0683,-5.0683,-5.0683,-5.0683,-5.0683,-5.0683,-5.0683,-5.0683,-5.0683,-5.0683,-5.0683,-5.0683,-5.0683,-5.0683,-5.0683,-5.0683,-5.0683,-5.0683,-5.0683,-5.0683,-5.0683,-5.0683,-5.0683,-5.0683,-5.0683,-5.0683,-5.0683,-5.0683,-5.0683,-5.0683,-5.0683,-5.0683,-5.0683,-5.0683,-5.0683,-5.0683,-5.0683,-5.0702,-5.0795,-5.0924,-5.1037,-5.1222,-5.1308,-5.1367,-5.1387,-5.1387,-5.1387,-5.1387,-5.1387,-5.1387,-5.1387,-5.1387,-5.1387,-5.1387,-5.1387,-5.1387,-5.1387,-5.1387,-5.1387,-5.1387,-5.1387,-5.1387,-5.1387,-5.1387,-5.1387,-4.8003,-4.8392,-4.8392,-4.8139,-4.7733,-4.7411,-4.7606,-4.7936,-4.777,-4.7849,-4.826,-4.8324,-4.8324,-4.8324,-4.8324,-4.8324,-4.8324,-4.8324,-4.8324,-4.8324,-4.8324,-4.8324,-4.8324,-4.8324,-4.8324,-4.8324,-4.8324,-4.8324,-4.8324,-4.8324,-4.8324,-4.8324,-4.8324,-4.8324,-4.8361,-4.8693,-4.9094,-4.9556,-5.0063,-5.051,-5.0644,-5.0683,-5.0683,-5.0683,-5.0683,-5.0644,-5.0644,-5.0683,-5.0683,-5.0683,-5.0683,-5.0683,-5.0683,-5.0683,-5.0683,-5.0683,-5.0683,-5.0683,-5.0683,-5.0664,-5.0683,-5.0683,-5.0683,-5.0683,-5.0683,-5.0683,-5.0683,-5.0683,-5.0683,-5.0683,-5.0683,-5.0683,-5.0683,-5.0683,-5.0683,-5.0683,-5.0683,-5.0683,-5.0683,-5.0683,-5.0664,-5.0625,-5.0625,-5.0683,-5.0683,-5.0683,-5.0721,-5.0779,-5.0937,-5.1161,-5.1228,-5.1317,-5.1367,-5.1387,-5.1387,-5.1387,-5.1387,-5.1387,-5.1387,-5.1387,-5.1387,-5.1387,-5.1387,-5.1387,-5.1387,-5.1387,-5.1387,-5.1387,-5.1387,-5.1387,-5.1387,-5.1387,-5.1387,-5.1387,-5.1387,-4.7022,-4.7378,-4.7547,-4.7293,-4.6769,-4.6599,-4.6929,-4.7578,-4.7352,-4.7644,-4.8181,-4.8324,-4.8324,-4.8324,-4.8324,-4.8324,-4.8324,-4.8324,-4.8324,-4.8324,-4.8324,-4.8324,-4.8324,-4.8324,-4.8324,-4.8324,-4.8324,-4.8324,-4.8324,-4.8324,-4.8324,-4.8324,-4.8324,-4.8324,-4.8434,-4.8845,-4.9342,-4.9925,-5.0394,-5.0644,-5.0683,-5.0683,-5.0683,-5.0625,-5.051,-5.0375,-5.0356,-5.001,-4.9952,-4.9933,-4.9875,-4.9779,-4.9817,-4.9779,-4.9798,-4.9798,-4.9779,-4.9798,-5.001,-5.024,-5.0587,-5.0683,-5.0683,-5.0683,-5.0683,-5.0683,-5.0683,-5.0683,-5.0683,-5.0683,-5.0683,-5.0683,-5.0683,-5.0683,-5.0683,-5.0683,-5.0606,-5.0414,-5.0433,-5.0587,-5.0548,-5.0471,-5.051,-5.0644,-5.0683,-5.0683,-5.0741,-5.0817,-5.1029,-5.1261,-5.1322,-5.1348,-5.1387,-5.1387,-5.1387,-5.1387,-5.1387,-5.1387,-5.1387,-5.1387,-5.1387,-5.1387,-5.1387,-5.1387,-5.1387,-5.1387,-5.1387,-5.1387,-5.1387,-5.1387,-5.1387,-5.1387,-5.1387,-5.1387,-5.1387,-4.6413,-4.5906,-4.6583,-4.6802,-4.6667,-4.6058,-4.6513,-4.7425,-4.686,-4.7267,-4.8229,-4.8324,-4.8324,-4.8324,-4.8324,-4.8324,-4.8324,-4.8324,-4.8324,-4.8324,-4.8324,-4.8324,-4.8324,-4.8324,-4.8324,-4.8324,-4.8324,-4.8324,-4.8324,-4.8324,-4.8324,-4.8324,-4.8324,-4.8324,-4.8513,-4.8953,-4.9488,-4.9944,-5.026,-5.0356,-5.0414,-5.0433,-5.0452,-5.0337,-4.9894,-4.949,-4.9433,-4.8914,-4.8606,-4.8625,-4.8663,-4.8644,-4.8759,-4.8721,-4.8741,-4.8741,-4.8721,-4.8721,-4.8894,-4.9663,-5.0452,-5.0625,-5.0529,-5.0317,-5.0221,-5.051,-5.0606,-5.0394,-5.0183,-5.0337,-5.0452,-5.0625,-5.026,-5.0164,-5.001,-5.0029,-4.9933,-4.9837,-4.9913,-5.0317,-5.0471,-5.0433,-5.0491,-5.0644,-5.0683,-5.0683,-5.076,-5.0836,-5.1,-5.1219,-5.1304,-5.1348,-5.1387,-5.1387,-5.1387,-5.1387,-5.1387,-5.1387,-5.1387,-5.1387,-5.1387,-5.1387,-5.1387,-5.1387,-5.1387,-5.1387,-5.1387,-5.1387,-5.1387,-5.1387,-5.1387,-5.1387,-5.1387,-5.1387,-5.1387,-4.5263,-4.506,-4.5331,-4.5432,-4.5473,-4.5545,-4.6079,-4.6837,-4.6961,-4.7481,-4.8324,-4.8324,-4.8324,-4.8324,-4.8324,-4.8324,-4.8324,-4.8324,-4.8324,-4.8324,-4.8324,-4.8324,-4.8324,-4.8324,-4.8324,-4.8324,-4.8324,-4.8324,-4.8324,-4.8324,-4.8324,-4.8324,-4.8324,-4.8489,-4.8753,-4.8965,-4.921,-4.9173,-4.9221,-4.9163,-4.9106,-4.9106,-4.9106,-4.9029,-4.8913,-4.8606,-4.8548,-4.8298,-4.8144,-4.8105,-4.8103,-4.8103,-4.8103,-4.8105,-4.8106,-4.8106,-4.8105,-4.8105,-4.8103,-4.8759,-4.9048,-4.9106,-4.9087,-4.924,-4.9452,-4.9221,-4.9125,-4.9067,-4.9317,-4.9567,-4.9183,-4.9106,-4.899,-4.9086,-4.926,-4.9433,-4.9471,-4.9471,-4.9644,-5.0164,-5.0414,-5.0529,-5.0587,-5.0683,-5.0683,-5.0683,-5.0779,-5.0889,-5.1048,-5.1172,-5.1269,-5.1348,-5.1387,-5.1387,-5.1387,-5.1387,-5.1387,-5.1387,-5.1387,-5.1387,-5.1387,-5.1387,-5.1387,-5.1387,-5.1387,-5.1387,-5.1387,-5.1387,-5.1387,-5.1387,-5.1387,-5.1387,-5.1387,-5.1387,-5.1387,-4.457,-4.457,-4.457,-4.457,-4.4665,-4.5232,-4.584,-4.6465,-4.709,-4.7741,-4.8286,-4.8324,-4.8324,-4.8324,-4.8324,-4.8324,-4.8324,-4.8324,-4.8324,-4.8324,-4.8324,-4.8324,-4.8324,-4.8324,-4.8324,-4.8324,-4.8324,-4.8324,-4.8324,-4.8324,-4.8324,-4.8324,-4.8343,-4.8508,-4.8841,-4.9086,-4.9047,-4.8932,-4.8875,-4.8875,-4.899,-4.9029,-4.9067,-4.9029,-4.8875,-4.8682,-4.8567,-4.8374,-4.8123,-4.8083,-4.8101,-4.8101,-4.8102,-4.8103,-4.8085,-4.8085,-4.8085,-4.8103,-4.8103,-4.8105,-4.8241,-4.876,-4.8741,-4.8836,-4.8759,-4.8836,-4.9394,-4.9221,-4.9067,-4.8798,-4.8759,-4.9279,-4.9433,-4.976,-4.9702,-4.9798,-4.9625,-4.9586,-4.976,-5.0029,-5.0164,-5.024,-5.0625,-5.0683,-5.0683,-5.0721,-5.0798,-5.0911,-5.1057,-5.1172,-5.125,-5.1328,-5.1387,-5.1387,-5.1387,-5.1387,-5.1387,-5.1387,-5.1387,-5.1387,-5.1387,-5.1387,-5.1387,-5.1387,-5.1387,-5.1387,-5.1387,-5.1387,-5.1387,-5.1387,-5.1387,-5.1387,-5.1387,-5.1387,-5.1387,-4.457,-4.457,-4.457,-4.457,-4.4665,-4.5284,-4.5885,-4.6487,-4.7186,-4.7793,-4.8304,-4.8324,-4.8324,-4.8324,-4.8324,-4.8324,-4.8324,-4.8324,-4.8324,-4.8324,-4.8324,-4.8324,-4.8324,-4.8324,-4.8324,-4.8324,-4.8324,-4.8324,-4.8324,-4.8324,-4.8324,-4.8343,-4.8398,-4.8512,-4.8919,-4.9664,-5.0202,-5.0471,-5.026,-5.0087,-4.9971,-4.9856,-4.9798,-4.9625,-4.9202,-4.8856,-4.8721,-4.8373,-4.8121,-4.8102,-4.8102,-4.8103,-4.8086,-4.8086,-4.8105,-4.8102,-4.8105,-4.8105,-4.8105,-4.8105,-4.8413,-4.8855,-4.8778,-4.9105,-5.0066,-5.0336,-4.9951,-4.9336,-4.9798,-5.0087,-5.0356,-5.0337,-5.0048,-4.9856,-4.9702,-4.9606,-4.9375,-4.9567,-4.9702,-4.9894,-4.976,-4.974,-5.0317,-5.0683,-5.0683,-5.0721,-5.0818,-5.095,-5.1051,-5.1152,-5.123,-5.1289,-5.1367,-5.1387,-5.1387,-5.1387,-5.1387,-5.1387,-5.1367,-5.1348,-5.1348,-5.1348,-5.1348,-5.1387,-5.1387,-5.1387,-5.1387,-5.1387,-5.1387,-5.1387,-5.1387,-5.1387,-5.1387,-5.1387,-5.1387,-4.457,-4.457,-4.457,-4.457,-4.4703,-4.5699,-4.624,-4.6589,-4.7461,-4.8101,-4.8265,-4.8324,-4.8324,-4.8324,-4.8324,-4.8324,-4.8324,-4.8324,-4.8324,-4.8324,-4.8324,-4.8324,-4.8324,-4.8324,-4.8324,-4.8324,-4.8324,-4.8324,-4.8324,-4.8324,-4.8324,-4.8343,-4.8548,-4.8549,-4.8684,-4.9105,-4.951,-4.9029,-4.8894,-4.8933,-4.9029,-4.9106,-4.9163,-4.9202,-4.8894,-4.8798,-4.8817,-4.8432,-4.8355,-4.8317,-4.8336,-4.8298,-4.8279,-4.8279,-4.8221,-4.8182,-4.8163,-4.8105,-4.8105,-4.8105,-4.8201,-4.8546,-4.8739,-4.8894,-4.901,-4.899,-4.8971,-4.9163,-4.9452,-4.9394,-4.8875,-4.8913,-4.8759,-4.8721,-4.8644,-4.8663,-4.8644,-4.9183,-4.9529,-4.976,-4.9779,-5.0087,-5.0567,-5.0683,-5.0683,-5.0683,-5.076,-5.0837,-5.095,-5.1076,-5.1152,-5.123,-5.1308,-5.1367,-5.1387,-5.1367,-5.1367,-5.1367,-5.1308,-5.125,-5.1269,-5.1277,-5.1289,-5.1308,-5.1348,-5.1387,-5.1387,-5.1387,-5.1387,-5.1387,-5.1387,-5.1387,-5.1387,-5.1387,-5.1387,-4.457,-4.457,-4.457,-4.472,-4.5035,-4.5947,-4.66,-4.715,-4.7937,-4.8324,-4.8324,-4.8324,-4.8324,-4.8324,-4.8324,-4.8324,-4.8324,-4.8324,-4.8324,-4.8324,-4.8324,-4.8324,-4.8324,-4.8324,-4.8324,-4.8324,-4.8324,-4.8324,-4.8324,-4.8324,-4.8402,-4.8606,-4.8881,-4.9048,-4.9146,-4.9429,-4.9625,-4.9375,-4.949,-4.9375,-4.9336,-4.924,-4.9183,-4.9221,-4.9163,-4.9144,-4.9048,-4.8971,-4.8971,-4.8952,-4.8933,-4.8952,-4.8971,-4.899,-4.9009,-4.9009,-4.9009,-4.9048,-4.9106,-4.9125,-4.9259,-4.9258,-4.8778,-4.874,-4.8914,-4.9356,-4.9317,-4.926,-4.8933,-4.8971,-4.899,-4.8894,-4.8875,-4.8913,-4.8952,-4.9029,-4.9163,-4.976,-4.9875,-5.0067,-5.0144,-5.0491,-5.0683,-5.0683,-5.0683,-5.0683,-5.0702,-5.0779,-5.0875,-5.0975,-5.1083,-5.1152,-5.123,-5.1269,-5.1289,-5.1308,-5.1308,-5.1328,-5.1275,-5.1202,-5.1218,-5.1244,-5.1239,-5.125,-5.1328,-5.1387,-5.1387,-5.1387,-5.1387,-5.1387,-5.1387,-5.1387,-5.1387,-5.1387,-5.1387,-4.457,-4.457,-4.457,-4.4944,-4.5563,-4.6213,-4.7124,-4.8229,-4.8267,-4.8324,-4.8324,-4.8324,-4.8324,-4.8324,-4.8324,-4.8324,-4.8324,-4.8324,-4.8324,-4.8324,-4.8324,-4.8324,-4.8324,-4.8324,-4.8324,-4.8324,-4.8324,-4.8324,-4.8324,-4.8324,-4.8495,-4.8804,-4.9084,-4.934,-4.9602,-4.9867,-5.0046,-5.0125,-5.0183,-5.0125,-5.0125,-5.0317,-5.0221,-5.0202,-5.0221,-5.024,-5.024,-5.0279,-5.0356,-5.0414,-5.0491,-5.0548,-5.0606,-5.0664,-5.0664,-5.0606,-5.051,-5.0414,-5.0337,-5.0279,-5.0317,-5.0106,-4.9779,-5.0029,-5.0164,-5.0183,-5.0106,-5.0144,-5.0106,-5.0317,-5.0452,-5.0375,-5.0317,-5.0337,-5.0337,-5.0375,-5.0394,-5.0529,-5.0529,-5.0567,-5.0548,-5.0683,-5.0683,-5.0683,-5.0683,-5.0683,-5.0702,-5.0741,-5.0818,-5.0895,-5.0995,-5.1055,-5.1113,-5.1152,-5.1191,-5.1211,-5.123,-5.123,-5.1203,-5.1164,-5.1183,-5.1178,-5.1171,-5.1206,-5.1322,-5.1367,-5.1387,-5.1387,-5.1387,-5.1387,-5.1387,-5.1387,-5.1387,-5.1387,-5.1387,-4.457,-4.457,-4.457,-4.4944,-4.5597,-4.6663,-4.7597,-4.8247,-4.8324,-4.8324,-4.8324,-4.8324,-4.8324,-4.8324,-4.8324,-4.8324,-4.8324,-4.8324,-4.8324,-4.8324,-4.8324,-4.8324,-4.8324,-4.8324,-4.8324,-4.8324,-4.8324,-4.8324,-4.8324,-4.8324,-4.8306,-4.8494,-4.9002,-4.9355,-4.9682,-4.9949,-5.0331,-5.0587,-5.0683,-5.0683,-5.0683,-5.0683,-5.0683,-5.0683,-5.0683,-5.0683,-5.0683,-5.0683,-5.0683,-5.0683,-5.0683,-5.0683,-5.0683,-5.0683,-5.0683,-5.0683,-5.0664,-5.0664,-5.0683,-5.0683,-5.0683,-5.0683,-5.0394,-5.0452,-5.0625,-5.0683,-5.0683,-5.0683,-5.0683,-5.0683,-5.0683,-5.0683,-5.0683,-5.0683,-5.0683,-5.0683,-5.0683,-5.0683,-5.0683,-5.0683,-5.0683,-5.0683,-5.0683,-5.0683,-5.0683,-5.0683,-5.0702,-5.0721,-5.076,-5.0837,-5.0875,-5.0945,-5.1005,-5.1037,-5.1101,-5.1133,-5.1133,-5.1128,-5.1106,-5.1087,-5.1066,-5.1059,-5.1072,-5.1128,-5.1219,-5.1308,-5.1387,-5.1387,-5.1348,-5.1387,-5.1387,-5.1387,-5.1387,-5.1387,-5.1387,-4.4776,-4.4961,-4.4944,-4.5477,-4.6358,-4.7357,-4.7988,-4.8286,-4.8324,-4.8324,-4.8324,-4.8324,-4.8324,-4.8324,-4.8324,-4.8324,-4.8324,-4.8324,-4.8324,-4.8324,-4.8324,-4.8324,-4.8324,-4.8324,-4.8324,-4.8324,-4.8324,-4.8324,-4.8324,-4.8344,-4.8326,-4.8623,-4.894,-4.934,-4.9752,-5.0172,-5.045,-5.0606,-5.0683,-5.0683,-5.0683,-5.0683,-5.0683,-5.0683,-5.0683,-5.0683,-5.0683,-5.0683,-5.0683,-5.0683,-5.0683,-5.0683,-5.0683,-5.0683,-5.0683,-5.0683,-5.0683,-5.0683,-5.0683,-5.0683,-5.0683,-5.0683,-5.0683,-5.0664,-5.0664,-5.0683,-5.0683,-5.0683,-5.0683,-5.0683,-5.0683,-5.0683,-5.0683,-5.0683,-5.0683,-5.0683,-5.0683,-5.0683,-5.0683,-5.0683,-5.0683,-5.0683,-5.0683,-5.0683,-5.0683,-5.0683,-5.0683,-5.0702,-5.0721,-5.076,-5.0779,-5.0795,-5.0873,-5.091,-5.0984,-5.1029,-5.1014,-5.1005,-5.0999,-5.0991,-5.0931,-5.0968,-5.0999,-5.1042,-5.1103,-5.1191,-5.1289,-5.1308,-5.1289,-5.1348,-5.1387,-5.1387,-5.1387,-5.1387,-5.1387,-4.4949,-4.5441,-4.563,-4.6305,-4.7403,-4.7974,-4.8286,-4.8324,-4.8324,-4.8324,-4.8324,-4.8324,-4.8324,-4.8324,-4.8324,-4.8324,-4.8324,-4.8324,-4.8324,-4.8324,-4.8324,-4.8324,-4.8324,-4.8324,-4.8324,-4.8324,-4.8324,-4.8324,-4.8324,-4.8306,-4.8458,-4.8885,-4.9159,-4.9496,-4.9839,-5.0255,-5.051,-5.0644,-5.0683,-5.0683,-5.0683,-5.0683,-5.0683,-5.0683,-5.0683,-5.0683,-5.0683,-5.0683,-5.0683,-5.0683,-5.0683,-5.0683,-5.0683,-5.0683,-5.0683,-5.0683,-5.0683,-5.0683,-5.0683,-5.0683,-5.0683,-5.0683,-5.0683,-5.0683,-5.0683,-5.0683,-5.0683,-5.0683,-5.0683,-5.0683,-5.0683,-5.0683,-5.0683,-5.0683,-5.0683,-5.0683,-5.0683,-5.0683,-5.0683,-5.0683,-5.0683,-5.0683,-5.0683,-5.0683,-5.0683,-5.0683,-5.0683,-5.0683,-5.0702,-5.0702,-5.0702,-5.0702,-5.076,-5.0818,-5.0837,-5.0874,-5.0894,-5.0875,-5.0895,-5.0894,-5.0871,-5.0874,-5.0933,-5.0974,-5.1011,-5.1093,-5.1172,-5.1191,-5.123,-5.1308,-5.1348,-5.1387,-5.1387,-5.1387,-5.1387,-4.4761,-4.5364,-4.6478,-4.715,-4.747,-4.8035,-4.8306,-4.8324,-4.8324,-4.8324,-4.8324,-4.8324,-4.8324,-4.8324,-4.8324,-4.8324,-4.8324,-4.8324,-4.8324,-4.8324,-4.8324,-4.8324,-4.8324,-4.8324,-4.8324,-4.8324,-4.8324,-4.8324,-4.8324,-4.8306,-4.8363,-4.8513,-4.8915,-4.9392,-4.9633,-5.0073,-5.0452,-5.0606,-5.0683,-5.0683,-5.0683,-5.0683,-5.0683,-5.0683,-5.0683,-5.0683,-5.0683,-5.0683,-5.0683,-5.0683,-5.0683,-5.0683,-5.0683,-5.0683,-5.0683,-5.0683,-5.0683,-5.0683,-5.0683,-5.0683,-5.0683,-5.0683,-5.0683,-5.0683,-5.0683,-5.0683,-5.0683,-5.0683,-5.0683,-5.0683,-5.0683,-5.0683,-5.0683,-5.0683,-5.0683,-5.0683,-5.0683,-5.0683,-5.0683,-5.0683,-5.0683,-5.0683,-5.0683,-5.0683,-5.0683,-5.0683,-5.0683,-5.0683,-5.0683,-5.0702,-5.0702,-5.0702,-5.0702,-5.0721,-5.0741,-5.076,-5.0779,-5.0798,-5.0837,-5.0817,-5.0775,-5.0797,-5.0837,-5.0895,-5.0943,-5.1004,-5.105,-5.1113,-5.1172,-5.125,-5.1289,-5.1328,-5.1387,-5.1387,-5.1387,-4.4565,-4.5203,-4.6264,-4.6961,-4.7292,-4.7638,-4.7974,-4.8288,-4.8324,-4.8324,-4.8324,-4.8324,-4.8324,-4.8324,-4.8324,-4.8324,-4.8324,-4.8324,-4.8324,-4.8324,-4.8324,-4.8324,-4.8324,-4.8324,-4.8324,-4.8324,-4.8324,-4.8324,-4.8324,-4.8324,-4.8324,-4.8398,-4.8825,-4.9177,-4.9427,-4.9879,-5.0336,-5.0433,-5.0606,-5.0683,-5.0683,-5.0683,-5.0683,-5.0683,-5.0683,-5.0683,-5.0683,-5.0683,-5.0683,-5.0683,-5.0683,-5.0683,-5.0683,-5.0683,-5.0683,-5.0683,-5.0683,-5.0683,-5.0683,-5.0683,-5.0683,-5.0683,-5.0683,-5.0683,-5.0683,-5.0683,-5.0683,-5.0683,-5.0683,-5.0683,-5.0683,-5.0683,-5.0683,-5.0683,-5.0683,-5.0683,-5.0683,-5.0683,-5.0683,-5.0683,-5.0683,-5.0683,-5.0683,-5.0683,-5.0683,-5.0683,-5.0683,-5.0683,-5.0683,-5.0683,-5.0683,-5.0683,-5.0683,-5.0683,-5.0702,-5.0721,-5.0702,-5.0741,-5.076,-5.076,-5.074,-5.0721,-5.0721,-5.0798,-5.0837,-5.0874,-5.0938,-5.1005,-5.1097,-5.1211,-5.123,-5.125,-5.1308,-5.1387,-5.1387,-4.4436,-4.5142,-4.5717,-4.6305,-4.6855,-4.6927,-4.7384,-4.8029,-4.8121,-4.8194,-4.8324,-4.8324,-4.8324,-4.8324,-4.8324,-4.8324,-4.8324,-4.8324,-4.8324,-4.8324,-4.8324,-4.8324,-4.8324,-4.8324,-4.8324,-4.8324,-4.8324,-4.8324,-4.8324,-4.8324,-4.8361,-4.8453,-4.8805,-4.9232,-4.9399,-4.9835,-5.0368,-5.0413,-5.0548,-5.0664,-5.0683,-5.0683,-5.0683,-5.0683,-5.0683,-5.0683,-5.0683,-5.0683,-5.0683,-5.0683,-5.0683,-5.0683,-5.0683,-5.0683,-5.0683,-5.0683,-5.0683,-5.0683,-5.0683,-5.0683,-5.0683,-5.0683,-5.0683,-5.0683,-5.0683,-5.0683,-5.0683,-5.0683,-5.0683,-5.0683,-5.0683,-5.0683,-5.0683,-5.0683,-5.0683,-5.0683,-5.0683,-5.0683,-5.0683,-5.0683,-5.0683,-5.0683,-5.0683,-5.0683,-5.0683,-5.0683,-5.0683,-5.0683,-5.0683,-5.0683,-5.0683,-5.0683,-5.0683,-5.0683,-5.0683,-5.0683,-5.0683,-5.0702,-5.0721,-5.0702,-5.0683,-5.0683,-5.0683,-5.0683,-5.0741,-5.0779,-5.0818,-5.0871,-5.0988,-5.112,-5.1172,-5.1191,-5.1289,-5.1348,-5.1387,-4.4621,-4.5718,-4.5847,-4.5975,-4.614,-4.6122,-4.6579,-4.7256,-4.7348,-4.7679,-4.8121,-4.8306,-4.8324,-4.8324,-4.8324,-4.8324,-4.8324,-4.8324,-4.8324,-4.8324,-4.8324,-4.8324,-4.8324,-4.8324,-4.8324,-4.8324,-4.8324,-4.8324,-4.8324,-4.8324,-4.8324,-4.8361,-4.8379,-4.8844,-4.9402,-4.9808,-5.0011,-5.0183,-5.047,-5.0624,-5.0663,-5.0683,-5.0683,-5.0683,-5.0683,-5.0683,-5.0683,-5.0683,-5.0683,-5.0683,-5.0683,-5.0683,-5.0683,-5.0683,-5.0683,-5.0683,-5.0683,-5.0683,-5.0683,-5.0683,-5.0683,-5.0683,-5.0683,-5.0683,-5.0683,-5.0683,-5.0683,-5.0683,-5.0683,-5.0683,-5.0683,-5.0683,-5.0683,-5.0683,-5.0683,-5.0683,-5.0683,-5.0683,-5.0683,-5.0683,-5.0683,-5.0683,-5.0683,-5.0683,-5.0683,-5.0683,-5.0683,-5.0683,-5.0683,-5.0683,-5.0683,-5.0683,-5.0683,-5.0683,-5.0683,-5.0683,-5.0683,-5.0683,-5.0683,-5.0683,-5.0683,-5.0683,-5.0683,-5.0683,-5.0683,-5.0721,-5.0741,-5.0779,-5.0856,-5.0969,-5.1069,-5.1133,-5.123,-5.1308,-5.1328]}]]